[[{"header":{"parameterUnit":"m.s-1","parameterCategory":1,"la1":30.6,"la2":28.766,"lo1":-90.7593,"lo2":-88.6598,"dy":0.0162,"dx":0.0183,"nx":116,"ny":114,"refTime":"2023-04-09T00:00:00:Z","depth":0,"parameterNumber":2,"parameterNumberName":"U-component_of_WINDS"},"data":[0.0,0.0,0.0,0.0,0.0,0.0,0.0,0.0,0.0,0.0,0.0,0.0,0.0,0.0,0.0,0.0,0.0,0.0,0.0,0.0,0.0,0.0,0.0,0.0,0.0,0.0,0.0,0.0,0.0,0.0,0.0,0.0,0.0,0.0,0.0,0.0,0.0,0.0,0.0,0.0,0.0,0.0,0.0,0.0,0.0,0.0,0.0,0.0,0.0,0.0,0.0,0.0,0.0,0.0,0.0,0.0,0.0,0.0,0.0,0.0,0.0,0.0,0.0,0.0,0.0,0.0,0.0,0.0,0.0,0.0,0.0,0.0,0.0,0.0,0.0,0.0,0.0,0.0,0.0,0.0,0.0,0.0,0.0,0.0,0.0,0.0,0.0,0.0,0.0,0.0,0.0,0.0,0.0,0.0,0.0,0.0,0.0,0.0,0.0,0.0,0.0,0.0,0.0,0.0,0.0,0.0,0.0,0.0,0.0,0.0,0.0,0.0,0.0,0.0,0.0,0.0,0.0,0.0,0.0,0.0,0.0,0.0,0.0,0.0,0.0,0.0,0.0,0.0,0.0,0.0,0.0,0.0,0.0,0.0,0.0,0.0,0.0,0.0,0.0,0.0,0.0,0.0,0.0,0.0,0.0,0.0,0.0,0.0,0.0,0.0,0.0,0.0,0.0,0.0,0.0,0.0,0.0,0.0,0.0,0.0,0.0,0.0,0.0,0.0,0.0,0.0,0.0,0.0,0.0,0.0,0.0,0.0,0.0,0.0,0.0,0.0,0.0,0.0,0.0,0.0,0.0,0.0,0.0,0.0,0.0,0.0,0.0,0.0,0.0,0.0,0.0,0.0,0.0,0.0,0.0,0.0,0.0,0.0,0.0,0.0,0.0,0.0,0.0,0.0,0.0,0.0,0.0,0.0,0.0,0.0,0.0,0.0,0.0,0.0,0.0,0.0,0.0,0.0,0.0,0.0,0.0,0.0,0.0,0.0,0.0,0.0,0.0,0.0,0.0,0.0,0.0,0.0,0.0,0.0,0.0,0.0,0.0,0.0,0.0,0.0,0.0,0.0,0.0,0.0,0.0,0.0,0.0,0.0,0.0,0.0,0.0,0.0,0.0,0.0,0.0,0.0,0.0,0.0,0.0,0.0,0.0,0.0,0.0,0.0,0.0,0.0,0.0,0.0,0.0,0.0,0.0,0.0,0.0,0.0,0.0,0.0,0.0,0.0,0.0,0.0,0.0,0.0,0.0,0.0,0.0,0.0,0.0,0.0,0.0,0.0,0.0,0.0,0.0,0.0,0.0,0.0,0.0,0.0,0.0,0.0,0.0,0.0,0.0,0.0,0.0,0.0,0.0,0.0,0.0,0.0,0.0,0.0,0.0,0.0,0.0,0.0,0.0,0.0,0.0,0.0,0.0,0.0,0.0,0.0,0.0,0.0,0.0,0.0,0.0,0.0,0.0,0.0,0.0,0.0,0.0,0.0,0.0,0.0,0.0,0.0,0.0,0.0,0.0,0.0,0.0,0.0,0.0,0.0,0.0,0.0,0.0,0.0,0.0,0.0,0.0,0.0,0.0,0.0,0.0,0.0,0.0,0.0,0.0,0.0,0.0,0.0,0.0,0.0,0.0,0.0,0.0,0.0,0.0,0.0,0.0,0.0,0.0,0.0,0.0,0.0,0.0,0.0,0.0,0.0,0.0,0.0,0.0,0.0,0.0,0.0,0.0,0.0,0.0,0.0,0.0,0.0,0.0,0.0,0.0,0.0,0.0,0.0,0.0,0.0,0.0,0.0,0.0,0.0,0.0,0.0,0.0,0.0,0.0,0.0,0.0,0.0,0.0,0.0,0.0,0.0,0.0,0.0,0.0,0.0,0.0,0.0,0.0,0.0,0.0,0.0,0.0,0.0,0.0,0.0,0.0,0.0,0.0,0.0,0.0,0.0,0.0,0.0,0.0,0.0,0.0,0.0,0.0,0.0,0.0,0.0,0.0,0.0,0.0,0.0,0.0,0.0,0.0,0.0,0.0,0.0,0.0,0.0,0.0,0.0,0.0,0.0,0.0,0.0,0.0,0.0,0.0,0.0,0.0,0.0,0.0,0.0,0.0,0.0,0.0,0.0,0.0,0.0,0.0,0.0,0.0,0.0,0.0,0.0,0.0,0.0,0.0,0.0,0.0,0.0,0.0,0.0,0.0,0.0,0.0,0.0,0.0,0.0,0.0,0.0,0.0,0.0,0.0,0.0,0.0,0.0,0.0,0.0,0.0,0.0,0.0,0.0,0.0,0.0,0.0,0.0,0.0,0.0,0.0,0.0,0.0,0.0,0.0,0.0,0.0,0.0,0.0,0.0,0.0,0.0,0.0,0.0,0.0,0.0,0.0,0.0,0.0,0.0,0.0,0.0,0.0,0.0,0.0,0.0,0.0,0.0,0.0,0.0,0.0,0.0,0.0,0.0,0.0,0.0,0.0,0.0,0.0,0.0,0.0,0.0,0.0,0.0,0.0,0.0,0.0,0.0,0.0,0.0,0.0,0.0,0.0,0.0,0.0,0.0,0.0,0.0,0.0,0.0,0.0,0.0,0.0,0.0,0.0,0.0,0.0,0.0,0.0,0.0,0.0,0.0,0.0,0.0,0.0,0.0,0.0,0.0,0.0,0.0,0.0,0.0,0.0,0.0,0.0,0.0,0.0,0.0,0.0,0.0,0.0,0.0,0.0,0.0,0.0,0.0,0.0,0.0,0.0,0.0,0.0,0.0,0.0,0.0,0.0,0.0,0.0,0.0,0.0,0.0,0.0,0.0,0.0,0.0,0.0,0.0,0.0,0.0,0.0,0.0,0.0,0.0,0.0,0.0,0.0,0.0,0.0,0.0,0.0,0.0,0.0,0.0,0.0,0.0,0.0,0.0,0.0,0.0,0.0,0.0,0.0,0.0,0.0,0.0,0.0,0.0,0.0,0.0,0.0,0.0,0.0,0.0,0.0,0.0,0.0,0.0,0.0,0.0,0.0,0.0,0.0,0.0,0.0,0.0,0.0,0.0,0.0,0.0,0.0,0.0,0.0,0.0,0.0,0.0,0.0,0.0,0.0,0.0,0.0,0.0,0.0,0.0,0.0,0.0,0.0,0.0,0.0,0.0,0.0,0.0,0.0,0.0,0.0,0.0,0.0,0.0,0.0,0.0,0.0,0.0,0.0,0.0,0.0,0.0,0.0,0.0,0.0,0.0,0.0,0.0,0.0,0.0,0.0,0.0,0.0,0.0,0.0,0.0,0.0,0.0,0.0,0.0,0.0,0.0,0.0,0.0,0.0,0.0,0.0,0.0,0.0,0.0,0.0,0.0,0.0,0.0,0.0,0.0,0.0,0.0,0.0,0.0,0.0,0.0,0.0,0.0,0.0,0.0,0.0,0.0,0.0,0.0,0.0,0.0,0.0,0.0,0.0,0.0,0.0,0.0,0.0,0.0,0.0,0.0,0.0,0.0,0.0,0.0,0.0,0.0,0.0,0.0,0.0,0.0,0.0,0.0,0.0,0.0,0.0,0.0,0.0,0.0,0.0,0.0,0.0,0.0,0.0,0.0,0.0,0.0,0.0,0.0,0.0,0.0,0.0,0.0,0.0,0.0,0.0,0.0,0.0,0.0,0.0,0.0,0.0,0.0,0.0,0.0,0.0,0.0,0.0,0.0,0.0,0.0,0.0,0.0,0.0,0.0,0.0,0.0,0.0,0.0,0.0,0.0,0.0,0.0,0.0,0.0,0.0,0.0,0.0,0.0,0.0,0.0,0.0,0.0,0.0,0.0,0.0,0.0,0.0,0.0,0.0,0.0,0.0,0.0,0.0,0.0,0.0,0.0,0.0,0.0,0.0,0.0,0.0,0.0,0.0,0.0,0.0,0.0,0.0,0.0,0.0,0.0,0.0,0.0,0.0,0.0,0.0,0.0,0.0,0.0,0.0,0.0,0.0,0.0,0.0,0.0,0.0,0.0,0.0,0.0,0.0,0.0,0.0,0.0,0.0,0.0,0.0,0.0,0.0,0.0,0.0,0.0,0.0,0.0,0.0,0.0,0.0,0.0,0.0,0.0,0.0,0.0,0.0,0.0,0.0,0.0,0.0,0.0,0.0,0.0,0.0,0.0,0.0,0.0,0.0,0.0,0.0,0.0,0.0,0.0,0.0,0.0,0.0,0.0,0.0,0.0,0.0,0.0,0.0,0.0,0.0,0.0,0.0,0.0,0.0,0.0,0.0,0.0,0.0,0.0,0.0,0.0,0.0,0.0,0.0,0.0,0.0,0.0,0.0,0.0,0.0,0.0,0.0,0.0,0.0,0.0,0.0,0.0,0.0,0.0,0.0,0.0,0.0,0.0,0.0,0.0,0.0,0.0,0.0,0.0,0.0,0.0,0.0,0.0,0.0,0.0,0.0,0.0,0.0,0.0,0.0,0.0,0.0,0.0,0.0,0.0,0.0,0.0,0.0,0.0,0.0,0.0,0.0,0.0,0.0,0.0,0.0,0.0,0.0,0.0,0.0,0.0,0.0,0.0,0.0,0.0,0.0,0.0,0.0,0.0,0.0,0.0,0.0,0.0,0.0,0.0,0.0,0.0,0.0,0.0,0.0,0.0,0.0,0.0,0.0,0.0,0.0,0.0,0.0,0.0,0.0,0.0,0.0,0.0,0.0,0.0,0.0,0.0,0.0,0.0,0.0,0.0,0.0,0.0,0.0,0.0,0.0,0.0,0.0,0.0,0.0,0.0,0.0,0.0,0.0,0.0,0.0,0.0,0.0,0.0,0.0,0.0,0.0,0.0,0.0,0.0,0.0,0.0,0.0,0.0,0.0,0.0,0.0,0.0,0.0,0.0,0.0,0.0,0.0,0.0,0.0,0.0,0.0,0.0,0.0,0.0,0.0,0.0,0.0,0.0,0.0,0.0,0.0,0.0,0.0,0.0,0.0,0.0,0.0,0.0,0.0,0.0,0.0,0.0,0.0,0.0,0.0,0.0,0.0,0.0,0.0,0.0,0.0,0.0,0.0,0.0,0.0,0.0,0.0,0.0,0.0,0.0,0.0,0.0,0.0,0.0,0.0,0.0,0.0,0.0,0.0,0.0,0.0,0.0,0.0,0.0,0.0,0.0,0.0,0.0,0.0,0.0,0.0,0.0,0.0,0.0,0.0,0.0,0.0,0.0,0.0,0.0,0.0,0.0,0.0,0.0,0.0,0.0,0.0,0.0,0.0,0.0,0.0,0.0,0.0,0.0,0.0,0.0,0.0,0.0,0.0,0.0,0.0,0.0,0.0,0.0,0.0,0.0,0.0,0.0,0.0,0.0,0.0,0.0,0.0,0.0,0.0,0.0,0.0,0.0,0.0,0.0,0.0,0.0,0.0,0.0,0.0,0.0,0.0,0.0,0.0,0.0,0.0,0.0,0.0,0.0,0.0,0.0,0.0,0.0,0.0,0.0,0.0,0.0,0.0,0.0,0.0,0.0,0.0,0.0,0.0,0.0,0.0,0.0,0.0,0.0,0.0,0.0,0.0,0.0,0.0,0.0,0.0,0.0,0.0,0.0,0.0,0.0,0.0,0.0,0.0,0.0,0.0,0.0,0.0,0.0,0.0,0.0,0.0,0.0,0.0,0.0,0.0,0.0,0.0,0.0,0.0,0.0,0.0,0.0,0.0,0.0,0.0,0.0,0.0,0.0,0.0,0.0,0.0,0.0,0.0,0.0,0.0,0.0,0.0,0.0,0.0,0.0,0.0,0.0,0.0,0.0,0.0,0.0,0.0,0.0,0.0,0.0,0.0,0.0,0.0,0.0,0.0,0.0,0.0,0.0,0.0,0.0,0.0,0.0,0.0,0.0,0.0,0.0,0.0,0.0,0.0,0.0,0.0,0.0,0.0,0.0,0.0,0.0,0.0,0.0,0.0,0.0,0.0,0.0,0.0,0.0,0.0,0.0,0.0,0.0,0.0,0.0,0.0,0.0,0.0,0.0,0.0,0.0,0.0,0.0,0.0,0.0,0.0,0.0,0.0,0.0,0.0,0.0,0.0,0.0,0.0,0.0,0.0,0.0,0.0,0.0,0.0,0.0,0.0,0.0,0.2211,0.2211,0.0,0.0,0.0,0.0,0.0,0.0,0.0,0.0,0.0,0.0,0.0,0.0,0.0,0.0,0.0,0.0,0.0,0.0,0.0,0.0,0.0,0.0,0.0,0.0,0.0,0.0,0.0,0.0,0.0,0.0,0.0,0.0,0.0,0.0,0.0,0.0,0.0,0.3346,0.3178,0.2735,0.2118,0.3672,0.4286,0.4074,0.0,0.0,0.0,0.0,0.0,0.0,0.0,0.0,0.0,0.0,0.0,0.0,0.0,0.0,0.0,0.0,0.0,0.0,0.0,0.0,0.0,0.0,0.0,0.0,0.0,0.0,0.0,0.0,0.0,0.0,0.0,0.0,0.0,0.0,0.0,0.0,0.0,0.0,0.0,0.0,0.0,0.0,0.0,0.0,0.0,0.0,0.0,0.0,0.0,0.0,0.0,0.0,0.0,0.0,0.0,0.0,0.0,0.0,0.0,0.0,0.0,0.0,0.0,0.0,0.0,0.0,0.0,0.0,0.0,0.0,0.2275,0.2234,0.0,0.0,0.0,0.0,0.0,0.0,0.0,0.0,0.0,0.0,0.0,0.0,0.0,0.0,0.0,0.0,0.0,0.0,0.0,0.0,0.0,0.0,0.0,1.0666,1.0585,1.0412,0.941,0.8725,0.0,0.0,0.0,0.0,0.0,0.0,0.3682,0.3682,0.3172,0.2111,0.2105,0.2117,0.2117,0.2177,0.2164,0.212,0.2114,0.0,0.0,0.0,0.0,0.0,0.0,0.0,0.0,0.0,0.0,0.0,0.0,0.0,0.0,0.0,0.0,0.0,0.0,0.0,0.0,0.0,0.0,0.0,0.0,0.0,0.0,0.0,0.0,0.0,0.0,0.0,0.0,0.0,0.0,0.0,0.0,0.0,0.0,0.0,0.0,0.0,0.0,0.0,0.0,0.0,0.0,0.0,0.0,0.0,0.0,0.0,0.0,0.0,0.0,0.0,0.0,0.0,0.0,0.0,0.0,0.0,0.0,0.0,0.239,0.2417,0.2455,0.248,0.2481,0.242,0.2384,0.2335,0.2304,0.2244,0.0,0.0,0.0,0.0,0.0,0.0,0.0,0.0,0.0,0.0,0.0,0.0,0.0,0.0,0.0,0.0,0.0,0.0,0.0,1.1086,1.1336,1.0863,1.0576,1.0711,1.0046,0.9176,0.8077,0.0,0.0,0.0,0.0,0.0,0.2365,0.2365,0.2281,0.2177,0.2181,0.2182,0.2182,0.2186,0.2199,0.2181,0.2188,0.2177,0.2177,0.0,0.0,0.0,0.0,0.0,0.0,0.0,0.0,0.0,0.0,0.0,0.0,0.0,0.0,0.0,0.0,0.0,0.0,0.0,0.0,0.0,0.0,0.0,0.0,0.0,0.0,0.0,0.0,0.0,0.0,0.0,0.0,0.0,0.0,0.0,0.0,0.0,0.0,0.0,0.0,0.0,0.2198,0.2263,0.0,0.0,0.0,0.0,0.0,0.0,0.0,0.0,0.0,0.0,0.0,0.0,0.0,0.2409,0.2477,0.2535,0.2566,0.257,0.2563,0.2578,0.2578,0.2582,0.2597,0.2577,0.2564,0.0,0.2404,0.2363,0.0,0.0,0.0,0.0,0.0,0.0,0.0,0.0,0.0,0.0,0.0,0.0,0.0,0.0,0.0,0.0,0.0,0.0,0.0,0.0,0.0,1.0619,1.0499,1.0533,0.9574,0.8375,0.7024,0.5677,0.0,0.0,0.0,0.2104,0.2167,0.2168,0.2183,0.2214,0.2197,0.2206,0.2206,0.2188,0.2196,0.219,0.2211,0.2206,0.2204,0.2188,0.0,0.0,0.0,0.0,0.0,0.0,0.0,0.0,0.0,0.0,0.0,0.0,0.0,0.0,0.0,0.0,0.0,0.0,0.0,0.0,0.0,0.0,0.0,0.0,0.0,0.0,0.0,0.0,0.0,0.0,0.0,0.0,0.0,0.0,0.0,0.0,0.0,0.0,0.0,0.2252,0.2307,0.2234,0.2297,0.23,0.0,0.0,0.0,0.0,0.0,0.0,0.0,0.0,0.0,0.2459,0.2487,0.2514,0.2544,0.2604,0.2643,0.2661,0.2724,0.2755,0.2755,0.2772,0.2767,0.2705,0.2705,0.2642,0.2575,0.2546,0.2482,0.2384,0.0,0.0,0.0,0.0,0.2271,0.2275,0.0,0.0,0.0,0.0,0.0,0.0,0.0,0.0,0.0,0.0,0.0,0.0,1.0503,1.0538,1.0374,0.9913,0.8863,0.7518,0.5753,0.4711,0.3546,0.2173,0.2117,0.2165,0.2188,0.2196,0.2211,0.22,0.2185,0.2202,0.221,0.2187,0.2193,0.2222,0.2222,0.2217,0.2209,0.2186,0.2211,0.221,0.0,0.0,0.0,0.0,0.0,0.0,0.0,0.0,0.0,0.0,0.0,0.0,0.0,0.0,0.0,0.0,0.0,0.0,0.0,0.0,0.0,0.0,0.0,0.0,0.0,0.0,0.0,0.0,0.0,0.0,0.0,0.0,0.0,0.0,0.0,0.0,0.0,0.2331,0.2379,0.2285,0.2386,0.2406,0.0,0.0,0.0,0.0,0.0,0.0,0.244,0.2517,0.2562,0.2656,0.268,0.2664,0.2694,0.2754,0.2796,0.2819,0.2887,0.2964,0.2966,0.2941,0.2923,0.2829,0.2829,0.2795,0.273,0.2646,0.2603,0.2506,0.2423,0.2378,0.2358,0.235,0.2348,0.2354,0.0,0.0,0.0,0.0,0.0,0.0,0.0,0.0,0.0,0.0,0.0,1.0837,1.0947,1.0866,1.0231,0.882,0.8347,0.6969,0.4278,0.4107,0.3518,0.2175,0.217,0.2186,0.2189,0.2217,0.2199,0.22,0.2193,0.2208,0.221,0.2209,0.2224,0.2289,0.2289,0.2273,0.221,0.2209,0.2208,0.2208,0.2206,0.0,0.0,0.0,0.0,0.0,0.0,0.0,0.0,0.0,0.0,0.0,0.0,0.0,0.0,0.0,0.0,0.0,0.0,0.0,0.0,0.0,0.0,0.0,0.0,0.0,0.0,0.0,0.0,0.0,0.0,0.0,0.0,0.0,0.0,0.0,0.0,0.0,0.0,0.2497,0.2553,0.0,0.0,0.0,0.0,0.2584,0.2572,0.2602,0.2593,0.265,0.2739,0.2772,0.2855,0.2912,0.2989,0.305,0.3082,0.3083,0.3089,0.309,0.309,0.3092,0.3075,0.2998,0.2998,0.2962,0.2896,0.2747,0.2667,0.2591,0.2572,0.2588,0.2582,0.2514,0.2503,0.2503,0.0,0.0,0.0,0.0,0.0,0.0,0.0,0.0,1.065,1.086,1.0735,1.0712,1.0972,0.9961,0.9086,0.8634,0.7623,0.6209,0.43,0.4223,0.3604,0.2239,0.2182,0.2197,0.2184,0.2214,0.2204,0.2259,0.2214,0.2229,0.2265,0.2248,0.229,0.2319,0.2338,0.2352,0.2319,0.2298,0.2275,0.2273,0.2218,0.2204,0.0,0.0,0.0,0.0,0.0,0.0,0.0,0.0,0.0,0.0,0.0,0.0,0.0,0.0,0.0,0.0,0.0,0.0,0.0,0.0,0.0,0.0,0.0,0.0,0.0,0.0,0.0,0.0,0.0,0.0,0.0,0.0,0.0,0.0,0.0,0.0,0.0,0.2615,0.2744,0.0,0.2737,0.2705,0.2701,0.2731,0.2777,0.2816,0.2848,0.2906,0.2991,0.3002,0.3006,0.3039,0.305,0.311,0.314,0.314,0.3157,0.3157,0.314,0.314,0.3112,0.3065,0.3065,0.3031,0.2969,0.2896,0.2826,0.2713,0.2676,0.2645,0.2642,0.257,0.2559,0.2562,0.0,0.0,0.0,0.0,0.0,0.0,0.0,0.0,1.0244,1.0662,1.0274,1.0145,1.0758,0.9418,0.831,0.7919,0.6547,0.5103,0.369,0.3589,0.3177,0.2256,0.2199,0.2184,0.2215,0.221,0.2271,0.229,0.2244,0.2259,0.2296,0.2313,0.232,0.2349,0.2369,0.2395,0.2382,0.2361,0.2342,0.2348,0.2281,0.2257,0.2234,0.0,0.0,0.0,0.0,0.0,0.0,0.0,0.0,0.0,0.0,0.0,0.0,0.0,0.0,0.0,0.0,0.0,0.0,0.0,0.0,0.0,0.0,0.0,0.0,0.0,0.0,0.0,0.0,0.0,0.0,0.0,0.0,0.0,0.0,0.2657,0.2788,0.2754,0.2868,0.2973,0.2924,0.2911,0.2913,0.2887,0.298,0.3017,0.3085,0.3133,0.3112,0.3112,0.3142,0.3157,0.3157,0.3208,0.3232,0.3234,0.3251,0.3251,0.3232,0.3232,0.32,0.3142,0.3142,0.3103,0.3035,0.3052,0.3003,0.2894,0.2793,0.2747,0.2736,0.2673,0.266,0.2654,0.0,0.0,0.0,0.0,0.0,0.0,1.0853,0.9967,0.9503,1.0001,0.9355,0.93,1.0415,0.9333,0.7981,0.663,0.5105,0.3638,0.2305,0.2202,0.2188,0.2193,0.2187,0.2217,0.2212,0.2277,0.2293,0.2293,0.2284,0.2297,0.2299,0.2297,0.235,0.2416,0.2417,0.2398,0.239,0.239,0.2446,0.251,0.2438,0.2352,0.23,0.0,0.0,0.0,0.0,0.0,0.0,0.0,0.0,0.0,0.0,0.0,0.0,0.0,0.0,0.0,0.0,0.0,0.0,0.0,0.0,0.0,0.0,0.0,0.0,0.0,0.0,0.0,0.0,0.0,0.0,0.0,0.0,0.0,0.2617,0.2767,0.2893,0.2924,0.3011,0.3091,0.3111,0.3134,0.3103,0.3103,0.3179,0.3197,0.3195,0.3221,0.3186,0.3186,0.3265,0.3281,0.3281,0.3311,0.3326,0.3325,0.3325,0.3324,0.3322,0.3322,0.329,0.3182,0.3182,0.3182,0.3099,0.3115,0.3101,0.3088,0.2968,0.2859,0.2789,0.2787,0.2811,0.2785,0.0,0.0,0.0,0.0,0.0,0.0,1.0868,1.0431,1.0442,1.1203,1.0561,1.0389,1.1333,0.8784,0.687,0.6528,0.4219,0.2622,0.2232,0.2198,0.2194,0.2186,0.2249,0.227,0.2278,0.2307,0.2333,0.2391,0.2339,0.2319,0.2361,0.2376,0.2382,0.2412,0.2433,0.2512,0.2561,0.2561,0.2552,0.255,0.2495,0.2447,0.2432,0.0,0.0,0.0,0.0,0.0,0.0,0.0,0.0,0.0,0.0,0.0,0.0,0.0,0.0,0.0,0.0,0.0,0.0,0.0,0.0,0.0,0.0,0.0,0.0,0.0,0.0,0.0,0.0,0.0,0.0,0.0,0.2697,0.2831,0.2804,0.2936,0.308,0.3195,0.3266,0.332,0.3407,0.3345,0.3337,0.3337,0.3366,0.3374,0.3351,0.3378,0.3385,0.3363,0.3392,0.346,0.346,0.3437,0.3441,0.342,0.342,0.3397,0.3354,0.3354,0.3333,0.3295,0.3273,0.3236,0.319,0.314,0.3092,0.3092,0.3014,0.2978,0.2923,0.29,0.286,0.2819,0.0,0.0,0.0,0.0,0.0,0.0,1.1126,1.0663,1.0683,1.1582,1.0923,1.0732,1.1784,0.8739,0.6711,0.6806,0.4013,0.2245,0.2228,0.2217,0.2216,0.2229,0.2281,0.2296,0.2308,0.2337,0.236,0.2415,0.2373,0.2351,0.2386,0.2418,0.2432,0.2462,0.248,0.2521,0.2617,0.2604,0.2593,0.2599,0.2571,0.2529,0.2545,0.2492,0.2477,0.2424,0.2424,0.2473,0.2485,0.2467,0.0,0.0,0.0,0.0,0.0,0.0,0.0,0.0,0.0,0.0,0.0,0.0,0.0,0.0,0.0,0.0,0.0,0.0,0.0,0.0,0.0,0.0,0.0,0.0,0.2856,0.3028,0.3122,0.3144,0.3232,0.3345,0.3397,0.3442,0.349,0.3478,0.3463,0.345,0.3489,0.3499,0.3469,0.3495,0.3506,0.3487,0.3502,0.3568,0.3568,0.3516,0.3509,0.3493,0.3482,0.3504,0.3459,0.3418,0.3393,0.334,0.3335,0.3309,0.3213,0.3154,0.3159,0.3118,0.0,0.0,0.0,0.0,0.2902,0.2883,0.0,0.0,0.0,0.0,0.0,0.0,1.1572,1.0829,1.0639,1.1582,1.089,1.0747,1.1944,0.9205,0.7378,0.7583,0.4559,0.2573,0.2367,0.227,0.2233,0.23,0.2301,0.2313,0.2305,0.2369,0.2422,0.2426,0.2416,0.2432,0.2439,0.2466,0.2495,0.2523,0.2523,0.2555,0.2605,0.2579,0.2601,0.261,0.2607,0.2616,0.2607,0.254,0.2529,0.2529,0.2529,0.2533,0.2538,0.2536,0.0,0.0,0.0,0.0,0.0,0.0,0.0,0.0,0.0,0.0,0.0,0.0,0.0,0.0,0.0,0.0,0.0,0.0,0.0,0.0,0.0,0.0,0.0,0.0,0.3027,0.3224,0.3371,0.3374,0.3382,0.3435,0.3487,0.3531,0.3507,0.3509,0.35,0.3531,0.358,0.3596,0.3516,0.3596,0.0,0.0,0.0,0.3604,0.36,0.3572,0.35,0.3493,0.3524,0.3493,0.3513,0.3489,0.3456,0.3431,0.3401,0.3381,0.3326,0.3214,0.3189,0.3224,0.3153,0.307,0.3014,0.2938,0.2941,0.3,0.0,0.0,0.0,0.0,0.0,0.0,1.188,1.1651,1.1687,1.2306,1.1871,1.1733,1.2396,1.0471,0.9171,0.9394,0.6624,0.4289,0.2865,0.2464,0.2293,0.236,0.2398,0.2375,0.2367,0.2412,0.2427,0.2489,0.2496,0.2524,0.2572,0.2579,0.2597,0.2585,0.2585,0.2605,0.2597,0.2591,0.265,0.2682,0.2615,0.2599,0.2589,0.2582,0.2581,0.2581,0.2581,0.2611,0.2649,0.2667,0.2675,0.2648,0.2658,0.2632,0.0,0.0,0.0,0.0,0.0,0.0,0.0,0.0,0.0,0.0,0.0,0.0,0.0,0.0,0.0,0.0,0.0,0.0,0.0,0.3097,0.3276,0.3403,0.3531,0.3583,0.3614,0.3628,0.3618,0.3575,0.3684,0.3634,0.3688,0.3684,0.3716,0.3733,0.373,0.3733,0.3726,0.3701,0.3699,0.3688,0.3663,0.3656,0.3628,0.358,0.3576,0.0,0.3513,0.3489,0.3479,0.3492,0.342,0.3405,0.3389,0.3329,0.3288,0.3255,0.3135,0.3114,0.3078,0.3001,0.2977,0.3006,0.0,0.0,0.0,0.0,0.0,0.0,1.2094,1.209,1.2211,1.2629,1.2488,1.2433,1.2807,1.1088,0.9983,1.0194,0.8069,0.6347,0.5467,0.4592,0.4015,0.3858,0.3158,0.2658,0.2446,0.2476,0.2499,0.2553,0.2568,0.2551,0.2581,0.2597,0.2611,0.2583,0.2583,0.2599,0.2669,0.2611,0.2622,0.2692,0.265,0.265,0.2649,0.2634,0.2688,0.2716,0.2716,0.2735,0.2761,0.2761,0.277,0.291,0.3971,0.4188,0.4104,0.0,0.0,0.0,0.0,0.0,0.0,0.0,0.0,0.0,0.0,0.0,0.0,0.0,0.0,0.2833,0.2924,0.0,0.3186,0.3322,0.3457,0.3583,0.3688,0.3754,0.3775,0.3733,0.3712,0.3723,0.3768,0.3771,0.3764,0.375,0.3803,0.3831,0.3877,0.3831,0.3831,0.3817,0.3799,0.3786,0.3772,0.3726,0.3694,0.3681,0.3636,0.3589,0.3549,0.3549,0.3524,0.3479,0.3464,0.3449,0.3431,0.3385,0.334,0.3292,0.3232,0.3172,0.3164,0.3069,0.3052,0.3048,0.0,0.0,0.0,0.0,0.0,0.0,0.0,1.2337,1.2475,1.2759,1.2807,1.2872,1.3076,1.1668,1.0677,1.0608,0.9253,0.8318,0.8133,0.7023,0.6274,0.6026,0.4777,0.3798,0.3193,0.3136,0.3128,0.3128,0.317,0.3353,0.368,0.3681,0.3706,0.3755,0.3706,0.3554,0.3247,0.3224,0.2976,0.2746,0.3118,0.3263,0.331,0.3706,0.3648,0.3357,0.3357,0.3624,0.3941,0.3929,0.3946,0.4265,0.5959,0.6413,0.6307,0.6413,0.7488,0.0,0.0,0.0,0.0,0.0,0.0,0.0,0.0,0.2671,0.27,0.2834,0.2901,0.2981,0.3157,0.329,0.3371,0.3561,0.3632,0.3748,0.3838,0.3893,0.3898,0.3831,0.3813,0.3817,0.3848,0.3851,0.3842,0.3817,0.3887,0.3922,0.3893,0.3918,0.3925,0.3914,0.3891,0.3929,0.392,0.3782,0.3754,0.3772,0.3692,0.3588,0.3579,0.3614,0.358,0.3527,0.3524,0.3499,0.3518,0.3433,0.3392,0.3345,0.3335,0.3285,0.3216,0.3155,0.3141,0.3096,0.0,0.0,0.0,0.0,0.0,0.0,0.0,0.0,1.2605,1.2775,1.2807,1.2872,1.3076,1.2754,1.2119,1.1118,1.0536,0.9824,0.8925,0.8416,0.8253,0.8567,0.8019,0.7012,0.5557,0.5177,0.4986,0.4986,0.5132,0.6016,0.7558,0.7642,0.7723,0.7839,0.7719,0.6756,0.5285,0.5287,0.4254,0.2863,0.4573,0.5314,0.5534,0.7232,0.6801,0.5371,0.5371,0.6504,0.7936,0.7948,0.8042,0.8204,0.8555,0.8708,0.8775,0.8685,0.8764,0.8722,0.7944,0.7904,0.7627,0.5759,0.5299,0.4941,0.0,0.2947,0.2992,0.3036,0.31,0.3236,0.3438,0.3468,0.3516,0.3748,0.3813,0.3929,0.3963,0.3981,0.3992,0.4009,0.3901,0.3943,0.397,0.3974,0.3974,0.3971,0.4005,0.396,0.4019,0.396,0.394,0.3885,0.3881,0.3914,0.392,0.3824,0.3795,0.3772,0.3733,0.363,0.3579,0.366,0.3652,0.3562,0.3594,0.3549,0.3495,0.3518,0.3502,0.349,0.3435,0.3407,0.3391,0.3279,0.3225,0.3182,0.0,0.0,0.0,0.0,0.0,0.0,0.0,0.0,1.2661,1.2783,1.2807,1.2872,1.3076,1.3124,1.2968,1.2486,1.2343,1.2178,1.1883,1.1069,1.0629,1.0678,0.9792,0.8891,0.8086,0.7896,0.7744,0.7589,0.7615,0.7905,0.8373,0.8411,0.8423,0.8364,0.8423,0.7971,0.7166,0.7245,0.6828,0.6163,0.6969,0.7326,0.7402,0.8244,0.8717,0.8628,0.6479,0.6892,0.0,0.728,0.7672,0.8799,1.0132,1.0552,1.0539,1.054,1.1312,1.1871,1.0593,0.9504,0.8589,0.7877,0.7884,0.787,0.7168,0.7062,0.7172,0.7234,0.7413,0.7626,0.787,0.8097,0.8285,0.8454,0.7274,0.6338,0.6427,0.5074,0.4072,0.4068,0.4061,0.3984,0.4023,0.4023,0.4023,0.4023,0.405,0.4068,0.4068,0.4068,0.4054,0.403,0.3949,0.3981,0.3938,0.3891,0.3862,0.3848,0.3803,0.3764,0.3739,0.3719,0.3681,0.3579,0.3621,0.3594,0.3551,0.354,0.3513,0.3479,0.349,0.3472,0.3463,0.333,0.3287,0.3265,0.0,0.0,0.0,0.0,0.0,0.0,0.0,0.0,0.0,0.0,1.2807,1.2872,1.3076,1.3296,1.3427,1.3441,1.3536,1.3706,1.3961,1.3304,1.2894,1.2901,1.1984,1.1228,1.0629,1.0466,1.0337,1.0118,1.0226,1.0342,1.0478,1.0421,1.0319,1.0274,1.0194,0.9826,0.9284,0.9385,0.9092,0.8613,0.9149,0.9348,0.9374,0.9905,1.089,1.1565,0.8364,0.8348,0.9695,0.8429,0.8922,1.0317,1.1988,1.2489,1.2476,1.2538,1.3431,1.4186,1.2887,1.16,1.0602,1.0305,1.0451,1.0539,1.0153,1.0141,1.0268,1.0376,1.061,1.0837,1.1178,1.1411,1.1645,1.1905,1.0393,0.9216,0.9303,0.7636,0.636,0.6318,0.6275,0.6271,0.6263,0.4882,0.4002,0.4002,0.4086,0.4099,0.4099,0.4099,0.4093,0.4086,0.4065,0.4037,0.4009,0.3947,0.3918,0.3914,0.3855,0.4187,0.4901,0.5606,0.5878,0.5733,0.5733,0.5751,0.5695,0.5613,0.5564,0.5553,0.5491,0.5467,0.5454,0.5349,0.4452,0.3333,0.0,0.0,0.0,0.0,0.0,0.0,0.0,0.0,0.0,0.0,0.0,0.0,1.3076,1.3296,1.3441,1.3585,1.3601,1.3755,1.4148,1.4468,1.4867,1.5352,1.5308,1.4556,1.3101,1.2729,1.2521,1.2478,1.2835,1.3861,1.5469,1.523,1.5156,1.523,1.4595,1.3354,1.1686,1.1766,1.0635,0.8935,1.083,1.1486,1.1511,1.3248,1.3988,1.3763,1.1739,1.2143,1.3657,1.3804,1.3957,1.4169,1.4509,1.475,1.4877,1.4637,1.4484,1.4401,1.4789,1.4857,1.4525,1.3217,1.2935,1.2541,1.0859,1.0529,1.0615,1.0862,1.087,1.1018,1.1407,1.1502,1.165,1.2046,1.2003,1.2001,1.2179,1.2079,1.1983,1.1892,1.1828,1.1884,1.182,0.718,0.4128,0.4128,0.4128,0.4131,0.4131,0.4131,0.4117,0.4086,0.4086,0.4068,0.3978,0.3916,0.3888,0.3885,0.3887,0.5238,0.7761,1.027,1.1365,1.114,1.114,1.1093,1.0971,1.0748,1.0675,1.0654,1.0476,1.0403,1.0403,1.039,0.7396,0.3417,0.0,0.0,0.0,0.0,0.0,0.0,0.0,0.0,0.0,0.0,0.0,0.0,0.0,0.0,0.0,0.0,1.3815,1.3969,1.4326,1.4578,1.4952,1.5496,1.5618,1.5585,1.5446,1.5326,1.5216,1.5119,1.5235,1.5477,1.5905,1.5831,1.5793,1.58,1.5355,1.4778,1.4105,1.3791,1.3362,1.2923,1.3291,1.3509,1.3655,1.4047,1.4095,1.3833,0.0,1.3261,1.351,1.2527,1.2953,1.4004,1.4353,1.4482,1.4516,1.4462,1.459,1.478,1.4976,1.5404,1.5806,1.5531,1.5704,1.5876,1.5511,1.5518,1.5593,1.5682,1.5614,1.5618,1.5862,1.6004,1.6262,1.6748,1.5617,1.4772,1.5,1.3554,1.2416,1.2139,1.2161,1.2182,1.2119,1.0486,0.9471,0.9522,0.9692,0.9701,0.9522,0.9637,0.9692,0.9554,0.9554,0.9513,0.9513,0.9462,0.9476,0.9425,0.9287,0.9764,1.0612,1.1287,1.1523,1.1469,1.1348,1.1254,1.1193,1.1143,1.1036,1.0976,1.0856,1.0718,1.0652,1.0645,0.9594,0.8174,0.0,0.0,0.0,0.0,0.0,0.0,0.0,0.0,0.0,0.0,0.0,0.0,0.0,0.0,0.0,0.0,0.0,1.4026,1.4318,1.457,1.4919,1.5359,1.5642,1.604,1.647,1.6479,1.6497,1.6483,1.6602,1.6544,1.6395,1.6339,1.6302,1.631,1.591,1.5676,1.5544,1.5049,1.4906,1.5009,1.4531,1.438,1.4468,1.417,1.3939,0.0,1.372,1.3666,1.3437,1.246,1.2889,1.3849,1.4204,1.4299,1.4333,1.4496,1.4746,1.5098,1.5425,1.5988,1.6527,1.7032,1.7446,1.7806,1.8036,1.8179,1.8247,1.8247,1.8036,1.7914,1.8057,1.8199,1.8423,1.8816,1.7835,1.7234,1.7588,1.6295,1.522,1.5141,1.5154,1.5106,1.5028,1.5015,1.4282,1.2459,1.2392,1.2469,1.2339,1.2489,1.2498,1.2339,1.2372,1.2339,1.2321,1.2288,1.229,1.2191,1.3036,1.339,1.3442,1.4105,1.4388,1.4348,1.4187,1.4065,1.3963,1.3882,1.3765,1.368,1.3573,1.3481,1.3404,1.3393,1.3337,1.2997,0.0,0.0,0.0,0.0,0.0,0.0,0.0,0.0,0.0,0.0,0.0,0.0,0.0,0.0,0.0,0.0,0.0,0.0,1.4217,1.4505,1.4854,1.5181,1.5561,1.591,1.6267,1.6276,1.6365,1.6552,1.6901,1.7071,1.7088,1.6952,1.6892,1.69,1.6348,1.6121,1.6076,1.5622,1.531,1.5175,1.4561,1.4241,1.4091,1.3756,1.3599,1.3599,1.3599,1.3599,1.3619,1.3761,1.3822,1.3883,1.4224,1.4333,1.4428,1.4915,1.5064,1.5269,1.6259,1.6621,1.6939,1.7724,1.8124,1.8389,1.8531,1.8508,1.8494,1.8474,1.8145,1.7915,1.7989,1.7914,1.7935,1.8247,1.8708,1.9237,1.9841,2.0051,2.0241,2.0462,2.0438,2.03,2.0349,2.0349,1.8242,1.3116,1.274,1.274,1.2728,1.2958,1.2966,1.274,1.2945,1.2958,1.2728,1.2707,1.2673,1.2646,1.497,1.6148,1.6272,1.862,1.9569,1.9367,1.9271,1.9128,1.8972,1.8687,1.8552,1.8474,1.8389,1.8335,1.8321,1.8321,1.8233,1.7422,0.0,0.0,0.0,0.0,0.0,0.0,0.0,0.0,0.0,0.0,0.0,0.0,0.0,0.0,0.0,0.0,0.0,0.0,1.4351,1.4411,1.4687,1.5181,1.5286,1.5545,1.5902,1.5951,1.5999,1.6145,1.6405,1.6576,1.6722,1.6776,1.6908,1.7029,1.6541,1.6319,1.6267,1.5653,1.5499,1.5556,1.4763,1.459,1.468,1.4028,1.3741,1.3741,1.3741,1.3741,1.3768,1.396,1.4156,1.4329,1.4525,1.478,1.5004,1.5228,1.5689,1.6212,1.6533,1.7156,1.7846,1.8267,1.8586,1.885,1.8993,1.8952,1.8776,1.8443,1.7826,1.727,1.6978,1.7161,1.7534,1.8057,1.8905,1.9793,2.0501,2.0682,2.0756,2.0716,2.079,2.079,2.0668,2.0668,2.0139,1.8849,1.8803,1.8754,1.8644,1.8864,1.8925,1.8803,1.8735,1.8674,1.8644,1.8497,1.8418,1.8375,1.8842,1.9045,1.9088,1.9347,1.9468,1.9367,1.9271,1.9183,1.9149,1.9061,1.8905,1.8694,1.8711,1.8511,1.8321,1.8321,1.8301,1.8077,0.0,0.0,0.0,0.0,0.0,0.0,0.0,0.0,0.0,0.0,0.0,0.0,0.0,0.0,0.0,0.0,0.0,0.0,0.0,1.4468,1.4724,1.5106,1.5122,1.5252,1.5528,1.5536,1.5707,1.6007,1.6104,1.6324,1.6584,1.6682,1.6787,1.6877,1.6625,1.6495,1.6443,1.5858,1.5711,0.0,0.0,1.4785,1.4916,1.4366,1.4238,1.4309,1.4159,1.4055,1.4031,1.4292,1.4523,1.474,1.4889,1.5181,1.5581,1.5811,1.6293,1.6815,1.7229,1.7751,1.8355,1.8654,1.8952,1.9128,1.8952,1.885,1.862,1.8036,1.7378,1.6822,1.6564,1.6781,1.7175,1.7704,1.862,1.9556,2.0363,2.0614,2.077,2.0946,2.098,2.0967,2.0878,2.0878,2.0912,2.1001,2.1001,2.098,2.0967,2.1123,2.1177,2.1089,2.1021,2.0899,2.077,2.0682,2.0614,2.0476,2.0315,2.0207,2.0187,1.98,1.9624,1.961,1.9393,1.9305,1.9291,1.9169,1.9047,1.8959,1.8884,1.8762,1.862,1.862,1.8565,1.8511,0.0,0.0,0.0,0.0,0.0,0.0,0.0,0.0,0.0,0.0,0.0,0.0,0.0,0.0,0.0,0.0,0.0,0.0,0.0,0.0,1.4757,1.4998,1.5006,1.5041,1.5156,1.5189,1.5432,1.5902,1.5942,1.617,1.647,1.6495,1.6511,1.6511,1.6511,1.6511,1.6511,1.6079,1.591,1.5852,1.5199,1.4971,1.4956,0.0,1.4832,1.4984,1.47,1.4467,1.4353,1.464,1.4889,1.5078,1.5235,1.567,1.6139,1.6517,1.689,1.7304,1.7968,1.8389,1.8728,1.9006,1.9271,1.9305,1.8728,1.8474,1.8267,1.7541,1.691,1.649,1.6469,1.6554,1.6838,1.7426,1.8233,1.9135,2.0085,2.0329,2.0627,2.1211,2.1157,2.1089,2.1123,2.1123,2.1123,2.1123,2.1123,2.1157,2.1231,2.1265,2.1245,2.1211,2.1231,2.1089,2.077,2.077,2.0702,2.0476,2.0334,2.0329,2.0315,2.0031,1.9908,1.9888,1.9624,1.9501,1.9468,1.9217,1.9149,1.9217,1.9094,1.904,1.9006,1.8993,1.8905,1.8854,0.0,0.0,0.0,0.0,0.0,0.0,0.0,0.0,0.0,0.0,1.8973,1.7274,0.0,0.0,0.0,0.0,0.0,0.0,0.0,0.0,0.0,1.499,1.5006,1.5023,1.5009,1.5124,1.5245,1.5343,1.5675,1.5853,1.5959,1.6064,1.6096,1.6096,1.6096,1.6096,1.6096,1.6013,1.5972,1.5922,1.5477,1.5304,1.5254,1.4852,1.4907,0.0,1.4988,1.4648,1.438,1.4923,1.5126,1.5235,1.5764,1.632,1.6849,1.7168,1.765,1.8145,1.8389,1.885,1.9325,1.9501,1.959,1.9501,1.9027,1.8531,1.7989,1.7358,1.6761,1.6307,1.6185,1.6381,1.687,1.7826,1.8531,1.94,2.0668,2.0858,2.1055,2.153,2.1564,2.1597,2.1726,2.1726,2.1726,2.1726,2.1726,2.1638,2.1408,2.153,2.1475,2.1211,2.1333,2.1197,2.077,2.077,2.0702,2.0476,2.0334,2.0329,2.0266,2.0139,2.0064,2.0064,2.001,1.9908,1.9786,1.9746,1.959,1.9333,1.9359,1.9271,1.9149,1.9027,1.8972,1.8959,0.0,0.0,0.0,0.0,0.0,0.0,0.0,2.133,2.1216,2.1523,2.0484,1.9285,1.8163,1.8274,1.7514,0.0,0.0,0.0,0.0,0.0,0.0,1.4822,1.4958,1.5006,1.5006,1.5147,1.5294,1.552,0.0,1.591,1.6048,1.6007,1.6007,1.6007,1.6007,1.6007,1.6007,1.6007,1.6007,1.5966,1.5801,1.5711,1.5669,1.5463,1.5466,0.0,1.5709,1.5256,1.4715,1.5174,1.5348,1.5527,1.6123,1.6727,1.7256,1.7473,1.7913,1.8498,1.8796,1.9203,1.961,1.9834,1.9712,1.9379,1.8776,1.8179,1.7568,1.6965,1.6435,1.6123,1.6279,1.6429,1.6788,1.7609,1.8247,1.9061,2.0241,2.0614,2.098,2.1597,2.174,2.1815,2.1882,2.1882,2.1882,2.1882,2.195,2.1937,2.1794,2.1774,2.1672,2.1462,2.1441,2.1299,2.1001,2.1001,2.0892,2.0668,2.0594,2.0526,2.0374,2.0295,2.0227,2.0227,2.0139,2.001,1.9875,1.9848,1.9678,1.9535,1.9468,1.9379,1.9305,1.9237,1.9169,1.9094,0.0,0.0,0.0,0.0,0.0,0.0,0.0,2.1488,2.1392,2.1948,2.1794,2.1267,2.0385,2.0437,1.9427,0.0,0.0,0.0,0.0,0.0,0.0,0.0,0.0,0.0,1.5006,0.0,0.0,1.5755,1.5796,0.0,0.0,0.0,0.0,0.0,1.6007,1.6007,1.6007,1.6007,1.6007,0.0,0.0,1.6007,1.6015,0.0,0.0,0.0,0.0,1.5785,1.5049,1.5495,1.5573,1.5594,1.6251,1.6881,1.7446,1.7507,1.8035,1.8708,1.9094,1.9501,1.9854,2.0085,1.9786,1.9237,1.8474,1.7826,1.7182,1.6673,1.6185,1.6037,1.6435,1.6469,1.6632,1.727,1.7792,1.8531,1.9664,2.0207,2.079,2.1584,2.1828,2.195,2.1971,2.1991,2.1991,2.1991,2.2093,2.2127,2.2059,2.1971,2.1828,2.1638,2.153,2.1408,2.1211,2.1211,2.1089,2.0824,2.079,2.0702,2.053,2.0438,2.032,2.0363,2.0241,2.0098,1.9963,1.9854,1.9766,1.9759,1.9569,1.9501,1.9481,1.9447,1.9359,1.9257,0.0,0.0,0.0,0.0,0.0,0.0,0.0,2.1978,2.1692,2.2034,2.1789,2.1657,2.1786,2.0851,1.9551,0.0,0.0,0.0,0.0,0.0,0.0,0.0,0.0,0.0,0.0,0.0,0.0,1.5536,1.5699,0.0,0.0,0.0,0.0,0.0,0.0,1.6007,1.6007,1.6007,0.0,0.0,0.0,0.0,0.0,0.0,0.0,0.0,0.0,1.5785,1.5107,1.6028,1.5771,1.5206,1.6049,1.6803,1.7426,1.7385,1.8158,1.8993,1.9149,1.9732,2.0275,2.0295,1.9806,1.9211,1.8596,1.7738,1.6965,1.6716,1.6259,1.6037,1.6435,1.63,1.6361,1.7093,1.7378,1.8023,1.9528,2.0064,2.0682,2.1564,2.1916,2.2147,2.222,2.2234,2.2234,2.2234,2.2303,2.2201,2.1916,2.2025,2.1896,2.1409,2.1584,2.1509,2.1211,2.1211,2.1143,2.098,2.0845,2.077,2.0756,2.0594,2.0462,2.0462,2.0442,2.0417,2.0232,2.0275,2.0098,1.9854,1.9841,1.9752,1.9624,1.9481,1.9413,1.9353,0.0,0.0,0.0,0.0,0.0,0.0,2.2574,2.2198,2.2026,2.2378,2.1934,2.171,2.2022,2.1615,2.0734,1.9391,0.0,0.0,0.0,0.0,0.0,0.0,0.0,0.0,0.0,0.0,1.5294,1.5512,1.5691,0.0,0.0,0.0,0.0,0.0,0.0,1.5886,1.5886,1.5886,0.0,0.0,0.0,0.0,0.0,0.0,0.0,0.0,0.0,0.0,1.5903,1.6285,1.6151,1.5796,1.5696,1.6125,1.6805,1.7104,1.7772,1.8586,1.9183,1.982,2.0329,2.0329,1.9746,1.9061,1.862,1.7717,1.6965,1.6904,1.6551,1.6341,1.656,1.6415,1.6341,1.6727,1.6836,1.7277,1.843,1.8884,1.9624,2.0967,2.1319,2.1672,2.222,2.2268,2.2268,2.2268,2.2268,2.2249,2.2025,2.2079,2.2025,2.1848,2.1726,2.1618,2.1496,2.1387,2.1231,2.1001,2.1021,2.0892,2.0627,2.0668,2.0627,2.0476,2.0476,2.0388,2.0329,2.0329,2.0207,2.001,2.001,1.9976,1.9922,1.9854,1.9834,1.9834,0.0,0.0,0.0,0.0,0.0,2.2762,2.2762,2.2449,2.2374,2.2698,2.2078,2.1724,2.2057,2.2046,2.166,2.0818,2.1053,0.0,0.0,0.0,0.0,0.0,0.0,0.0,0.0,0.0,1.5277,1.5512,1.5634,1.5813,0.0,0.0,1.5951,1.5812,0.0,0.0,0.0,0.0,0.0,0.0,0.0,0.0,0.0,0.0,0.0,0.0,0.0,0.0,0.0,0.0,0.0,1.5947,1.5579,1.5595,1.5847,1.6469,1.727,1.8145,1.8938,1.9698,2.0261,2.0261,1.9624,1.8905,1.8552,1.767,1.6897,1.6856,1.6605,1.6435,1.654,1.6415,1.6273,1.6374,1.6429,1.6754,1.7609,1.8036,1.8762,2.0139,2.0526,2.1001,2.1862,2.2181,2.2268,2.2268,2.2268,2.2289,2.2181,2.2181,2.2127,2.2038,2.1794,2.1672,2.1672,2.1509,2.1333,2.1123,2.119,2.1021,2.0618,2.0736,2.0682,2.0476,2.0476,2.0422,2.0334,2.0334,2.0246,2.0173,2.0207,2.0207,2.0173,2.0227,2.0227,2.0227,0.0,0.0,0.0,0.0,0.0,0.0,2.3074,2.2793,2.272,2.3049,2.2205,2.1724,2.2057,2.2046,2.1991,2.1991,2.2525,0.0,0.0,0.0,0.0,0.0,0.0,0.0,0.0,0.0,1.5186,1.5512,1.552,1.5659,1.6007,1.6007,1.5951,1.5812,0.0,0.0,0.0,0.0,0.0,0.0,0.0,0.0,1.6619,0.0,0.0,0.0,0.0,0.0,0.0,0.0,0.0,0.0,0.0,1.5279,1.4516,1.5609,1.6714,1.7737,1.8319,1.9305,2.0098,2.0098,1.9535,1.8871,1.8423,1.7453,1.6655,1.6506,1.6293,1.613,1.6286,1.6191,1.6083,1.6083,1.6212,1.6571,1.7317,1.7806,1.8375,1.9128,1.961,2.0187,2.0946,2.1808,2.2268,2.2268,2.2268,2.2268,2.2268,2.2268,2.2201,2.1903,2.174,2.1672,2.1672,2.1509,2.1375,2.1375,2.1279,2.1143,2.098,2.0845,2.0682,2.0476,2.0476,2.0476,2.0476,2.0476,2.0388,2.0286,2.0422,2.0388,2.0286,2.0422,2.0476,2.0462,0.0,0.0,0.0,0.0,0.0,0.0,0.0,2.3012,2.2899,2.278,2.23,2.1894,2.1769,2.1735,2.1796,2.1964,2.2559,0.0,0.0,0.0,0.0,0.0,0.0,0.0,0.0,0.0,1.5025,1.5512,1.5512,1.5659,1.6007,1.6007,1.5951,1.5812,1.565,1.5634,0.0,0.0,0.0,0.0,0.0,1.6259,1.6568,0.0,0.0,0.0,0.0,0.0,0.0,0.0,0.0,0.0,0.0,0.0,0.0,1.5628,1.6194,1.6883,1.7582,1.8321,1.8884,1.8884,1.8552,1.8124,1.7792,1.729,1.6836,1.6571,1.6449,1.6368,1.632,1.6273,1.63,1.6503,1.6408,1.6537,1.7175,1.765,1.8378,1.94,2.0627,2.153,2.1882,2.2072,2.2235,2.2268,2.2268,2.2268,2.2268,2.2268,2.2249,2.2038,2.1903,2.1774,2.1672,2.1509,2.1321,2.1279,2.1333,2.1245,2.1001,2.1055,2.1001,2.0845,2.0736,2.0702,2.0702,2.0702,2.0614,2.0422,2.0648,2.0614,2.0422,2.0462,2.0614,2.0682,0.0,0.0,0.0,0.0,0.0,0.0,0.0,2.3106,2.2981,2.2637,2.2292,2.1978,2.1646,2.16,2.1703,2.1997,2.2452,0.0,0.0,0.0,0.0,0.0,0.0,0.0,0.0,1.4676,1.4976,1.5512,1.5512,1.5659,1.6007,1.6007,1.5951,1.5812,1.5658,1.5634,0.0,0.0,0.0,0.0,1.6072,1.6276,1.6462,0.0,0.0,0.0,0.0,0.0,0.0,0.0,0.0,0.0,0.0,0.0,0.0,0.0,1.5795,1.6015,1.6992,1.765,1.8111,1.8287,1.8002,1.7636,1.7392,1.7019,1.6659,1.6408,1.6354,1.6327,1.6239,1.6225,1.6286,1.6469,1.6395,1.6497,1.7039,1.7548,1.8344,1.9434,2.0824,2.1726,2.1828,2.2059,2.2235,2.2268,2.2268,2.2268,2.2268,2.2268,2.2269,2.2113,2.1971,2.1815,2.1672,2.1509,2.1387,2.1299,2.1387,2.1319,2.1089,2.1177,2.1143,2.1001,2.0892,2.0824,0.0,2.077,2.0716,2.0648,2.0804,2.0824,2.0739,2.0794,2.0946,2.1001,0.0,0.0,0.0,0.0,0.0,0.0,0.0,2.3106,2.2981,2.2606,2.2292,2.1947,2.1614,2.1541,2.1676,2.1951,0.0,0.0,0.0,0.0,0.0,0.0,0.0,0.0,1.4461,1.4565,1.4952,1.5496,1.5512,1.5651,1.5983,1.5999,1.5918,1.5788,1.5821,1.5683,0.0,0.0,0.0,0.0,1.6219,1.6292,0.0,0.0,0.0,0.0,0.0,0.0,0.0,0.0,0.0,0.0,0.0,0.0,0.0,0.0,0.0,0.0,0.0,1.7188,1.7568,1.8057,1.7758,1.7317,1.7161,1.6714,0.0,1.6117,1.6083,1.6083,1.6083,1.6083,1.609,1.611,1.6232,1.6483,1.6944,1.7589,1.8389,1.9434,2.0438,2.1055,2.1055,2.1808,2.2254,2.2268,2.2268,2.2268,2.2323,2.2268,2.2249,2.2093,2.195,2.1815,2.1672,2.1509,2.1375,2.1375,2.1375,2.1301,2.1231,2.1231,2.1157,2.1034,2.1021,2.0933,2.0811,2.079,2.079,2.079,2.0933,2.1068,2.1197,2.1267,2.1321,2.1321,0.0,0.0,0.0,0.0,0.0,0.0,0.0,0.0,0.0,0.0,2.2135,2.1853,2.1267,2.1239,2.1416,0.0,0.0,0.0,0.0,0.0,0.0,0.0,0.0,0.0,1.4461,1.4435,1.4719,1.5262,1.5408,1.5626,1.5837,1.5942,1.5983,1.5934,1.5837,1.5788,0.0,0.0,0.0,0.0,1.6047,1.6145,0.0,0.0,0.0,0.0,1.6219,1.6259,0.0,0.0,0.0,0.0,0.0,0.0,0.0,0.0,1.5561,1.5251,1.5664,0.0,1.6327,1.6551,1.6673,1.6693,0.0,1.6497,1.6395,1.6137,1.6083,1.6083,1.6083,1.6083,1.6157,1.6381,1.6449,1.6666,1.7236,1.8518,1.9752,2.0682,2.1211,2.1516,2.1516,2.1794,2.2093,2.2254,2.2268,2.2289,2.216,2.2269,2.216,2.1794,2.1848,2.1815,2.1672,2.1509,2.1375,2.1375,2.1375,2.1355,2.1321,2.1321,2.1367,2.1267,2.1211,2.1143,2.1109,2.098,2.0878,2.077,2.0811,2.0845,2.0858,2.079,2.0892,2.1068,0.0,0.0,0.0,0.0,0.0,0.0,0.0,0.0,0.0,0.0,0.0,2.1821,2.1172,2.1109,0.0,0.0,0.0,0.0,0.0,0.0,0.0,0.0,0.0,1.8499,1.6608,1.6544,1.6478,1.6359,1.6512,1.6313,1.5821,1.5959,1.6007,1.5999,1.5902,1.5902,0.0,0.0,1.608,1.6015,1.6088,0.0,0.0,0.0,0.0,0.0,1.6039,1.6064,0.0,1.6128,1.6349,1.655,0.0,0.0,0.0,0.0,1.5534,1.5236,1.5368,1.5703,1.6029,1.6146,1.6252,1.632,1.6313,1.6313,1.6273,1.6117,1.6083,1.6083,1.6083,1.6137,1.6239,1.6395,1.6653,1.7161,1.8111,1.9183,2.0187,2.1021,2.1387,2.1618,2.176,2.1903,2.2093,2.2254,2.2268,2.2269,2.2113,2.2181,2.2093,2.1774,2.1848,2.1815,2.1672,2.1584,2.1584,2.1638,2.1584,2.155,2.155,2.1409,2.1375,2.1375,2.1353,2.1245,2.1109,2.1109,2.0967,2.0834,2.0845,2.0878,2.0858,2.079,2.0858,2.098,0.0,0.0,0.0,0.0,0.0,0.0,0.0,0.0,0.0,0.0,0.0,0.0,0.0,0.0,0.0,0.0,0.0,0.0,0.0,0.0,0.0,0.0,0.0,2.0134,1.9126,1.8846,1.8397,1.7653,1.7585,1.6925,1.578,1.591,1.6007,1.6007,1.6007,1.6007,0.0,0.0,1.6178,1.6015,1.6202,0.0,0.0,0.0,0.0,0.0,0.0,0.0,0.0,1.6219,1.6405,1.6523,1.6195,0.0,0.0,0.0,0.0,0.0,1.5402,1.5785,1.611,1.6141,1.6096,1.6056,1.6205,1.6137,1.6105,1.6076,1.6083,1.609,1.611,1.6239,1.6347,1.6374,1.6931,1.7806,1.9094,1.9678,2.0227,2.0892,2.1245,2.1477,2.1794,2.1971,2.2147,2.2323,2.2268,2.22,2.2093,2.2093,2.2025,2.1828,2.1828,2.1794,2.1672,2.1692,2.174,2.1815,2.1726,2.1652,2.1638,2.1475,2.1341,2.1341,2.1321,2.1231,2.1021,2.1123,2.1021,2.079,2.0912,2.0967,2.0967,2.0946,2.0946,2.0967,0.0,0.0,0.0,0.0,0.0,0.0,0.0,0.0,0.0,0.0,0.0,0.0,0.0,0.0,0.0,0.0,0.0,0.0,0.0,0.0,0.0,2.2551,2.1299,2.0134,1.9126,1.7753,1.7177,1.7445,1.6403,1.5767,1.5561,1.5853,1.6007,1.6007,1.6007,1.6007,1.6007,0.0,1.6031,1.6007,1.6031,0.0,0.0,0.0,0.0,0.0,0.0,0.0,0.0,1.6031,1.6308,1.6499,1.6054,0.0,0.0,0.0,0.0,0.0,1.5638,1.587,1.6011,1.5623,1.5628,1.5744,1.5942,1.5956,1.5976,1.6056,1.6083,1.6123,1.6252,1.6395,1.653,1.6608,1.7507,1.8477,1.9507,2.0085,2.0526,2.077,2.1177,2.1389,2.1443,2.176,2.2038,2.2254,2.2268,2.2215,2.1937,2.2038,2.1937,2.1463,2.1638,2.1692,2.1672,2.1794,2.174,2.1509,2.1618,2.1597,2.1409,2.1319,2.1245,2.1245,2.1123,2.1034,2.1001,2.1021,2.0933,2.077,2.079,2.0811,2.079,2.0661,2.0702,2.0811,0.0,0.0,0.0,0.0,0.0,0.0,0.0,0.0,0.0,0.0,0.0,0.0,0.0,0.0,0.0,0.0,0.0,0.0,0.0,0.0,2.2699,2.2893,2.2229,2.1694,2.1387,2.0815,2.0433,2.0271,1.9923,1.9483,1.8887,1.8065,1.7598,1.7378,1.641,1.6007,1.6007,1.6007,1.6007,1.6007,0.0,0.0,0.0,0.0,0.0,0.0,0.0,0.0,0.0,0.0,1.6357,1.6507,1.6133,0.0,0.0,0.0,0.0,0.0,1.5497,1.5388,1.534,1.5398,1.5764,1.611,1.6103,1.6157,1.6212,1.6205,1.6205,1.6252,1.6395,1.668,1.7121,1.7846,1.8423,1.9081,1.9908,2.0187,2.0505,2.1068,2.1245,2.1441,2.1774,2.1937,2.2093,2.2323,2.2268,2.2201,2.1903,2.195,2.1815,2.1389,2.1584,2.1638,2.155,2.1774,2.1815,2.1686,2.1672,2.1638,2.1564,2.1319,2.1265,2.1319,2.1109,2.1001,2.1001,2.1001,2.0858,2.0668,2.0824,2.079,2.0627,2.056,2.053,2.0648,0.0,0.0,0.0,0.0,0.0,0.0,0.0,0.0,0.0,0.0,0.0,0.0,0.0,0.0,0.0,0.0,0.0,0.0,0.0,0.0,2.2552,2.288,2.2893,2.3081,2.342,2.3424,2.3208,2.2794,2.2945,2.2413,2.1168,1.9744,1.8729,1.8005,1.6633,1.6007,1.6007,1.6007,1.6007,1.6007,0.0,0.0,0.0,0.0,0.0,0.0,0.0,0.0,0.0,0.0,0.0,0.0,0.0,0.0,0.0,1.5926,1.5646,1.5499,1.5416,1.5125,1.489,1.5316,1.5791,1.6191,1.6327,1.6361,1.6381,1.6456,1.6497,1.6537,1.6612,1.7053,1.7758,1.8864,1.9257,1.9657,2.0383,2.0451,2.0682,2.1408,2.1421,2.1564,2.2059,2.2113,2.2181,2.2323,2.2268,2.2215,2.195,2.1937,2.1794,2.1509,2.1618,2.1584,2.1387,2.1652,2.1774,2.1774,2.1706,2.1638,2.155,2.1319,2.1245,2.1265,2.1055,2.0933,2.0892,2.0933,2.079,2.051,2.0878,2.0845,2.053,2.0496,2.0476,2.0476,0.0,0.0,0.0,0.0,0.0,0.0,0.0,0.0,0.0,0.0,0.0,0.0,0.0,0.0,0.0,0.0,0.0,0.0,0.0,0.0,2.2552,2.288,2.2893,2.3174,2.3763,2.2802,2.2553,2.306,2.2275,2.1075,1.9474,1.9231,1.815,1.6443,1.6154,1.6007,1.6007,1.6007,1.6007,1.6007,1.6007,0.0,0.0,0.0,0.0,0.0,0.0,0.0,0.0,0.0,0.0,0.0,0.0,0.0,1.5823,1.5891,1.5468,1.5171,1.5679,1.5521,1.5194,1.5364,1.5248,1.533,1.6286,1.6191,1.6146,1.6788,1.7039,1.7093,1.6971,1.7541,1.8287,1.9061,1.9657,2.0241,2.0858,2.1177,2.1421,2.1638,2.176,2.1903,2.2093,2.2113,2.2181,2.2323,2.2268,2.2269,2.2113,2.2093,2.195,2.1672,2.1672,2.153,2.1231,2.1387,2.1409,2.1409,2.1597,2.153,2.1245,2.1231,2.1068,2.0824,2.079,2.0702,2.0573,2.0736,2.0682,2.051,2.0878,2.0892,2.0736,2.0594,2.0476,2.0476,0.0,0.0,0.0,0.0,0.0,0.0,0.0,0.0,0.0,0.0,0.0,0.0,0.0,0.0,0.0,0.0,0.0,0.0,0.0,2.1991,2.2285,2.2579,2.28,2.3174,2.379,2.3745,2.4173,2.5139,2.5587,2.5276,2.4258,2.312,2.1425,1.9313,1.8142,1.7018,1.6007,1.6007,1.6007,1.6007,1.6007,1.6007,0.0,0.0,0.0,0.0,0.0,0.0,0.0,0.0,1.6303,1.6353,1.6486,1.6356,1.6087,1.595,1.5476,1.4981,1.5042,1.5041,1.5106,1.535,1.5323,1.5472,1.6327,1.668,1.691,1.7195,1.7521,1.7758,1.7806,1.8267,1.883,1.94,1.9997,2.0526,2.0946,2.1245,2.153,2.1774,2.1937,2.2093,2.2235,2.2249,2.2269,2.2268,2.2268,2.2269,2.2113,2.2025,2.1882,2.1739,2.1475,2.1374,2.1353,2.1319,2.1353,2.1375,2.1408,2.1374,2.1353,2.1157,2.1123,2.1177,2.0892,2.079,2.0824,2.0682,2.0594,2.0496,2.0661,2.0736,2.0756,2.0594,2.0476,2.0476,0.0,0.0,0.0,0.0,0.0,0.0,0.0,0.0,0.0,0.0,0.0,0.0,0.0,0.0,0.0,0.0,0.0,0.0,2.1569,2.185,2.2111,2.2405,2.2699,2.3174,2.379,2.4436,2.5304,2.6386,2.7603,2.7632,2.6525,2.472,2.2666,2.0395,1.8582,1.7132,1.6007,1.6007,1.6007,1.6007,1.6007,1.6007,0.0,0.0,0.0,0.0,0.0,0.0,0.0,0.0,1.6386,1.6403,1.6601,1.6351,1.5903,1.5727,1.526,1.4732,1.4619,1.474,1.4957,1.5208,1.5411,1.5744,1.6497,1.6985,1.7372,1.7704,1.7948,1.8179,1.8477,1.8708,1.9027,1.9637,2.0153,2.0597,2.1021,2.1245,2.1496,2.1848,2.1971,2.2093,2.2249,2.2269,2.2249,2.2201,2.2235,2.2201,2.2038,2.1991,2.1862,2.1739,2.1462,2.1353,2.1367,2.1265,2.1245,2.1299,2.1143,2.1157,2.1299,2.1143,2.1102,2.1143,2.0933,2.0845,2.0845,2.0564,2.051,2.0614,2.0496,2.0627,2.0756,2.0594,2.0476,2.0476,0.0,0.0,0.0,0.0,0.0,0.0,0.0,0.0,0.0,0.0,0.0,0.0,0.0,0.0,0.0,0.0,0.0,0.0,2.1569,2.185,2.2111,2.2371,2.2699,2.3174,2.379,2.466,2.5518,2.6386,2.7603,2.7081,2.4975,2.3033,2.1004,1.8855,1.6939,1.6048,1.6007,1.6007,1.6007,1.6007,1.6007,1.6007,0.0,0.0,0.0,0.0,0.0,0.0,0.0,0.0,1.6278,1.5949,1.6292,1.5741,1.5027,1.5146,1.4771,1.4367,1.4613,1.4694,1.4735,1.4936,1.5466,1.6105,1.6867,1.6985,1.7283,1.8321,1.8301,1.8287,1.8884,1.8742,1.8776,1.9596,2.0153,2.0638,2.1143,2.1211,2.1374,2.1828,2.1882,2.1937,2.2093,2.2113,2.2038,2.1903,2.2025,2.2038,2.1882,2.2025,2.1971,2.1739,2.1672,2.1509,2.1211,2.1211,2.1143,2.1001,2.0845,2.0858,2.1001,2.1143,2.0967,2.0496,2.0858,2.0824,2.0476,2.0476,2.0627,2.0756,2.0594,2.0627,2.0756,2.0594,2.0476,2.0476,0.0,0.0,0.0,0.0,0.0,0.0,0.0,0.0,0.0,0.0,0.0,0.0,0.0,0.0,0.0,0.0,0.0,0.0,2.1229,2.171,2.2031,2.2111,2.2626,2.3081,2.3447,2.4529,2.5611,2.6694,2.7296,2.7023,2.5957,2.5384,2.4118,2.2301,2.1739,2.013,1.7819,1.7819,1.7132,1.6007,1.6007,1.6007,0.0,0.0,0.0,0.0,0.0,0.0,0.0,0.0,0.0,0.0,1.6379,1.6045,1.5579,1.5309,1.484,1.4468,1.4557,1.474,1.4964,1.5215,1.573,1.6368,1.7121,1.7372,1.7772,1.8918,1.8938,1.885,1.9237,1.9128,1.9115,1.9447,1.9997,2.0438,2.0573,2.0946,2.1231,2.1265,2.155,2.1706,2.1652,2.174,2.1774,2.174,2.1672,2.1706,2.1882,2.1618,2.1496,2.1509,2.1197,2.1055,2.1068,2.0946,2.0933,2.1001,2.0845,2.0858,2.1001,2.0933,2.0892,2.0858,2.0845,2.079,2.0702,2.053,2.051,2.0614,2.0496,2.051,2.0614,2.0496,2.0476,2.0476,0.0,0.0,0.0,0.0,0.0,0.0,0.0,0.0,0.0,0.0,0.0,0.0,0.0,0.0,0.0,0.0,0.0,0.0,0.0,2.1657,2.1991,2.1991,2.2586,2.3148,2.3661,2.4596,2.5424,2.6132,2.6653,2.6774,2.6386,2.5777,2.4977,2.3892,2.261,2.1203,1.9763,1.9036,1.8465,1.7992,1.7384,1.7087,1.6985,0.0,0.0,0.0,0.0,0.0,0.0,0.0,0.0,0.0,1.6189,1.5947,1.5594,1.4993,1.4651,1.4455,1.457,1.4821,1.52,1.5574,1.613,1.6788,1.7595,1.807,1.8542,1.9434,1.9413,1.9312,1.9481,1.9345,1.9271,1.9481,1.9922,2.0261,2.0266,2.0682,2.098,2.1068,2.1285,2.1408,2.1375,2.1475,2.1462,2.1408,2.1374,2.1408,2.153,2.1333,2.1231,2.1265,2.1001,2.0912,2.1001,2.0845,2.0824,2.0912,2.0756,2.0736,2.0824,2.079,2.079,2.0804,2.0716,2.0682,2.0668,2.0573,2.0476,2.0476,2.0476,2.0476,2.0476,2.0476,2.0476,2.0476,0.0,0.0,0.0,0.0,0.0,0.0,0.0,0.0,0.0,0.0,0.0,0.0,0.0,0.0,0.0,0.0,0.0,0.0,0.0,0.0,2.2031,2.2031,2.2626,2.3348,2.4182,2.473,2.501,2.5037,2.5892,2.6306,2.628,2.4987,2.4409,2.4296,2.1336,2.0692,2.1812,2.0076,1.9986,2.0828,1.9451,1.8682,1.8205,1.6792,0.0,0.0,0.0,0.0,0.0,0.0,0.0,0.0,1.5817,1.5564,1.522,1.4523,1.4306,1.4387,1.4633,1.4977,1.535,1.5967,1.6619,1.7331,1.8179,1.8938,1.9535,1.98,1.9827,1.9759,1.9759,1.9447,1.9345,1.9671,1.9888,2.0139,2.0275,2.0417,2.0618,2.1102,2.1055,2.1089,2.1353,2.1245,2.1123,2.098,2.1089,2.1109,2.1001,2.1089,2.1109,2.098,2.0967,2.0967,2.0967,2.0824,2.0756,2.0756,2.0614,2.0476,2.0462,2.0682,2.0668,2.0476,2.0476,2.0476,2.0476,2.0476,2.0476,2.0476,2.0476,2.0476,2.0476,2.0476,2.0476,2.0476,0.0,0.0,0.0,0.0,0.0,0.0,0.0,0.0,0.0,0.0,0.0,0.0,0.0,0.0,0.0,0.0,0.0,0.0,0.0,0.0,2.2325,2.2325,2.2899,2.3527,2.4195,2.4329,2.4502,2.4693,2.5384,2.5705,2.5705,2.5648,2.5819,2.621,2.5481,2.4617,2.3621,2.3005,2.1346,1.9115,1.8796,1.7814,1.6534,1.6204,0.0,0.0,0.0,0.0,0.0,0.0,0.0,0.0,1.5805,1.5506,1.5113,1.4503,1.438,1.4529,1.4841,1.5133,1.5533,1.6246,1.7236,1.8179,1.8728,1.9237,1.9684,1.9759,1.9875,2.001,2.001,1.9766,1.959,1.9705,1.9861,1.9929,1.9963,2.0207,2.0388,2.0597,2.077,2.0845,2.0912,2.0878,2.0858,2.0824,2.0736,2.077,2.098,2.0804,2.0736,2.0824,2.0702,2.0584,2.0584,2.0614,2.053,2.053,2.0496,2.0422,2.032,2.0526,2.051,2.0476,2.0476,2.0476,2.0476,2.0476,2.0476,2.0476,2.0476,2.0476,2.0476,2.0476,2.0476,2.0476,0.0,0.0,0.0,0.0,0.0,0.0,0.0,0.0,0.0,0.0,0.0,0.0,0.0,0.0,0.0,0.0,0.0,0.0,0.0,0.0,2.2518,2.2812,2.33,2.3754,2.4195,2.4342,2.4452,2.4599,2.4906,2.5237,2.5518,2.585,2.6305,2.6787,2.6017,2.5138,2.4121,2.3127,2.1573,1.9765,1.9017,1.8147,1.7141,1.6419,0.0,0.0,0.0,0.0,0.0,0.0,0.0,0.0,0.0,0.0,1.488,1.4431,1.4401,1.459,1.497,1.5398,1.5981,1.7012,1.7968,1.8728,1.9027,1.9434,1.9827,1.9827,1.9942,2.0064,1.9922,1.982,1.9793,1.9739,1.9786,1.9875,1.9875,2.0064,2.0275,2.0417,2.0451,2.0505,2.0648,2.0594,2.0594,2.0648,2.053,2.0614,2.077,2.0564,2.0573,2.0668,2.0573,2.0442,2.0374,2.0374,2.0397,2.0329,2.0329,2.0295,2.0227,2.0363,2.0471,2.0476,2.0408,2.0374,2.0374,2.03,2.0329,2.0329,2.0329,2.032,2.0374,2.0374,2.0422,2.0476,0.0,0.0,0.0,0.0,0.0,0.0,0.0,0.0,0.0,0.0,0.0,0.0,0.0,0.0,0.0,0.0,0.0,0.0,0.0,0.0,0.0,2.3265,2.3607,2.395,2.4195,2.4452,2.4599,2.4599,2.4653,2.501,2.5598,2.5877,2.6305,2.6747,2.5455,2.4817,2.4568,2.3016,2.2096,2.1515,1.9924,1.9024,1.8441,0.0,0.0,0.0,1.6039,1.6137,1.6274,1.5968,0.0,0.0,0.0,0.0,1.4704,1.4479,1.4425,1.457,1.5025,1.5662,1.6503,1.7772,1.8498,1.8952,1.9149,1.9501,1.98,1.9841,1.9963,1.9997,1.9786,1.9848,1.9861,1.9773,1.9827,1.9902,1.9902,1.9963,2.0119,2.0275,2.0207,2.0241,2.0462,2.0374,2.0354,2.0462,2.0476,2.0476,2.0476,2.0476,2.0462,2.0442,2.0442,2.0374,2.0295,2.0295,2.0227,2.0098,2.0064,2.0085,2.0098,2.0207,2.0329,2.0388,2.0286,2.0295,2.0275,2.0153,2.0098,2.0098,2.0098,2.0187,2.0329,2.0329,2.0354,2.0476,0.0,0.0,0.0,0.0,0.0,0.0,0.0,0.0,0.0,0.0,0.0,0.0,0.0,0.0,0.0,0.0,0.0,0.0,2.2338,0.0,0.0,2.3278,2.3607,2.395,2.4195,2.4452,2.4599,2.4599,2.489,2.5355,2.5931,2.5971,2.6305,2.6787,2.6572,2.6491,2.6439,2.5949,2.4851,2.3284,2.1577,1.9988,1.8422,0.0,0.0,0.0,1.6219,1.6284,1.6349,1.6588,1.6407,0.0,0.0,0.0,1.497,1.4903,1.4615,1.4428,1.4875,1.5811,1.6838,1.7846,1.8335,1.8708,1.9115,1.9345,1.9522,1.9664,1.98,1.9929,2.0031,1.9854,1.9732,1.9882,1.9814,1.9759,1.9759,1.982,1.9963,2.0119,2.0227,2.03,2.0462,2.0462,2.0462,2.0476,2.0476,2.0476,2.0476,2.0476,2.0422,2.03,2.03,2.0275,2.0139,2.0139,2.0119,2.0098,1.9963,1.9976,2.0098,1.9976,2.001,2.0153,2.0139,2.0139,2.0139,2.0098,2.0098,2.0098,2.0098,2.0187,2.0329,2.0329,2.0354,2.0476,0.0,0.0,0.0,0.0,0.0,0.0,0.0,0.0,0.0,0.0,0.0,0.0,0.0,0.0,0.0,2.181,2.2058,2.2352,2.2645,2.2827,2.3108,2.3554,2.3736,2.3981,2.4399,2.4532,2.4599,2.4599,2.477,2.5211,2.5998,2.5998,2.6399,2.7068,2.6894,2.625,2.5243,2.3993,2.247,2.0737,1.9002,1.7696,1.6763,0.0,0.0,0.0,1.6045,1.6315,1.6507,1.6151,1.6046,1.6065,1.5826,0.0,0.0,0.0,1.469,1.4489,1.5357,1.6096,1.6804,1.7846,1.8321,1.8596,1.9094,1.9325,1.9468,1.9684,1.9773,1.9827,1.9902,1.9752,1.9739,1.9752,1.9827,1.9814,1.9739,1.9773,1.9861,1.9963,1.9963,2.0051,2.0275,2.0295,2.0295,2.0295,2.0295,2.0295,2.0295,2.0295,2.0261,2.0207,2.0207,2.0139,1.9976,1.9976,1.9929,1.9854,1.9698,1.9712,1.9854,1.9698,1.98,2.0098,2.001,1.9976,1.9963,1.9888,1.9854,1.9854,1.9854,1.9942,2.0064,2.0064,2.0227,2.0417,0.0,0.0,0.0,0.0,0.0,0.0,0.0,0.0,0.0,0.0,0.0,0.0,0.0,0.0,0.0,0.0,2.2298,2.2539,2.288,2.2893,2.3134,2.3634,2.3763,2.4008,2.4479,2.4559,2.4599,2.4599,2.4679,2.5197,2.6105,2.6185,2.6693,2.751,2.7108,2.5989,2.426,2.2658,2.0975,1.9219,1.7299,1.632,1.6032,1.5752,1.5591,0.0,0.0,1.6047,1.6345,1.5615,1.5655,1.5926,1.5371,1.4921,0.0,0.0,0.0,1.4529,1.5567,1.6042,1.6503,1.7589,1.8091,1.8443,1.8972,1.9237,1.9413,1.9576,1.9684,1.9725,1.9725,1.9725,1.9739,1.9773,1.98,1.9861,1.9624,1.9644,1.9739,1.9752,1.9759,1.9766,2.001,2.0085,2.0098,2.0098,2.0098,2.0098,2.0098,2.0098,2.0085,2.0051,2.001,1.9942,1.982,1.9786,1.9732,1.9725,1.9501,1.9481,1.961,1.9522,1.9644,1.9922,1.9854,1.982,1.9861,1.9759,1.9725,1.9725,1.9725,1.9752,1.9875,1.9875,2.0064,2.0329,0.0,0.0,0.0,0.0,0.0,0.0,0.0,0.0,0.0,0.0,0.0,0.0,0.0,2.1836,2.2098,2.2378,2.2371,2.2539,2.288,2.2893,2.3041,2.3305,2.3621,0.0,2.4222,2.4452,2.4599,2.4599,2.4917,2.5504,2.6373,2.6653,2.7255,2.8112,2.7536,2.6347,2.4759,2.4244,2.3124,2.1389,1.891,1.786,1.7656,1.5571,1.4762,1.4784,1.4899,1.5162,1.5467,1.5263,1.5447,1.5658,1.5388,1.4964,1.4607,0.0,0.0,0.0,1.5059,1.5343,1.575,1.6944,1.7467,1.7825,1.862,1.9006,1.9257,1.9413,1.9556,1.9725,1.9725,1.9725,1.9759,1.9902,1.9875,1.9766,1.9481,1.9569,1.961,1.9468,1.9576,1.9773,1.9875,2.001,2.0098,2.0098,2.0098,2.0098,2.0098,2.0098,2.0031,1.9888,1.9814,1.9739,1.9739,1.9522,1.9522,1.9725,1.9501,1.9434,1.9447,1.959,1.959,1.9468,1.961,1.9739,1.9739,1.9725,1.9725,1.9725,1.9725,1.9752,1.9875,1.9875,2.0064,2.0246,0.0,0.0,0.0,0.0,0.0,0.0,0.0,0.0,0.0,0.0,0.0,0.0,0.0,2.2291,2.2512,2.2432,2.2592,2.2786,2.2893,2.2893,2.3121,2.3594,2.375,2.3995,2.4439,2.4546,2.4599,2.4599,2.4706,2.5251,2.6158,2.6413,2.7014,2.7884,2.7642,2.7124,2.6306,2.4809,2.3138,2.1214,1.8937,1.7164,1.5793,1.5082,1.4734,1.4668,1.4981,1.5313,1.5554,1.5293,1.5268,1.5358,1.5283,1.4782,1.4245,1.4194,1.4233,1.4407,1.4909,1.5153,1.5486,1.6402,1.6924,1.7392,1.8092,1.8498,1.885,1.9094,1.9345,1.9522,1.9522,1.959,1.9739,1.9732,1.982,1.9766,1.9468,1.9481,1.9481,1.9434,1.9393,1.9434,1.9569,1.9732,1.9786,1.9678,1.9678,1.9678,1.9678,1.9678,1.961,1.9447,1.9481,1.9522,1.9522,1.9468,1.9501,1.9725,1.9501,1.9481,1.9576,1.9535,1.9535,1.959,1.9644,1.9725,1.9725,1.9725,1.9725,1.9725,1.9725,1.9759,1.9793,1.9793,1.9875,2.0031,0.0,0.0,0.0,0.0,0.0,0.0,0.0,0.0,0.0,0.0,0.0,0.0,0.0,0.0,2.2813,2.2579,2.2786,2.2934,2.3041,2.302,2.3287,2.3924,2.3915,2.4142,2.4586,2.4599,2.4599,2.4599,2.4599,2.5037,2.585,2.6145,2.6653,2.7415,2.7509,2.7271,2.6617,2.4434,2.2437,2.0559,1.8,1.6112,1.485,1.4625,1.4436,1.4365,1.4722,1.5017,1.5257,1.4923,1.4879,1.4906,1.4727,1.4315,1.3895,1.3758,1.3987,1.4299,1.4652,1.4848,1.5174,1.6083,1.6456,1.6822,1.7725,1.8091,1.8409,1.8762,1.9081,1.9305,1.9353,1.9522,1.961,1.9664,1.9793,1.9698,1.9393,1.9359,1.9345,1.9291,1.9183,1.9183,1.9345,1.9447,1.9468,1.9359,1.9359,1.9359,1.9359,1.9359,1.9305,1.9203,1.9393,1.9481,1.9374,1.9379,1.9434,1.959,1.9434,1.9413,1.9501,1.9447,1.9481,1.959,1.959,1.9671,1.9725,1.9725,1.9725,1.9725,1.9725,1.9725,1.9725,1.9725,1.9752,1.9875,0.0,0.0,0.0,0.0,0.0,0.0,0.0,0.0,0.0,0.0,0.0,0.0,0.0,0.0,0.0,2.292,2.292,2.3054,2.3292,2.3305,2.3594,2.4182,2.4209,2.4342,2.4586,2.4599,2.4599,2.4599,2.4599,2.4893,2.5504,2.5837,2.6253,2.6787,2.708,2.6668,2.557,2.3182,2.1293,1.9581,1.6291,1.5063,1.5092,1.4194,1.3808,1.3822,1.4021,1.4283,1.4436,1.4201,1.4283,1.438,1.3802,1.3592,1.3599,1.3592,1.3844,1.4109,0.0,0.0,0.0,1.5967,1.6042,1.6228,1.7555,1.7868,1.7935,1.8409,1.8742,1.904,1.9359,1.9413,1.9481,1.9684,1.9725,1.9556,1.9257,1.9203,1.9149,1.9006,1.8993,1.904,1.9183,1.9183,1.9203,1.9203,1.9203,1.9203,1.9203,1.9183,1.9183,1.9203,1.9488,1.9556,1.9413,1.9257,1.9257,1.9413,1.9257,1.9183,1.9203,1.9345,1.9413,1.9413,1.9374,1.9522,1.9664,1.9725,1.9725,1.9725,1.9725,1.9725,1.9725,1.9725,1.9752,1.9854,0.0,0.0,0.0,0.0,0.0,0.0,2.189,2.1903,2.201,0.0,0.0,0.0,0.0,0.0,2.3549,2.3549,2.3549,2.3589,2.3683,2.3647,2.3821,2.4182,2.4209,2.4342,2.4586,2.4599,2.4599,2.4599,2.4599,2.4799,2.5211,2.5504,2.5945,2.648,2.5511,2.5744,2.6719,2.4521,2.1915,1.9058,1.7796,1.6439,1.5149,1.4707,1.431,1.4027,1.4183,1.4299,1.4352,1.4268,1.4223,1.4139,1.3709,1.3777,1.3905,1.3653,1.3919,1.4224,1.4156,0.0,0.0,0.0,0.0,0.0,1.6117,1.6422,1.6795,1.7568,1.7968,1.8342,1.885,1.9217,1.9447,1.9481,1.959,1.959,1.9393,1.9271,1.9149,1.9006,1.8884,1.8888,1.8884,1.8993,1.9047,1.9047,1.9047,1.9047,1.9047,1.8938,1.8938,1.904,1.8918,1.8938,1.9115,1.885,1.885,1.9115,1.8959,1.8884,1.8943,1.904,1.9115,1.9128,1.9345,1.9447,1.9501,1.9671,1.9725,1.9725,1.9725,1.9725,1.9725,1.9725,1.9739,1.9773,0.0,0.0,0.0,0.0,0.0,2.2258,2.2512,2.2432,2.2458,0.0,0.0,0.0,0.0,0.0,0.0,2.383,2.3888,2.3991,2.3991,2.3991,2.4075,2.4369,2.4502,2.4649,2.4823,2.4823,2.4823,2.4823,2.4653,2.4693,2.4903,2.5317,2.5692,2.6,2.5407,2.5395,2.5696,2.377,2.1927,2.0147,1.8629,1.6968,1.5349,1.4791,1.4433,1.4177,1.4272,1.438,1.4468,1.434,1.4197,1.4084,1.3871,1.3885,1.3939,1.3727,1.3946,0.0,0.0,0.0,1.4482,1.4733,0.0,0.0,1.5683,1.5811,1.6076,1.7039,1.7372,1.7724,1.8443,1.883,1.9094,1.9217,1.9379,1.9434,1.9345,1.9203,1.9061,1.8918,1.8929,1.883,1.882,1.885,1.8905,1.8905,1.8905,1.8905,1.8905,1.8918,1.8938,1.8905,1.8776,1.8816,1.8993,1.8742,1.8742,1.8993,1.883,1.882,1.882,1.8909,1.8938,1.9006,1.9169,1.9271,1.9345,1.9501,1.961,1.9725,1.9725,1.9725,1.9725,1.9725,1.9725,1.9725,0.0,0.0,2.2889,2.2546,2.2552,2.2766,2.3305,2.3193,2.3161,0.0,2.3465,0.0,0.0,0.0,0.0,0.0,2.4195,2.4329,2.4302,2.4302,2.4409,2.4586,2.4917,2.5115,2.5115,2.5117,2.5117,2.5115,2.481,2.4653,2.4653,2.5186,2.5504,2.5585,2.591,2.5225,2.3696,2.1947,2.1445,2.1536,1.8715,1.6841,1.5594,1.469,1.4323,1.4251,1.4285,1.4462,1.4586,1.438,1.4211,1.4139,1.4119,1.3987,1.3842,1.3808,1.396,0.0,0.0,0.0,0.0,1.4957,1.4835,0.0,1.5703,1.5622,1.5635,1.6605,1.6809,1.7073,1.7948,1.8267,1.8477,1.8742,1.8972,1.9128,1.9183,1.9081,1.8938,1.8854,1.8884,1.8918,1.8841,1.882,1.882,1.882,1.882,1.8762,1.8742,1.9006,1.9027,1.8742,1.885,1.8918,1.8938,1.8782,1.8782,1.8938,1.8841,1.8766,1.8766,1.8786,1.8816,1.8938,1.8972,1.9061,1.9183,1.9345,1.9501,1.9644,1.9664,1.9725,1.9725,1.9725,1.9725,1.9725,0.0,2.3153,2.2962,2.3113,2.3354,2.3621,2.3981,2.3981,2.4048,2.4306,2.4583,2.4756,0.0,0.0,0.0,0.0,2.5224,2.5157,2.4917,2.4903,2.4823,2.4613,2.4917,2.5115,2.5115,2.5304,2.5317,2.5115,2.5024,2.4997,2.4997,2.5117,2.5462,2.584,2.4541,2.3928,2.3696,2.1947,2.0447,1.9053,1.7078,1.5969,1.5475,1.5037,1.4442,1.3916,1.4211,1.4258,1.4211,1.4278,1.4278,1.4231,1.4109,1.4136,1.4163,1.3869,1.4034,1.4231,1.4146,1.4265,1.4468,1.4468,1.4767,0.0,1.4855,1.4943,1.5181,1.5628,1.5716,1.5954,1.6727,1.7188,1.7473,1.7534,1.807,1.8654,1.9128,1.9081,1.8972,1.8952,1.8871,1.8854,1.882,1.882,1.882,1.882,1.882,1.8708,1.8586,1.8742,1.8762,1.8586,1.8498,1.8511,1.862,1.8355,1.8355,1.862,1.8477,1.8409,1.8409,1.8531,1.8586,1.864,1.8884,1.9006,1.904,1.9183,1.9345,1.9481,1.9671,1.9725,1.9725,1.9725,1.9725,1.9725,0.0,2.3515,2.3496,2.3865,2.4102,2.4356,2.4783,2.473,2.4743,2.4999,2.5464,2.5717,2.5569,0.0,0.0,0.0,0.0,0.0,0.0,2.5157,2.501,2.4863,2.4997,2.5144,2.5291,2.5438,2.5438,2.5291,2.5157,2.4997,2.4863,2.501,2.4772,2.4119,2.3619,2.2945,2.2097,2.0565,1.9357,1.8406,1.7273,1.6207,1.5184,1.4746,1.4355,1.4089,1.4245,1.4299,1.4326,1.4557,1.4536,1.4394,1.4312,1.4394,1.443,1.42,1.4285,1.4373,1.4224,1.4292,1.4428,1.4502,1.4631,0.0,0.0,1.4685,1.478,1.5303,1.5296,1.5418,1.6164,1.6551,1.6802,1.6951,1.748,1.7968,1.8267,1.8708,1.8959,1.8884,1.8929,1.885,1.882,1.882,1.882,1.882,1.883,1.8816,1.8654,1.8796,1.8762,1.8531,1.8407,1.8423,1.8423,1.8287,1.8287,1.8423,1.8355,1.8321,1.8321,1.8464,1.8474,1.8488,1.8776,1.8884,1.8943,1.9115,1.9257,1.9325,1.9481,1.959,1.9725,1.9725,1.9725,1.9725,2.3921,2.3836,2.3941,2.4426,2.4613,2.4866,2.5438,2.5358,2.5358,2.5638,2.6146,2.6386,2.6185,2.6493,2.6493,0.0,0.0,0.0,2.5772,2.5438,2.5224,2.517,2.5262,2.5331,2.5504,2.5571,2.5545,2.5424,2.5197,2.4957,2.4693,2.497,2.4175,2.2537,2.3023,2.214,2.0109,1.8909,1.8206,1.7824,1.7392,1.6305,1.4898,1.4396,1.4197,1.4265,1.4319,1.4434,1.4597,1.4841,1.478,1.4597,1.4597,1.4685,1.476,1.4638,1.4577,1.4536,1.4455,1.4468,1.455,1.4654,1.4665,1.4645,0.0,0.0,0.0,1.5092,1.5004,1.5045,1.5703,1.5927,1.6096,1.6418,1.6856,1.7195,1.7168,1.8036,1.8654,1.8565,1.8674,1.8742,1.8698,1.8664,1.8677,1.8674,1.8762,1.8796,1.8728,1.8871,1.8816,1.8498,1.8464,1.8375,1.8233,1.8233,1.8247,1.8287,1.8301,1.8335,1.8319,1.8477,1.8494,1.8586,1.8708,1.882,1.8841,1.9047,1.9183,1.9217,1.9393,1.9556,1.9725,1.9725,1.9725,1.9725,2.3893,2.3836,2.391,2.4195,2.469,2.5144,2.5464,2.5743,2.5998,2.6253,2.6573,2.672,2.6734,2.6547,2.6613,2.7068,2.6653,2.644,2.6653,2.6159,2.5784,2.5478,2.5757,2.5784,2.5518,2.5772,2.569,2.5168,2.509,2.5064,2.5037,2.5064,2.4431,2.3267,2.2949,2.1304,1.8758,1.7959,1.6835,1.5526,1.5196,1.4981,1.4784,1.4544,1.4312,1.4129,1.4394,1.4539,1.4674,1.4708,1.4835,1.4916,1.4916,1.493,1.4943,1.4969,1.4821,1.4694,1.4862,1.5086,1.5194,1.4789,1.5215,1.55,1.4577,0.0,1.4853,1.4489,0.0,1.4482,1.4782,0.0,0.0,1.5194,1.5886,1.6388,1.6252,1.7026,1.7595,1.7703,1.7901,1.8092,1.8165,1.8092,1.8077,1.8355,1.8267,1.8301,1.8494,1.8708,1.8654,1.8355,1.8213,1.8077,1.797,1.797,1.7989,1.8124,1.8247,1.8332,1.8454,1.8474,1.8599,1.8742,1.8762,1.882,1.8841,1.8938,1.9094,1.9237,1.9522,1.9705,1.9725,1.9725,1.9725,1.9725,2.3598,2.3807,2.4115,2.4409,2.4943,2.5438,2.5718,2.6159,2.656,2.6854,2.7148,2.7335,2.7335,2.7215,2.7175,2.7296,2.6881,2.676,2.7054,2.6412,0.0,2.6266,2.5905,2.5798,2.6012,2.5812,2.5571,2.5331,2.5157,2.4997,2.4823,2.4997,2.3706,2.124,2.1226,1.9453,1.6427,1.6134,1.5574,1.4894,1.4743,1.4659,1.4599,1.4462,1.4421,1.4489,1.4699,1.4821,1.4875,1.4875,1.4916,1.503,1.5065,1.5139,1.5113,1.5201,1.512,1.5011,1.5079,1.5248,1.5343,1.5065,1.5167,1.5248,1.4672,1.457,1.455,1.4441,0.0,0.0,0.0,0.0,0.0,0.0,1.5506,1.5866,1.5716,1.6164,1.6727,1.7317,1.7439,1.7534,1.7684,1.7717,1.7792,1.7914,1.7948,1.7968,1.7967,1.8247,1.8267,1.8057,1.8077,1.7982,1.7738,1.7914,1.7935,1.7791,1.807,1.8213,1.8287,1.8407,1.8565,1.864,1.8728,1.882,1.8841,1.8918,1.9027,1.9094,1.9305,1.9501,1.9705,1.9556,1.959,1.9725,2.3487,0.0,2.4382,2.4559,2.5064,2.5518,2.5931,2.6453,2.6934,2.7269,2.7455,2.7669,2.7923,2.7869,2.7869,2.7976,2.7066,2.6633,2.7015,2.618,2.5615,2.5438,2.5806,2.5871,2.5647,2.5659,2.5598,2.5518,2.5224,2.501,2.4839,2.501,2.3528,2.0676,2.0097,1.8369,1.5748,1.492,1.4643,1.4684,1.4597,1.4536,1.457,1.4509,1.4638,1.4882,1.5038,1.5092,1.5099,1.514,1.5181,1.5275,1.5384,1.5337,1.533,1.5438,1.5364,1.5255,1.5296,1.5445,1.5527,1.5248,1.5133,1.5011,1.4692,1.455,1.4502,1.4563,1.459,0.0,0.0,0.0,1.4896,1.5011,0.0,1.5479,1.5364,1.5533,1.599,1.668,1.691,1.7087,1.7283,1.7324,1.7352,1.7521,1.7568,1.7582,1.7595,1.7805,1.7914,1.7812,1.788,1.7806,1.7534,1.7806,1.7826,1.7595,1.7914,1.8057,1.8091,1.8355,1.8498,1.8531,1.8694,1.882,1.8841,1.8918,1.8993,1.9006,1.9094,1.9325,1.959,1.9468,1.9535,1.9725,2.379,2.4222,2.4586,2.4599,2.489,2.5329,2.5904,2.6453,2.6934,2.7269,2.7309,2.7615,2.8484,2.8353,2.8634,2.9726,2.7303,2.5899,2.6309,2.5397,2.3995,2.2047,2.5346,2.6125,2.3724,2.5217,2.5837,2.5518,2.5224,2.5224,2.5478,2.5211,2.4443,2.3146,2.0438,1.8806,1.7909,1.5031,1.4184,1.4684,1.4293,1.434,1.4701,1.4896,1.5038,1.5187,1.5343,1.5398,1.5418,1.5519,1.571,1.5874,1.5881,1.5737,1.558,1.558,1.552,1.5438,1.5539,1.5839,1.592,1.533,1.5289,1.5208,1.4482,1.4645,1.4909,1.4714,1.5025,1.5377,1.5377,1.5262,1.5167,0.0,1.5187,0.0,0.0,1.5201,1.5323,1.56,1.6198,1.6659,1.6965,1.6727,1.6802,1.7385,1.6973,1.6986,1.7561,1.7609,1.7609,1.7595,1.746,1.7439,1.7426,1.7439,1.746,1.7595,1.7792,1.7948,1.8091,1.8247,1.8409,1.8531,1.8694,1.882,1.8841,1.8918,1.8993,1.8993,1.8993,1.9183,1.9434,1.9374,1.9535,1.9725,2.4593,2.4796,2.481,2.4422,2.4756,2.5315,2.5904,2.6279,2.6854,2.7777,2.7884,2.8312,2.9352,2.8161,2.7451,2.7825,2.554,2.4163,2.4375,2.4737,2.4214,2.2579,2.5587,2.6423,2.4589,2.5655,2.6199,2.6092,2.5598,2.5518,2.5837,2.5743,2.4959,2.3552,2.095,1.91,1.7769,1.519,1.4264,1.4458,1.4479,1.4726,1.5018,1.4875,1.497,1.5201,1.5357,1.5411,1.5432,1.5539,1.5669,1.573,1.5874,1.5757,1.5627,1.5872,1.5893,1.5886,1.6042,1.63,1.6381,1.5778,1.5594,1.5343,1.4694,1.4787,1.493,1.4728,1.5053,1.5377,1.5276,1.5303,1.5269,0.0,0.0,1.5194,0.0,1.474,1.4855,1.516,1.5635,1.6015,1.6269,1.6232,1.6313,1.6517,1.649,1.6503,1.6605,1.6992,1.7114,1.6858,1.7141,1.7222,1.7127,1.7426,1.7494,1.7446,1.7738,1.7948,1.8091,1.8247,1.8389,1.8531,1.8694,1.882,1.882,1.8875,1.8888,1.8888,1.8888,1.9027,1.9271,1.9271,1.9447,1.9725,2.5157,2.5157,2.4997,2.4716,2.5157,2.5678,2.6091,2.6667,2.7362,2.8232,2.862,2.8916,2.919,2.8097,2.7154,2.6583,2.433,2.321,2.3683,2.3683,2.317,2.206,2.4519,2.4991,2.3038,2.4836,2.57,2.5477,2.5819,2.6132,2.6453,2.6252,2.5701,2.4724,2.148,1.9522,1.8491,1.5488,1.4251,1.4319,1.4563,1.4841,1.5092,1.495,1.5113,1.5425,1.5472,1.5527,1.5594,1.5744,1.5798,1.5811,1.5906,1.5832,1.575,1.5996,1.6042,1.6103,1.6205,1.6442,1.65,1.6056,1.5866,1.5649,1.5059,1.5181,1.5323,1.5167,1.5452,1.5716,1.5669,1.5608,1.5506,0.0,0.0,0.0,0.0,1.4509,1.4624,1.4983,1.5316,1.5635,1.5881,1.59,1.5927,1.5927,1.5967,1.5974,1.5927,1.6442,1.6673,1.6524,1.691,1.71,1.706,1.7399,1.7467,1.7426,1.7772,1.7968,1.8023,1.8287,1.8366,1.8464,1.862,1.8674,1.8674,1.8674,1.8766,1.882,1.882,1.8905,1.9128,1.9183,1.94,1.9725,2.5531,2.5331,2.5237,2.5504,2.6012,2.6373,2.6386,2.7429,2.8312,2.8631,2.9344,2.9378,2.8173,2.8117,2.7493,2.5983,2.3651,2.2761,2.3993,2.2268,2.0965,2.0357,2.2307,2.217,1.94,2.2954,2.4538,2.3873,2.5852,2.7001,2.7336,2.6747,2.6533,2.6518,2.1946,2.004,1.9903,1.5866,1.419,1.4346,1.4489,1.4726,1.5018,1.5153,1.5541,1.5915,1.571,1.5737,1.5928,1.6029,1.609,1.609,1.609,1.6044,1.5935,1.5935,1.5995,1.6117,1.6117,1.6327,1.6476,1.6185,1.6103,1.5981,1.554,1.5778,1.6049,1.5942,1.611,1.6368,1.6476,1.6151,1.5901,0.0,0.0,0.0,1.457,1.4509,1.4618,1.4969,1.5208,1.5493,1.584,1.5696,1.5566,1.556,1.5472,1.5459,1.556,1.6049,1.6361,1.6497,1.6815,1.7046,1.7182,1.7338,1.7419,1.7426,1.788,1.8023,1.7956,1.8321,1.8443,1.8335,1.842,1.8474,1.8474,1.8531,1.864,1.882,1.882,1.8909,1.9006,1.9169,1.94,1.9705,2.5877,2.5998,2.6079,2.6146,2.6145,2.6185,2.636,2.7429,2.8526,2.9459,2.8947,2.8587,2.8922,2.6206,2.4158,2.3716,2.1693,2.0525,2.0718,2.139,2.1012,1.9209,2.2158,2.2606,1.9961,2.3479,2.5153,2.4795,2.6386,2.7456,2.7951,2.7362,2.6418,2.5092,2.1955,1.978,1.8264,1.5631,1.4658,1.4808,1.495,1.5194,1.5472,1.5458,1.5866,1.63,1.5934,1.5867,1.5928,1.6029,1.6157,1.6252,1.6252,1.6293,1.6347,1.6347,1.6456,1.6527,1.6527,1.672,1.6815,1.6625,1.6415,1.6191,1.5961,1.609,1.6205,1.6056,1.6347,1.6493,1.6246,1.6103,1.5894,1.5336,1.4821,1.4523,1.4516,1.4421,1.4468,1.4714,1.4823,1.5025,1.537,1.5323,1.5255,1.5153,1.5106,1.5147,1.5289,1.5832,1.6157,1.6191,1.6707,1.6998,1.7032,1.729,1.7419,1.7426,1.788,1.8124,1.8213,1.8321,1.8409,1.8477,1.8511,1.8474,1.8488,1.8654,1.8728,1.882,1.882,1.8909,1.9027,1.9271,1.9413,1.9501,2.6185,2.6373,2.6573,2.6573,2.68,2.7015,2.7175,2.7871,2.8724,2.978,2.8904,2.7985,2.7545,2.4939,2.2798,2.1838,2.0662,2.0148,2.0716,2.0922,2.0797,2.017,2.1282,2.1021,1.9031,2.1663,2.3289,2.3621,2.5337,2.6871,2.8165,2.7576,2.6354,2.4613,2.204,1.9757,1.768,1.5513,1.4808,1.5079,1.5221,1.5466,0.0,1.5879,1.6137,1.6402,1.6212,1.6144,1.6151,1.6171,1.6279,1.6402,1.6402,1.6456,1.6524,1.6524,1.6581,1.6696,1.6696,1.6863,1.6958,1.687,1.6727,1.6564,1.6408,1.6442,1.6425,1.6388,1.6524,1.654,1.6408,1.6157,1.5806,1.5126,1.4699,1.4496,1.4509,1.4387,1.4407,1.466,1.4801,1.4909,1.5072,1.5031,1.493,1.478,1.4835,1.4875,1.4889,1.5636,1.603,1.603,1.6632,1.7012,1.7073,1.7372,1.7433,1.7426,1.788,1.8145,1.8233,1.8355,1.8407,1.8474,1.8474,1.8474,1.8531,1.862,1.8708,1.882,1.882,1.8875,1.8918,1.9149,1.9325,1.9447,2.6453,2.668,2.6867,2.6827,2.763,2.8286,2.8393,2.8698,2.9158,2.9681,2.8857,2.7361,2.5159,2.388,2.2374,2.0476,2.0182,2.0671,2.1972,2.0621,2.0301,2.1573,2.0048,1.8621,1.7486,1.9116,2.06,2.183,2.3784,2.5915,2.8179,2.7617,2.638,2.4601,2.2152,1.9729,1.7357,1.5409,1.4828,1.5255,1.5432,1.5662,1.5996,1.6232,1.6347,1.6381,1.6483,1.6524,1.6503,1.6381,1.6435,1.6551,1.6551,1.6564,1.6585,1.6585,1.6621,1.673,1.673,1.6876,1.6978,1.6978,1.6978,1.6944,1.6757,1.673,1.673,1.673,1.6673,1.6612,1.6648,1.6232,1.569,1.5139,1.4855,1.466,1.4611,1.4462,1.4468,1.4714,1.4916,0.0,1.5017,1.4848,1.4654,1.4523,1.4572,1.4586,1.4516,1.5309,1.584,1.5901,1.6564,1.7039,1.7222,1.7453,1.7548,1.7514,1.7935,1.8124,1.8124,1.8409,1.8511,1.8498,1.8474,1.8474,1.8474,1.8552,1.864,1.882,1.882,1.882,1.8841,1.8918,1.9128,1.9379,2.6787,2.6987,2.7108,2.6867,2.7762,2.8764,2.9499,3.0261,3.0331,2.917,2.7901,2.6323,2.4104,2.2087,2.0729,2.032,2.0296,2.0351,2.064,1.9947,1.9616,1.971,1.8942,1.8134,1.7178,1.9069,2.0864,2.243,2.4185,2.6111,2.8179,2.7831,2.6574,2.4613,2.2421,1.9346,1.5762,1.5167,1.5147,1.5581,1.5852,1.6069,1.6246,1.6422,1.6513,1.6608,1.6506,1.6524,1.6517,1.649,1.6533,1.6655,1.6655,1.6795,1.6897,1.6897,1.6917,1.6937,1.6937,1.6958,1.6978,1.6978,1.6978,1.6971,1.6944,1.6937,1.6937,1.6937,1.6917,1.6829,1.6605,1.6026,1.556,1.5201,1.4916,1.4769,1.5031,1.4835,1.4774,1.5072,1.5126,1.5099,1.503,1.4989,1.4814,1.4529,1.4428,1.4414,1.4509,1.5011,1.552,1.5888,1.6463,1.6926,1.7378,1.7507,1.7758,1.7968,1.8179,1.8287,1.8287,1.8407,1.8464,1.8355,1.8477,1.8474,1.8488,1.8674,1.8742,1.882,1.882,1.882,1.882,1.8854,1.8918,1.9094,2.7081,2.7295,2.7589,2.7881,2.8831,2.986,3.0889,3.1664,3.168,3.044,2.7988,2.5903,2.485,2.2281,2.0564,2.0474,2.0196,1.9998,1.9911,1.9328,1.8977,1.8893,1.8551,1.8071,1.7348,1.7954,1.9202,2.102,2.2573,2.445,2.6541,2.7188,2.6483,2.4571,2.1272,1.8156,1.5399,1.5169,1.5337,1.5784,1.6157,1.6402,1.6558,1.67,1.6809,1.6863,1.6788,1.6761,1.6748,1.6615,1.6741,1.687,1.687,1.6917,1.6978,1.6978,1.6978,1.6978,1.6978,1.6978,1.6978,1.6978,1.6978,1.6978,1.6978,1.6978,1.6978,1.6978,1.6978,1.689,1.6578,1.5986,1.5566,1.5588,1.5215,1.5072,1.5377,1.5228,1.5113,1.5174,1.5181,1.5173,1.503,1.4896,1.4753,1.4529,1.4448,1.4407,1.4401,1.4828,1.5282,1.573,1.632,1.6831,1.7412,1.7717,1.7948,1.8091,1.8247,1.8355,1.8423,1.8498,1.8531,1.8552,1.862,1.8654,1.8654,1.8786,1.882,1.882,1.882,1.882,1.882,1.882,1.8816,1.8918,2.7602,2.7883,2.8337,2.9179,3.01,3.1109,3.2051,3.2349,3.1988,3.0879,2.8011,2.5718,2.4861,2.2432,2.0853,2.0661,2.0274,1.993,1.9765,1.9068,1.8626,1.8589,1.8262,1.7856,1.7371,1.6841,1.7546,1.9441,2.1077,2.2897,2.4933,2.6294,2.5657,2.3272,1.9733,1.7182,1.5498,1.5341,1.5554,1.6078,1.6415,1.6608,1.6757,1.6937,1.6998,1.7019,1.6992,1.6998,1.6998,1.6849,1.6876,1.6978,1.6978,1.6978,1.6978,1.6978,1.6978,1.6978,1.6978,1.6978,1.6978,1.6978,1.6978,1.6978,1.6978,1.6978,1.6992,1.7019,1.7053,1.6971,1.6632,1.6189,1.5967,1.6003,1.5655,1.5506,1.5695,1.5649,1.5506,1.5391,1.5391,1.5289,1.5085,1.4848,1.4633,1.4523,1.4482,1.4421,1.4306,1.4692,1.5113,1.5479,1.6151,1.6768,1.7365,1.7826,1.8091,1.8179,1.8301,1.8423,1.8474,1.8565,1.862,1.8766,1.88,1.882,1.882,1.882,1.882,1.882,1.882,1.882,1.882,1.882,1.882,1.8854,2.8668,2.9112,2.9513,3.0172,3.1183,3.2064,3.25,3.1337,2.976,2.7766,2.7204,2.5558,2.1789,2.1074,2.0901,2.0885,2.0832,2.0705,2.0527,1.9454,1.8805,1.8596,1.7639,1.6985,1.6602,1.6541,1.734,1.8978,2.1338,2.3191,2.4547,2.527,2.3345,1.921,1.8409,1.7193,1.5823,1.5657,1.5884,1.6476,1.6601,1.6822,1.6958,1.6978,1.706,1.7154,1.7026,1.7066,1.7148,1.7005,1.6971,1.6978,1.6978,1.6978,1.6978,1.6978,1.6978,1.6978,1.6978,1.6978,1.6978,1.6978,1.6978,1.6978,1.6978,1.6978,1.7019,1.7148,1.7283,1.7243,1.6757,1.6904,1.6876,1.6354,1.6232,1.6212,1.6246,1.6117,1.6015,1.6001,1.5922,1.5677,1.5201,1.4909,1.4633,1.4523,1.4394,1.4312,1.4299,1.4545,1.4856,1.5215,1.594,1.6612,1.7209,1.7704,1.8091,1.844,1.8498,1.8511,1.8531,1.8674,1.8674,1.8565,1.8708,1.882,1.882,1.882,1.882,1.882,1.882,1.882,1.882,1.882,1.882,1.8841,3.002,3.0194,3.0515,3.1276,3.1944,3.2634,3.3303,3.1794,2.9894,2.7849,2.623,2.4702,2.3162,2.1911,2.1132,2.1027,2.0599,2.0182,1.9745,1.8804,1.8076,1.7787,1.7289,1.6924,1.6802,1.6655,1.6973,1.7746,1.9798,2.0998,2.1459,2.2568,2.1312,1.8155,1.8211,1.7319,1.5725,1.5922,1.6225,1.6544,1.6788,1.6924,1.6992,1.7073,1.7141,1.7195,1.7229,1.7222,1.7182,1.7127,1.7053,1.6978,1.6978,1.6978,1.6978,1.6978,1.7039,1.7107,1.7107,1.7175,1.7243,1.7243,1.7243,1.7243,1.7243,1.7243,1.7236,1.7202,1.7243,1.7229,1.7046,1.6965,1.6885,1.6971,1.6754,1.6639,1.6815,1.6632,1.6381,1.611,1.571,1.5343,1.5126,1.4706,1.4597,1.4896,1.4529,1.4299,1.4299,1.4489,1.478,1.5167,1.5825,1.6463,1.706,1.7684,1.8145,1.8409,1.8674,1.8762,1.8674,1.883,1.8816,1.8674,1.8786,1.882,1.882,1.882,1.882,1.882,1.882,1.882,1.882,1.882,1.882,1.8854,3.1129,3.1249,3.1583,3.2478,3.2866,3.3357,3.4028,3.173,2.9449,2.8176,2.5195,2.3278,2.3476,2.2223,2.1343,2.1213,2.0705,2.0108,1.9417,1.8703,1.8003,1.7392,1.7179,1.6998,1.6917,1.675,1.6701,1.6804,1.8777,1.9552,1.926,2.0242,1.947,1.7389,1.7591,1.6949,1.581,1.6218,1.6503,1.6734,1.691,1.7032,1.7114,1.7168,1.7249,1.7331,1.7399,1.7351,1.7249,1.7209,1.71,1.6978,1.6978,1.7012,1.7039,1.7039,1.7148,1.7256,1.7256,1.7338,1.7419,1.7419,1.7419,1.7419,1.7419,1.7419,1.7392,1.7283,1.7331,1.7378,1.7338,1.7188,1.7154,1.7385,1.7195,1.7039,1.7121,1.6951,1.6653,1.6205,1.5655,1.5228,1.5037,1.4604,1.4557,1.5018,1.4624,1.4401,1.4496,1.455,1.4767,1.5167,1.5771,1.6368,1.6978,1.767,1.8124,1.8321,1.8776,1.8938,1.883,1.8938,1.8938,1.883,1.8841,1.882,1.882,1.882,1.882,1.882,1.882,1.882,1.882,1.882,1.882,1.8854,3.1917,3.2367,3.2862,3.3708,3.4108,3.4402,3.4762,3.0689,2.781,2.8231,2.4134,2.1189,2.1423,2.1384,2.1384,2.1384,2.1384,2.1012,2.0076,1.9607,1.8887,1.7832,1.7431,1.7053,1.6709,1.6702,1.6554,1.6313,1.8783,1.9632,1.8914,1.8769,1.7852,1.6298,1.6063,1.6064,1.6313,1.6456,1.6775,1.7175,1.7032,1.7154,1.7399,1.7249,1.7378,1.7568,1.7473,1.7419,1.7392,1.7243,1.71,1.6978,1.6978,1.708,1.7188,1.7188,1.7297,1.7419,1.7419,1.7419,1.7419,1.7419,1.7419,1.7419,1.7419,1.7419,1.7419,1.7419,1.765,1.7812,1.7615,1.7758,1.7758,1.7467,1.7487,1.7433,1.7046,1.6978,1.6809,1.6361,1.5857,1.5459,1.5064,1.4692,1.4577,1.4687,1.4597,1.4645,1.4989,1.4821,1.4829,1.5174,1.5771,1.6368,1.6978,1.7623,1.8023,1.8321,1.8776,1.8993,1.8993,1.8993,1.8993,1.8972,1.883,1.882,1.882,1.882,1.882,1.882,1.882,1.882,1.882,1.882,1.882,1.882,3.2933,3.3253,3.3547,3.3841,3.4295,3.4708,3.4802,3.0958,2.8134,2.8285,2.42,2.1319,2.1384,2.1384,2.1384,2.1384,2.1278,2.0778,1.9796,1.9366,1.8718,1.7604,1.7329,1.71,1.691,1.691,1.6863,1.6768,1.756,1.7662,1.7131,1.7071,1.6746,1.6138,1.6146,1.6388,1.6775,1.6917,1.706,1.7195,1.7256,1.7277,1.7283,1.7446,1.7507,1.7595,1.7704,1.767,1.7514,1.7467,1.7405,1.7277,1.7277,1.7243,1.7195,1.7195,1.7372,1.7521,1.7521,1.765,1.7724,1.7724,1.7724,1.7724,1.7724,1.765,1.7521,1.7521,1.7595,1.7704,1.7595,1.7772,1.7881,1.7738,1.7684,1.7473,1.7175,1.6951,1.6619,1.6112,1.5696,1.535,1.5051,1.4882,1.493,1.5181,1.4964,1.4915,1.501,1.5018,1.5133,1.533,1.6015,1.6619,1.7121,1.7724,1.8213,1.862,1.8972,1.9183,1.9291,1.9183,1.9081,1.8993,1.8938,1.8909,1.882,1.882,1.882,1.882,1.882,1.882,1.882,1.882,1.882,1.8841,3.3414,3.3668,3.3921,3.4028,3.4442,3.4855,3.491,3.116,2.8307,2.8307,2.4255,2.1384,2.1384,2.1384,2.1384,2.1384,2.1278,2.0739,1.959,1.9409,1.8734,1.748,1.7331,1.7209,1.7066,1.7005,1.6978,1.6978,1.6886,1.6753,1.6579,1.6411,1.6373,1.6422,1.6517,1.6748,1.706,1.71,1.7175,1.7283,1.7317,1.7344,1.7385,1.7521,1.7629,1.7738,1.7826,1.7772,1.7595,1.7595,1.7494,1.7419,1.7419,1.7392,1.7365,1.7365,1.7534,1.7683,1.7683,1.7792,1.7915,1.7915,1.7915,1.7915,1.7915,1.7792,1.7683,1.7683,1.7683,1.7683,1.7683,1.7812,1.7915,1.7915,1.7738,1.7487,1.7236,1.6842,1.6402,1.5962,1.5642,1.5377,1.5079,1.5248,1.5357,1.5486,1.5377,1.5377,1.5432,1.5309,1.5418,1.5737,1.6307,1.6876,1.7439,1.788,1.8321,1.882,1.9115,1.9359,1.9501,1.9291,1.9149,1.9061,1.8959,1.8909,1.882,1.882,1.882,1.882,1.882,1.882,1.882,1.882,1.882,1.8841,3.344,3.3694,3.4002,3.4269,3.4576,3.4936,3.5124,3.1415,2.8468,2.8296,2.4409,2.1557,2.1439,2.1384,2.1384,2.1384,2.1384,2.0826,1.9518,1.9536,1.8929,1.7487,1.7433,1.7358,1.7195,1.7066,1.6992,1.6978,1.6693,1.67,1.6971,1.6686,1.6707,1.6978,1.6978,1.706,1.7182,1.7066,1.7168,1.7412,1.729,1.7405,1.7595,1.7609,1.7738,1.7915,1.7915,1.7772,1.7609,1.7609,1.7514,1.7453,1.7453,1.7494,1.7609,1.7595,1.7758,1.7915,1.7915,1.7915,1.7915,1.7915,1.7915,1.7915,1.7915,1.7915,1.7915,1.7915,1.7915,1.7915,1.7915,1.7915,1.7936,1.7915,1.7738,1.7473,1.7195,1.6673,1.6198,1.5908,1.573,1.5554,1.5255,1.5663,1.586,1.5634,1.5791,1.5983,1.609,1.5716,1.5764,1.6341,1.6653,1.7214,1.7936,1.8036,1.8355,1.8854,1.9237,1.9522,1.9705,1.9359,1.9217,1.9183,1.8905,1.8841,1.882,1.882,1.882,1.882,1.882,1.882,1.882,1.882,1.882,1.882,3.3721,3.4015,3.4242,3.4309,3.475,3.5044,3.4949,3.2633,3.0293,2.8511,2.5767,2.3337,2.1587,2.1384,2.1384,2.1384,2.1384,2.0866,1.9628,1.9555,1.8929,1.7487,1.748,1.7412,1.7195,1.7161,1.7087,1.6978,1.691,1.691,1.6978,1.6904,1.691,1.6978,1.6978,1.706,1.7195,1.7283,1.7358,1.7439,1.7629,1.7684,1.7609,1.7772,1.7881,1.7915,1.7915,1.7846,1.7812,1.7812,1.7792,1.7758,1.7758,1.7772,1.7792,1.7629,1.7758,1.7915,1.7915,1.7915,1.7915,1.7915,1.7915,1.7915,1.7915,1.7915,1.7915,1.7915,1.7915,1.7915,1.7915,1.8004,1.8002,1.7936,1.7738,1.7365,1.6775,1.6558,1.6232,1.5588,1.5791,1.59,1.5765,1.5949,1.6015,1.5981,1.6008,1.6096,1.6246,1.6317,1.6551,1.6815,1.7222,1.7684,1.8213,1.8355,1.8654,1.9094,1.9447,1.9624,1.9664,1.9468,1.9305,1.9183,1.9006,1.8871,1.882,1.882,1.882,1.882,1.882,1.882,1.882,1.882,1.882,1.882,3.3855,3.4122,3.4362,3.4496,3.4776,3.499,3.4963,3.2246,2.9704,2.8457,2.5333,2.2791,2.1557,2.1384,2.1384,2.1384,2.1384,2.089,1.9687,1.9577,1.9002,1.7684,1.7629,1.7514,1.7405,1.7263,1.7121,1.6978,1.6978,1.6978,1.6978,1.6978,1.6978,1.6978,1.6978,1.71,1.7297,1.7311,1.7399,1.7487,1.7704,1.7717,1.7609,1.7812,1.7915,1.7915,1.7915,1.7915,1.7915,1.7915,1.7915,1.7915,1.7915,1.7915,1.7902,1.7772,1.7806,1.7915,1.7915,1.7915,1.7915,1.7915,1.7915,1.7915,1.7915,1.7915,1.7915,1.7915,1.7915,1.7915,1.7915,1.7989,1.8023,1.7806,1.7582,1.7196,1.6648,1.6283,1.6022,1.575,1.5995,1.6178,1.6164,1.6422,1.653,1.6395,1.6456,1.653,1.6612,1.6844,1.706,1.708,1.7392,1.7805,1.8321,1.8674,1.8993,1.9305,1.9556,1.9725,1.9664,1.9434,1.9271,1.9183,1.8972,1.8888,1.882,1.882,1.882,1.882,1.882,1.882,1.882,1.882,1.8816,1.8871,3.3935,3.4148,3.4416,3.4762,3.479,3.4831,3.5097,3.1551,2.8683,2.836,2.4572,2.1768,2.1439,2.1384,2.1384,2.1266,2.1266,2.0772,1.9687,1.9577,1.906,1.7881,1.7663,1.7595,1.7595,1.7372,1.7168,1.7046,1.7026,1.7012,1.7012,1.7012,1.7005,1.6978,1.6978,1.7134,1.7378,1.727,1.7378,1.7561,1.7609,1.7615,1.7609,1.7812,1.7915,1.7915,1.7915,1.7915,1.7915,1.7915,1.7915,1.7915,1.7915,1.7915,1.7915,1.7915,1.7936,1.7956,1.7956,1.7956,1.7956,1.7915,1.7915,1.7915,1.7956,1.7936,1.7936,1.797,1.7914,1.7956,1.7956,1.8023,1.8023,1.7649,1.7392,1.7066,1.6648,1.6074,1.5776,1.6056,1.6279,1.6483,1.6673,1.7012,1.7141,1.6878,1.6998,1.7066,1.7114,1.7351,1.7439,1.7331,1.7602,1.7893,1.8389,1.8938,1.9271,1.9393,1.9576,1.9705,1.9671,1.9325,1.9183,1.9149,1.8884,1.882,1.882,1.882,1.882,1.882,1.882,1.882,1.882,1.8841,1.8884,1.8993,3.4148,3.4282,3.4416,3.4762,3.4963,3.5057,3.4909,3.2779,3.0507,2.8576,2.593,2.3547,2.1595,2.1384,2.1211,2.0678,2.0623,2.0333,1.9632,1.9577,1.9023,1.7684,1.7609,1.7595,1.7595,1.7473,1.7372,1.7351,1.7222,1.7161,1.7161,1.7161,1.7093,1.6978,1.6978,1.7073,1.7236,1.7338,1.7412,1.748,1.7724,1.7758,1.7609,1.7812,1.7915,1.7915,1.7915,1.7915,1.7915,1.7915,1.7915,1.7915,1.7915,1.7915,1.7915,1.7915,1.8004,1.8057,1.8057,1.8057,1.8023,1.7956,1.7915,1.7956,1.8023,1.8004,1.7935,1.8199,1.8145,1.8057,1.8057,1.8179,1.8145,1.7663,1.7392,1.6958,1.6279,1.6198,1.6171,1.609,1.6551,1.7032,1.7379,1.7365,1.7473,1.7725,1.748,1.746,1.7759,1.7772,1.7846,1.7948,1.8124,1.8375,1.8694,1.9027,1.9217,1.9237,1.9522,1.959,1.9468,1.9291,1.9128,1.9006,1.8888,1.882,1.882,1.882,1.882,1.882,1.882,1.882,1.8841,1.8905,1.8972,1.8993,3.4229,3.4456,3.4656,3.495,3.511,3.5151,3.5017,3.2099,2.9489,2.8468,2.517,2.2581,2.1502,2.1384,2.1172,2.0568,2.0505,2.009,1.906,1.9078,1.8679,1.765,1.7595,1.7514,1.7405,1.7331,1.7263,1.7182,1.7114,1.708,1.708,1.708,1.7046,1.6978,1.6978,1.7107,1.7317,1.7392,1.7412,1.75,1.7684,1.767,1.7487,1.7684,1.7758,1.7758,1.7881,1.7915,1.7915,1.7915,1.7915,1.7915,1.7915,1.7915,1.7915,1.7915,1.7968,1.8111,1.8199,1.8158,1.8091,1.8111,1.8036,1.8023,1.8179,1.8158,1.8145,1.8287,1.8199,1.8091,1.8091,1.8145,1.807,1.7649,1.7203,1.6863,1.6605,1.6347,1.6307,1.6639,1.6998,1.7392,1.7846,1.7758,1.7758,1.7968,1.7772,1.7758,1.8024,1.7989,1.8091,1.8321,1.8389,1.8531,1.882,1.9061,1.9203,1.9203,1.9522,1.9535,1.9305,1.9237,1.9128,1.8993,1.883,1.882,1.882,1.882,1.882,1.882,1.882,1.882,1.8841,1.8938,1.904,1.9094,3.4362,3.4603,3.4857,3.5151,3.5191,3.5191,3.5191,3.1267,2.8307,2.8307,2.4255,2.1384,2.1384,2.1384,2.1118,2.034,2.0278,1.9745,1.8477,1.8473,1.8225,1.7602,1.7541,1.7412,1.7195,1.7195,1.7154,1.708,1.7046,1.7032,1.7032,1.7032,1.7012,1.6978,1.6978,1.7127,1.7365,1.7365,1.7433,1.7494,1.7527,1.7473,1.7385,1.7534,1.7595,1.7615,1.7812,1.7846,1.7868,1.7902,1.7915,1.7915,1.7915,1.7915,1.7915,1.7915,1.8002,1.8158,1.8247,1.8179,1.8124,1.8287,1.8199,1.8145,1.8321,1.8335,1.8335,1.8409,1.8301,1.8199,1.8199,1.8165,1.8036,1.7649,1.7122,1.6836,1.6917,1.653,1.649,1.7168,1.7412,1.7704,1.8145,1.8124,1.8181,1.8287,1.8199,1.8179,1.8287,1.8267,1.8355,1.8586,1.8586,1.864,1.882,1.9061,1.9183,1.9149,1.9501,1.9501,1.9203,1.9237,1.9169,1.8993,1.8871,1.8854,1.882,1.8728,1.8786,1.882,1.8728,1.8786,1.8841,1.8938,1.9061,1.9149,3.4721,3.4736,3.4791,3.5151,3.5191,3.5191,3.5191,3.1267,2.8307,2.8307,2.4255,2.1384,2.1384,2.1384,2.0945,1.975,1.9687,1.9177,1.8012,1.7977,1.7793,1.7453,1.7385,1.7358,1.7195,1.7195,1.7256,1.7392,1.7249,1.7175,1.7175,1.7175,1.7107,1.6978,1.6978,1.7066,1.7209,1.7209,1.7216,1.7236,1.7378,1.7433,1.7385,1.7534,1.7595,1.7615,1.7812,1.7772,1.7629,1.7868,1.7915,1.7915,1.7915,1.7915,1.7915,1.7915,1.8077,1.8267,1.8145,1.8091,1.8124,1.8287,1.8199,1.8165,1.8443,1.8409,1.8389,1.8674,1.8599,1.8498,1.8498,1.8389,1.8102,1.7663,1.7263,1.6917,1.6736,1.6675,1.6824,1.7351,1.765,1.8002,1.8407,1.862,1.8762,1.8918,1.8918,1.8918,1.8918,1.8796,1.8786,1.88,1.88,1.88,1.882,1.9061,1.9128,1.9006,1.9507,1.9501,1.9203,1.9345,1.9257,1.8993,1.8972,1.8884,1.88,1.8599,1.864,1.88,1.8599,1.864,1.8841,1.8938,1.8993,1.9006,3.4721,3.4763,3.4857,3.5151,3.5191,3.5191,3.5191,3.1267,2.8307,2.8307,2.4255,2.1384,2.1384,2.1384,2.0905,1.9593,1.9476,1.8897,1.7568,1.7534,1.7541,1.7426,1.7331,1.7209,1.7066,1.706,1.7087,1.7148,1.7175,1.7195,1.7195,1.7195,1.7161,1.7107,1.7019,1.706,1.7195,1.7195,1.7195,1.7195,1.7256,1.7277,1.7283,1.7344,1.7487,1.7595,1.7602,1.767,1.7772,1.7738,1.7792,1.7915,1.7915,1.7915,1.7936,1.8024,1.8023,1.8077,1.8199,1.8233,1.8267,1.8409,1.8335,1.8301,1.8606,1.864,1.8654,1.8871,1.8708,1.8565,1.8654,1.8477,1.8233,1.7968,1.7548,1.7263,1.725,1.7176,1.7331,1.7792,1.8023,1.8287,1.864,1.8786,1.883,1.8972,1.9081,1.9115,1.9115,1.8993,1.8871,1.882,1.882,1.882,1.882,1.8972,1.8993,1.8909,1.9203,1.9223,1.8938,1.9094,1.904,1.8909,1.8909,1.8875,1.88,1.8599,1.862,1.8742,1.8498,1.8552,1.8762,1.8728,1.883,1.8972,3.4855,3.4949,3.4963,3.5164,3.5191,3.5191,3.5191,3.1267,2.8307,2.8307,2.4255,2.1384,2.1384,2.1343,2.0763,1.9495,1.9334,1.8722,1.733,1.7365,1.7419,1.7419,1.7317,1.7216,1.7121,1.7121,1.7121,1.7121,1.7216,1.7263,1.7263,1.7263,1.7263,1.7256,1.7114,1.71,1.7188,1.7148,1.7127,1.7127,1.7127,1.7154,1.7195,1.7243,1.7392,1.7521,1.7561,1.767,1.7792,1.7738,1.7772,1.7915,1.7915,1.7915,1.7956,1.8111,1.8091,1.8057,1.8267,1.8355,1.8409,1.8454,1.8423,1.8389,1.8694,1.882,1.8854,1.8959,1.8816,1.8708,1.8816,1.862,1.8389,1.8199,1.786,1.767,1.7717,1.7704,1.7772,1.8179,1.8321,1.8498,1.8854,1.8929,1.8959,1.9115,1.9257,1.9325,1.9271,1.9094,1.8938,1.8888,1.8841,1.882,1.882,1.8918,1.8918,1.882,1.9061,1.9081,1.8888,1.8993,1.8972,1.883,1.8841,1.8786,1.8674,1.8477,1.8511,1.8674,1.8409,1.8498,1.88,1.864,1.8742,1.8905,3.5137,3.5191,3.5191,3.5191,3.5191,3.5191,3.5191,3.1267,2.8307,2.8307,2.4255,2.1384,2.1384,2.123,2.0636,1.9488,1.9237,1.861,1.7473,1.7419,1.7419,1.7426,1.7419,1.7419,1.7419,1.7419,1.7419,1.7419,1.7419,1.7419,1.7419,1.7419,1.7419,1.7412,1.7263,1.7195,1.7182,1.7039,1.6985,1.6978,1.6985,1.7066,1.7209,1.7365,1.7419,1.746,1.7758,1.7772,1.7615,1.7812,1.7915,1.7915,1.7915,1.7915,1.7935,1.8233,1.8321,1.8321,1.8321,1.8423,1.8474,1.8474,1.8423,1.8389,1.8694,1.882,1.8854,1.8959,1.8993,1.8993,1.8993,1.8871,1.8674,1.8375,1.8199,1.8091,1.8091,1.8091,1.8199,1.8498,1.8474,1.8654,1.8959,1.9115,1.9271,1.9413,1.9576,1.959,1.9434,1.9149,1.8993,1.8993,1.885,1.882,1.882,1.8918,1.8918,1.882,1.9061,1.9128,1.8993,1.9128,1.9115,1.8972,1.883,1.8674,1.8454,1.8213,1.8267,1.8511,1.8375,1.8498,1.882,1.882,1.882,1.882,3.4523,3.475,3.4949,3.4949,3.5057,3.5191,3.5191,3.1267,2.8307,2.8307,2.4255,2.1384,2.1384,2.1343,2.0763,1.9495,1.9237,1.8664,1.7473,1.7419,1.7514,1.7724,1.7534,1.7419,1.7419,1.7419,1.7419,1.7419,1.7473,1.7527,1.7527,1.7527,1.7527,1.7521,1.7419,1.729,1.7188,1.7148,1.7073,1.6992,1.7087,1.7154,1.7209,1.7365,1.7433,1.7527,1.7561,1.765,1.7792,1.7738,1.7772,1.7915,1.7915,1.7935,1.8057,1.8267,1.8321,1.8335,1.8386,1.8423,1.8332,1.8332,1.8423,1.8511,1.8766,1.882,1.883,1.9081,1.8972,1.8918,1.9237,1.9006,1.8786,1.8698,1.8498,1.8375,1.8267,1.8335,1.8423,1.8511,1.8728,1.8884,1.8972,1.9217,1.9379,1.9374,1.9576,1.959,1.9434,1.9345,1.9203,1.8993,1.8938,1.8929,1.882,1.8816,1.8816,1.882,1.8909,1.8929,1.883,1.8929,1.8929,1.8875,1.8674,1.8565,1.8454,1.8213,1.8267,1.8498,1.8145,1.8357,1.8786,1.8409,1.8498,1.88,3.4269,3.4469,3.4589,3.4589,3.483,3.503,3.503,3.1195,2.8307,2.8307,2.4255,2.1384,2.1384,2.1319,2.0747,1.9495,1.8859,1.8173,1.7473,1.7419,1.7528,1.7772,1.7609,1.7453,1.7453,1.7568,1.7568,1.7453,1.767,1.7738,1.7738,1.7738,1.7738,1.7717,1.7521,1.7426,1.7277,1.7216,1.7141,1.7073,1.7154,1.7229,1.7297,1.7453,1.7514,1.7595,1.7609,1.7704,1.7902,1.7758,1.7792,1.7915,1.7915,1.7935,1.8036,1.8247,1.8321,1.8355,1.844,1.8511,1.8477,1.8423,1.8464,1.8565,1.8728,1.882,1.8909,1.9149,1.9061,1.9027,1.9291,1.9115,1.8905,1.8841,1.8694,1.862,1.8586,1.8654,1.8728,1.8796,1.8952,1.9094,1.9169,1.9325,1.9447,1.9522,1.961,1.9624,1.9522,1.9413,1.9257,1.9081,1.8959,1.8909,1.882,1.882,1.882,1.882,1.882,1.882,1.882,1.8694,1.8674,1.8654,1.8443,1.8355,1.8335,1.8091,1.8145,1.8335,1.8124,1.8301,1.864,1.843,1.8531,1.88,3.4189,3.4255,3.4282,3.4282,3.4549,3.4815,3.4815,3.1259,2.8511,2.835,2.4464,2.165,2.1414,2.1238,2.0652,1.9488,1.8164,1.7439,1.7439,1.7439,1.7453,1.7609,1.7615,1.7609,1.7595,1.7792,1.7792,1.7615,1.7792,1.7915,1.7915,1.7915,1.7915,1.786,1.7717,1.7527,1.7433,1.7277,1.7202,1.7195,1.7209,1.7283,1.7399,1.7527,1.7595,1.7595,1.7792,1.7902,1.7915,1.7915,1.7915,1.7915,1.7915,1.7936,1.799,1.8213,1.8301,1.8355,1.844,1.864,1.8708,1.8586,1.8552,1.8586,1.8786,1.882,1.885,1.9128,1.9183,1.9183,1.9203,1.9183,1.9094,1.883,1.8841,1.883,1.8972,1.9006,1.9061,1.9183,1.9217,1.9271,1.9413,1.9447,1.9501,1.9705,1.9725,1.9725,1.9725,1.9379,1.9217,1.9203,1.8918,1.8841,1.882,1.882,1.882,1.882,1.882,1.882,1.8762,1.8599,1.8474,1.8511,1.8213,1.8091,1.8077,1.7935,1.8004,1.8111,1.8247,1.8332,1.8531,1.8694,1.8742,1.88,3.3601,3.3814,3.3975,3.3975,3.4416,3.4815,3.4815,3.2595,3.0346,2.8511,2.5821,2.3339,2.136,2.1278,2.0787,1.9503,1.8269,1.7548,1.7548,1.7548,1.767,1.7812,1.7812,1.7758,1.7595,1.7792,1.7902,1.7812,1.7902,1.7915,1.7915,1.7915,1.7915,1.7915,1.7826,1.7738,1.7534,1.7439,1.7304,1.7202,1.7324,1.7249,1.7121,1.7446,1.7521,1.7433,1.7595,1.7772,1.7915,1.7915,1.7915,1.7915,1.7915,1.7948,1.8057,1.8124,1.8233,1.8355,1.844,1.8552,1.8599,1.8694,1.8708,1.8728,1.8762,1.882,1.8875,1.8993,1.904,1.9081,1.9183,1.9115,1.9006,1.8959,1.8938,1.8959,1.8993,1.9081,1.9169,1.9203,1.9305,1.9393,1.9374,1.9535,1.9624,1.9725,1.9725,1.9725,1.9725,1.9481,1.9325,1.9203,1.9027,1.8884,1.882,1.882,1.882,1.882,1.882,1.882,1.8762,1.8599,1.8474,1.8511,1.8213,1.8091,1.8077,1.7935,1.8004,1.8091,1.8124,1.8233,1.8332,1.8531,1.8586,1.8599,3.3414,3.3547,3.3708,3.3855,3.4255,3.4603,3.4788,3.3018,3.0834,2.8466,2.6185,2.3856,2.1357,2.1278,2.0905,1.9608,1.8403,1.7758,1.7758,1.7758,1.7792,1.7915,1.7915,1.7826,1.7758,1.7826,1.7826,1.7758,1.7826,1.7915,1.7915,1.7915,1.7915,1.7915,1.7915,1.7792,1.7595,1.7507,1.7439,1.7317,1.7412,1.7385,1.7331,1.7629,1.7704,1.765,1.7717,1.7792,1.7915,1.7915,1.7915,1.7915,1.7915,1.797,1.8002,1.8077,1.8199,1.8355,1.844,1.8586,1.8654,1.8742,1.882,1.882,1.882,1.882,1.883,1.904,1.904,1.9027,1.9183,1.9081,1.8993,1.8993,1.8993,1.904,1.9183,1.9271,1.9345,1.9413,1.9488,1.9535,1.9535,1.9671,1.9684,1.9556,1.9624,1.965,1.9447,1.9359,1.9257,1.9115,1.8959,1.8816,1.8654,1.8728,1.8728,1.8654,1.8728,1.8728,1.8654,1.8498,1.8389,1.8301,1.8077,1.7989,1.8024,1.7956,1.7914,1.7989,1.8057,1.8145,1.8233,1.8375,1.8477,1.8552,3.3414,3.3414,3.3507,3.3828,3.4122,3.4402,3.4643,3.3323,3.1206,2.8333,2.6401,2.4197,2.1362,2.1129,2.0756,1.9687,1.864,1.7977,1.7915,1.7915,1.7915,1.7915,1.7915,1.7915,1.7915,1.7915,1.7812,1.7629,1.7812,1.7915,1.7915,1.7915,1.7915,1.7915,1.7915,1.7792,1.7629,1.7609,1.7521,1.7419,1.7541,1.7575,1.7575,1.7772,1.7826,1.7826,1.7826,1.7846,1.7915,1.7915,1.7915,1.7915,1.7915,1.7915,1.7936,1.8023,1.8145,1.8267,1.8423,1.8565,1.8694,1.8766,1.8742,1.882,1.882,1.882,1.883,1.9081,1.9061,1.9027,1.9149,1.9061,1.8993,1.9027,1.9006,1.9094,1.9333,1.9374,1.9481,1.9705,1.9725,1.9725,1.9725,1.9725,1.959,1.9447,1.9556,1.9501,1.9217,1.9183,1.9115,1.8993,1.8816,1.8674,1.8565,1.8674,1.8654,1.8474,1.8654,1.8654,1.8474,1.8355,1.8213,1.8091,1.7935,1.7915,1.7915,1.7915,1.7915,1.7936,1.8036,1.8077,1.8077,1.8233,1.8389,1.8494,3.3414,3.3414,3.3507,3.3828,3.4122,3.4336,3.4376,3.437,3.274,2.8239,2.7397,2.5613,2.1371,2.0565,2.0139,1.9618,1.8964,1.8412,1.7922,1.7915,1.7915,1.7915,1.7915,1.7915,1.7915,1.7915,1.7902,1.7881,1.7902,1.7915,1.7915,1.7915,1.7915,1.7915,1.7915,1.7902,1.7826,1.7649,1.7575,1.7561,1.7595,1.7514,1.7412,1.7568,1.7629,1.7629,1.7629,1.7758,1.7915,1.7915,1.7915,1.7915,1.7915,1.7915,1.7915,1.7936,1.7914,1.8004,1.8111,1.8267,1.8409,1.8531,1.8654,1.882,1.882,1.882,1.8841,1.8875,1.8918,1.8993,1.9006,1.9006,1.9027,1.9149,1.9081,1.9094,1.9333,1.9374,1.9481,1.9705,1.9725,1.9725,1.9725,1.9725,1.959,1.9447,1.9447,1.9379,1.9217,1.9081,1.9006,1.8993,1.8708,1.862,1.8786,1.862,1.8552,1.8474,1.8552,1.8552,1.8511,1.8247,1.8111,1.8091,1.7935,1.7915,1.7915,1.7915,1.7915,1.7936,1.8036,1.8002,1.7914,1.8077,1.8301,1.8474,3.3414,3.3414,3.3561,3.4042,3.4095,3.4189,3.4523,3.4536,3.2813,2.8038,2.7551,2.5902,2.1383,2.0566,2.0161,1.9632,1.9026,1.8474,1.7922,1.7915,1.7915,1.7915,1.7915,1.7915,1.7915,1.7915,1.7915,1.7915,1.7915,1.7915,1.7915,1.7915,1.7915,1.7915,1.7915,1.7915,1.7902,1.7704,1.7595,1.7595,1.7595,1.7554,1.7507,1.7717,1.7772,1.7772,1.7772,1.7812,1.7915,1.7915,1.7915,1.7915,1.7915,1.7915,1.7915,1.7915,1.797,1.8023,1.8179,1.8321,1.8477,1.862,1.8708,1.882,1.882,1.882,1.8841,1.8929,1.8929,1.8918,1.9081,1.8972,1.8972,1.9271,1.9128,1.9094,1.9333,1.9359,1.9325,1.94,1.9481,1.9535,1.9535,1.9535,1.9468,1.9305,1.9305,1.9203,1.8972,1.8905,1.883,1.8742,1.8474,1.8409,1.8389,1.8409,1.8375,1.8287,1.8287,1.8287,1.8287,1.8145,1.8036,1.7968,1.7956,1.7915,1.7915,1.7915,1.7915,1.7915,1.799,1.797,1.7936,1.8036,1.8179,1.8301]},{"header":{"parameterUnit":"m.s-1","parameterCategory":1,"la1":30.6,"la2":28.766,"lo1":-90.7593,"lo2":-88.6598,"dy":0.0162,"dx":0.0183,"nx":116,"ny":114,"refTime":"2023-04-09T00:00:00:Z","depth":0,"parameterNumber":3,"parameterNumberName":"V-component_of_WINDS"},"data":[0.0,0.0,0.0,0.0,0.0,0.0,0.0,0.0,0.0,0.0,0.0,0.0,0.0,0.0,0.0,0.0,0.0,0.0,0.0,0.0,0.0,0.0,0.0,0.0,0.0,0.0,0.0,0.0,0.0,0.0,0.0,0.0,0.0,0.0,0.0,0.0,0.0,0.0,0.0,0.0,0.0,0.0,0.0,0.0,0.0,0.0,0.0,0.0,0.0,0.0,0.0,0.0,0.0,0.0,0.0,0.0,0.0,0.0,0.0,0.0,0.0,0.0,0.0,0.0,0.0,0.0,0.0,0.0,0.0,0.0,0.0,0.0,0.0,0.0,0.0,0.0,0.0,0.0,0.0,0.0,0.0,0.0,0.0,0.0,0.0,0.0,0.0,0.0,0.0,0.0,0.0,0.0,0.0,0.0,0.0,0.0,0.0,0.0,0.0,0.0,0.0,0.0,0.0,0.0,0.0,0.0,0.0,0.0,0.0,0.0,0.0,0.0,0.0,0.0,0.0,0.0,0.0,0.0,0.0,0.0,0.0,0.0,0.0,0.0,0.0,0.0,0.0,0.0,0.0,0.0,0.0,0.0,0.0,0.0,0.0,0.0,0.0,0.0,0.0,0.0,0.0,0.0,0.0,0.0,0.0,0.0,0.0,0.0,0.0,0.0,0.0,0.0,0.0,0.0,0.0,0.0,0.0,0.0,0.0,0.0,0.0,0.0,0.0,0.0,0.0,0.0,0.0,0.0,0.0,0.0,0.0,0.0,0.0,0.0,0.0,0.0,0.0,0.0,0.0,0.0,0.0,0.0,0.0,0.0,0.0,0.0,0.0,0.0,0.0,0.0,0.0,0.0,0.0,0.0,0.0,0.0,0.0,0.0,0.0,0.0,0.0,0.0,0.0,0.0,0.0,0.0,0.0,0.0,0.0,0.0,0.0,0.0,0.0,0.0,0.0,0.0,0.0,0.0,0.0,0.0,0.0,0.0,0.0,0.0,0.0,0.0,0.0,0.0,0.0,0.0,0.0,0.0,0.0,0.0,0.0,0.0,0.0,0.0,0.0,0.0,0.0,0.0,0.0,0.0,0.0,0.0,0.0,0.0,0.0,0.0,0.0,0.0,0.0,0.0,0.0,0.0,0.0,0.0,0.0,0.0,0.0,0.0,0.0,0.0,0.0,0.0,0.0,0.0,0.0,0.0,0.0,0.0,0.0,0.0,0.0,0.0,0.0,0.0,0.0,0.0,0.0,0.0,0.0,0.0,0.0,0.0,0.0,0.0,0.0,0.0,0.0,0.0,0.0,0.0,0.0,0.0,0.0,0.0,0.0,0.0,0.0,0.0,0.0,0.0,0.0,0.0,0.0,0.0,0.0,0.0,0.0,0.0,0.0,0.0,0.0,0.0,0.0,0.0,0.0,0.0,0.0,0.0,0.0,0.0,0.0,0.0,0.0,0.0,0.0,0.0,0.0,0.0,0.0,0.0,0.0,0.0,0.0,0.0,0.0,0.0,0.0,0.0,0.0,0.0,0.0,0.0,0.0,0.0,0.0,0.0,0.0,0.0,0.0,0.0,0.0,0.0,0.0,0.0,0.0,0.0,0.0,0.0,0.0,0.0,0.0,0.0,0.0,0.0,0.0,0.0,0.0,0.0,0.0,0.0,0.0,0.0,0.0,0.0,0.0,0.0,0.0,0.0,0.0,0.0,0.0,0.0,0.0,0.0,0.0,0.0,0.0,0.0,0.0,0.0,0.0,0.0,0.0,0.0,0.0,0.0,0.0,0.0,0.0,0.0,0.0,0.0,0.0,0.0,0.0,0.0,0.0,0.0,0.0,0.0,0.0,0.0,0.0,0.0,0.0,0.0,0.0,0.0,0.0,0.0,0.0,0.0,0.0,0.0,0.0,0.0,0.0,0.0,0.0,0.0,0.0,0.0,0.0,0.0,0.0,0.0,0.0,0.0,0.0,0.0,0.0,0.0,0.0,0.0,0.0,0.0,0.0,0.0,0.0,0.0,0.0,0.0,0.0,0.0,0.0,0.0,0.0,0.0,0.0,0.0,0.0,0.0,0.0,0.0,0.0,0.0,0.0,0.0,0.0,0.0,0.0,0.0,0.0,0.0,0.0,0.0,0.0,0.0,0.0,0.0,0.0,0.0,0.0,0.0,0.0,0.0,0.0,0.0,0.0,0.0,0.0,0.0,0.0,0.0,0.0,0.0,0.0,0.0,0.0,0.0,0.0,0.0,0.0,0.0,0.0,0.0,0.0,0.0,0.0,0.0,0.0,0.0,0.0,0.0,0.0,0.0,0.0,0.0,0.0,0.0,0.0,0.0,0.0,0.0,0.0,0.0,0.0,0.0,0.0,0.0,0.0,0.0,0.0,0.0,0.0,0.0,0.0,0.0,0.0,0.0,0.0,0.0,0.0,0.0,0.0,0.0,0.0,0.0,0.0,0.0,0.0,0.0,0.0,0.0,0.0,0.0,0.0,0.0,0.0,0.0,0.0,0.0,0.0,0.0,0.0,0.0,0.0,0.0,0.0,0.0,0.0,0.0,0.0,0.0,0.0,0.0,0.0,0.0,0.0,0.0,0.0,0.0,0.0,0.0,0.0,0.0,0.0,0.0,0.0,0.0,0.0,0.0,0.0,0.0,0.0,0.0,0.0,0.0,0.0,0.0,0.0,0.0,0.0,0.0,0.0,0.0,0.0,0.0,0.0,0.0,0.0,0.0,0.0,0.0,0.0,0.0,0.0,0.0,0.0,0.0,0.0,0.0,0.0,0.0,0.0,0.0,0.0,0.0,0.0,0.0,0.0,0.0,0.0,0.0,0.0,0.0,0.0,0.0,0.0,0.0,0.0,0.0,0.0,0.0,0.0,0.0,0.0,0.0,0.0,0.0,0.0,0.0,0.0,0.0,0.0,0.0,0.0,0.0,0.0,0.0,0.0,0.0,0.0,0.0,0.0,0.0,0.0,0.0,0.0,0.0,0.0,0.0,0.0,0.0,0.0,0.0,0.0,0.0,0.0,0.0,0.0,0.0,0.0,0.0,0.0,0.0,0.0,0.0,0.0,0.0,0.0,0.0,0.0,0.0,0.0,0.0,0.0,0.0,0.0,0.0,0.0,0.0,0.0,0.0,0.0,0.0,0.0,0.0,0.0,0.0,0.0,0.0,0.0,0.0,0.0,0.0,0.0,0.0,0.0,0.0,0.0,0.0,0.0,0.0,0.0,0.0,0.0,0.0,0.0,0.0,0.0,0.0,0.0,0.0,0.0,0.0,0.0,0.0,0.0,0.0,0.0,0.0,0.0,0.0,0.0,0.0,0.0,0.0,0.0,0.0,0.0,0.0,0.0,0.0,0.0,0.0,0.0,0.0,0.0,0.0,0.0,0.0,0.0,0.0,0.0,0.0,0.0,0.0,0.0,0.0,0.0,0.0,0.0,0.0,0.0,0.0,0.0,0.0,0.0,0.0,0.0,0.0,0.0,0.0,0.0,0.0,0.0,0.0,0.0,0.0,0.0,0.0,0.0,0.0,0.0,0.0,0.0,0.0,0.0,0.0,0.0,0.0,0.0,0.0,0.0,0.0,0.0,0.0,0.0,0.0,0.0,0.0,0.0,0.0,0.0,0.0,0.0,0.0,0.0,0.0,0.0,0.0,0.0,0.0,0.0,0.0,0.0,0.0,0.0,0.0,0.0,0.0,0.0,0.0,0.0,0.0,0.0,0.0,0.0,0.0,0.0,0.0,0.0,0.0,0.0,0.0,0.0,0.0,0.0,0.0,0.0,0.0,0.0,0.0,0.0,0.0,0.0,0.0,0.0,0.0,0.0,0.0,0.0,0.0,0.0,0.0,0.0,0.0,0.0,0.0,0.0,0.0,0.0,0.0,0.0,0.0,0.0,0.0,0.0,0.0,0.0,0.0,0.0,0.0,0.0,0.0,0.0,0.0,0.0,0.0,0.0,0.0,0.0,0.0,0.0,0.0,0.0,0.0,0.0,0.0,0.0,0.0,0.0,0.0,0.0,0.0,0.0,0.0,0.0,0.0,0.0,0.0,0.0,0.0,0.0,0.0,0.0,0.0,0.0,0.0,0.0,0.0,0.0,0.0,0.0,0.0,0.0,0.0,0.0,0.0,0.0,0.0,0.0,0.0,0.0,0.0,0.0,0.0,0.0,0.0,0.0,0.0,0.0,0.0,0.0,0.0,0.0,0.0,0.0,0.0,0.0,0.0,0.0,0.0,0.0,0.0,0.0,0.0,0.0,0.0,0.0,0.0,0.0,0.0,0.0,0.0,0.0,0.0,0.0,0.0,0.0,0.0,0.0,0.0,0.0,0.0,0.0,0.0,0.0,0.0,0.0,0.0,0.0,0.0,0.0,0.0,0.0,0.0,0.0,0.0,0.0,0.0,0.0,0.0,0.0,0.0,0.0,0.0,0.0,0.0,0.0,0.0,0.0,0.0,0.0,0.0,0.0,0.0,0.0,0.0,0.0,0.0,0.0,0.0,0.0,0.0,0.0,0.0,0.0,0.0,0.0,0.0,0.0,0.0,0.0,0.0,0.0,0.0,0.0,0.0,0.0,0.0,0.0,0.0,0.0,0.0,0.0,0.0,0.0,0.0,0.0,0.0,0.0,0.0,0.0,0.0,0.0,0.0,0.0,0.0,0.0,0.0,0.0,0.0,0.0,0.0,0.0,0.0,0.0,0.0,0.0,0.0,0.0,0.0,0.0,0.0,0.0,0.0,0.0,0.0,0.0,0.0,0.0,0.0,0.0,0.0,0.0,0.0,0.0,0.0,0.0,0.0,0.0,0.0,0.0,0.0,0.0,0.0,0.0,0.0,0.0,0.0,0.0,0.0,0.0,0.0,0.0,0.0,0.0,0.0,0.0,0.0,0.0,0.0,0.0,0.0,0.0,0.0,0.0,0.0,0.0,0.0,0.0,0.0,0.0,0.0,0.0,0.0,0.0,0.0,0.0,0.0,0.0,0.0,0.0,0.0,0.0,0.0,0.0,0.0,0.0,0.0,0.0,0.0,0.0,0.0,0.0,0.0,0.0,0.0,0.0,0.0,0.0,0.0,0.0,0.0,0.0,0.0,0.0,0.0,0.0,0.0,0.0,0.0,0.0,0.0,0.0,0.0,0.0,0.0,0.0,0.0,0.0,0.0,0.0,0.0,0.0,0.0,0.0,0.0,0.0,0.0,0.0,0.0,0.0,0.0,0.0,0.0,0.0,0.0,0.0,0.0,0.0,0.0,0.0,0.0,0.0,0.0,0.0,0.0,0.0,0.0,0.0,0.0,0.0,0.0,0.0,0.0,0.0,0.0,0.0,0.0,0.0,0.0,0.0,0.0,0.0,0.0,0.0,0.0,0.0,0.0,0.0,0.0,0.0,0.0,0.0,0.0,0.0,0.0,0.0,0.0,0.0,0.0,0.0,0.0,0.0,0.0,0.0,0.0,0.0,0.0,0.0,0.0,0.0,0.0,0.0,0.0,0.0,0.0,0.0,0.0,0.0,0.0,0.0,0.0,0.0,0.0,0.0,0.0,0.0,0.0,0.0,0.0,0.0,0.0,0.0,0.0,0.0,0.0,0.0,0.0,0.0,0.0,0.0,0.0,0.0,0.0,0.0,0.0,0.0,0.0,0.0,0.0,0.0,0.0,0.0,0.0,0.0,0.0,0.0,0.0,0.0,0.0,0.0,0.0,0.0,0.0,0.0,0.0,0.0,0.0,0.0,0.0,0.0,0.0,0.0,0.0,0.0,0.0,0.0,0.0,0.0,0.0,0.0,0.0,0.0,0.0,0.0,0.0,0.0,0.0,0.0,0.0,0.0,0.0,0.0,0.0,0.0,0.0,0.0,0.0,0.0,0.0,0.0,0.0,0.0,0.0,0.0,0.0,0.0,0.0,0.0,0.0,0.0,0.0,0.0,0.0,0.0,0.0,0.0,0.0,0.0,0.0,0.0,0.0,0.0,0.0,0.0,0.0,0.0,0.0,0.0,0.0,0.0,0.0,0.0,0.0,0.0,0.0,0.0,0.0,0.0,0.0,0.0,0.0,0.0,0.0,0.0,0.0,0.0,0.0,0.0,0.0,0.0,0.0,6.3321,6.2343,0.0,0.0,0.0,0.0,0.0,0.0,0.0,0.0,0.0,0.0,0.0,0.0,0.0,0.0,0.0,0.0,0.0,0.0,0.0,0.0,0.0,0.0,0.0,0.0,0.0,0.0,0.0,0.0,0.0,0.0,0.0,0.0,0.0,0.0,0.0,0.0,0.0,5.8928,5.9407,5.9664,5.9728,5.9496,5.8985,5.8256,0.0,0.0,0.0,0.0,0.0,0.0,0.0,0.0,0.0,0.0,0.0,0.0,0.0,0.0,0.0,0.0,0.0,0.0,0.0,0.0,0.0,0.0,0.0,0.0,0.0,0.0,0.0,0.0,0.0,0.0,0.0,0.0,0.0,0.0,0.0,0.0,0.0,0.0,0.0,0.0,0.0,0.0,0.0,0.0,0.0,0.0,0.0,0.0,0.0,0.0,0.0,0.0,0.0,0.0,0.0,0.0,0.0,0.0,0.0,0.0,0.0,0.0,0.0,0.0,0.0,0.0,0.0,0.0,0.0,0.0,6.5155,6.3984,0.0,0.0,0.0,0.0,0.0,0.0,0.0,0.0,0.0,0.0,0.0,0.0,0.0,0.0,0.0,0.0,0.0,0.0,0.0,0.0,0.0,0.0,0.0,5.2721,5.3215,5.3409,5.4229,5.4699,0.0,0.0,0.0,0.0,0.0,0.0,5.9143,5.9143,5.929,5.9533,6.0276,6.0627,6.0627,6.1368,6.1016,5.9767,5.9611,0.0,0.0,0.0,0.0,0.0,0.0,0.0,0.0,0.0,0.0,0.0,0.0,0.0,0.0,0.0,0.0,0.0,0.0,0.0,0.0,0.0,0.0,0.0,0.0,0.0,0.0,0.0,0.0,0.0,0.0,0.0,0.0,0.0,0.0,0.0,0.0,0.0,0.0,0.0,0.0,0.0,0.0,0.0,0.0,0.0,0.0,0.0,0.0,0.0,0.0,0.0,0.0,0.0,0.0,0.0,0.0,0.0,0.0,0.0,0.0,0.0,0.0,0.0,6.9529,7.031,7.0309,7.1011,7.105,7.0388,6.8279,6.6873,6.5975,6.5274,0.0,0.0,0.0,0.0,0.0,0.0,0.0,0.0,0.0,0.0,0.0,0.0,0.0,0.0,0.0,0.0,0.0,0.0,0.0,5.2155,5.3619,5.3996,5.4411,5.5101,5.5385,5.5576,5.5706,0.0,0.0,0.0,0.0,0.0,6.0188,6.0188,6.0582,6.1368,6.1485,6.1524,6.1524,6.1641,6.1992,6.2462,6.168,6.1368,6.1368,0.0,0.0,0.0,0.0,0.0,0.0,0.0,0.0,0.0,0.0,0.0,0.0,0.0,0.0,0.0,0.0,0.0,0.0,0.0,0.0,0.0,0.0,0.0,0.0,0.0,0.0,0.0,0.0,0.0,0.0,0.0,0.0,0.0,0.0,0.0,0.0,0.0,0.0,0.0,0.0,0.0,6.3946,6.4804,0.0,0.0,0.0,0.0,0.0,0.0,0.0,0.0,0.0,0.0,0.0,0.0,0.0,6.8981,6.9839,7.1478,7.2337,7.2454,7.3393,7.3822,7.3822,7.3939,7.4369,7.4956,7.4604,0.0,6.777,6.7654,0.0,0.0,0.0,0.0,0.0,0.0,0.0,0.0,0.0,0.0,0.0,0.0,0.0,0.0,0.0,0.0,0.0,0.0,0.0,0.0,0.0,5.5437,5.6136,5.7004,5.7212,5.7321,5.7463,5.7965,0.0,0.0,0.0,6.0237,6.1094,6.1133,6.1563,6.2422,6.1953,6.2187,6.3164,6.2657,6.2891,6.3712,6.3321,6.3164,6.3125,6.2657,0.0,0.0,0.0,0.0,0.0,0.0,0.0,0.0,0.0,0.0,0.0,0.0,0.0,0.0,0.0,0.0,0.0,0.0,0.0,0.0,0.0,0.0,0.0,0.0,0.0,0.0,0.0,0.0,0.0,0.0,0.0,0.0,0.0,0.0,0.0,0.0,0.0,0.0,0.0,6.4492,6.6053,6.5001,6.578,6.5858,0.0,0.0,0.0,0.0,0.0,0.0,0.0,0.0,0.0,7.0426,7.1206,7.1987,7.2846,7.4564,7.5696,7.6203,7.7999,7.8897,7.8897,7.9366,7.9248,7.8703,7.8703,7.6868,7.3744,7.1791,6.9995,6.8279,0.0,0.0,0.0,0.0,6.5038,6.5155,0.0,0.0,0.0,0.0,0.0,0.0,0.0,0.0,0.0,0.0,0.0,0.0,5.5817,5.6685,5.7549,5.8264,5.8433,5.8582,5.8742,5.9031,5.9582,6.0351,6.0627,6.1055,6.168,6.1914,6.2343,6.3008,6.2579,6.3047,6.4298,6.3634,6.379,6.4649,6.4649,6.4493,6.4259,6.3595,6.3321,6.3282,0.0,0.0,0.0,0.0,0.0,0.0,0.0,0.0,0.0,0.0,0.0,0.0,0.0,0.0,0.0,0.0,0.0,0.0,0.0,0.0,0.0,0.0,0.0,0.0,0.0,0.0,0.0,0.0,0.0,0.0,0.0,0.0,0.0,0.0,0.0,0.0,0.0,6.6756,6.8122,6.6484,6.8318,6.8903,0.0,0.0,0.0,0.0,0.0,0.0,7.0974,7.2065,7.3354,7.4875,7.5577,7.6281,7.714,7.8858,8.0068,8.0732,8.2684,8.358,8.3619,8.4206,8.3699,8.2295,8.2295,8.1319,7.9406,7.5774,7.3391,7.1753,6.9372,6.8083,6.7537,6.7303,6.7224,6.742,0.0,0.0,0.0,0.0,0.0,0.0,0.0,0.0,0.0,0.0,0.0,5.5753,5.6647,5.7577,5.8209,5.8361,5.847,5.861,5.8868,5.9663,6.021,6.039,6.1172,6.1641,6.1719,6.25,6.2969,6.3008,6.379,6.422,6.4298,6.4259,6.4688,6.5546,6.5546,6.5077,6.4298,6.4259,6.422,6.422,6.4181,0.0,0.0,0.0,0.0,0.0,0.0,0.0,0.0,0.0,0.0,0.0,0.0,0.0,0.0,0.0,0.0,0.0,0.0,0.0,0.0,0.0,0.0,0.0,0.0,0.0,0.0,0.0,0.0,0.0,0.0,0.0,0.0,0.0,0.0,0.0,0.0,0.0,0.0,7.1519,7.3119,0.0,0.0,0.0,0.0,7.2845,7.3666,7.4525,7.5424,7.7103,7.8429,7.9366,8.1747,8.3386,8.4283,8.6,8.6898,8.6937,8.7093,8.7133,8.7133,8.7172,8.6703,8.5846,8.5846,8.4831,8.2918,7.8663,7.636,7.5385,7.3666,7.2962,7.2806,7.1987,7.1675,7.1675,0.0,0.0,0.0,0.0,0.0,0.0,0.0,0.0,5.4317,5.5709,5.621,5.6931,5.8313,5.893,5.9466,6.0007,6.0183,6.0345,6.055,6.0869,6.1105,6.1248,6.1524,6.1953,6.254,6.3399,6.4103,6.4687,6.4415,6.4844,6.5898,6.5391,6.5585,6.6405,6.6951,6.7342,6.746,6.5819,6.5155,6.5077,6.4532,6.4103,0.0,0.0,0.0,0.0,0.0,0.0,0.0,0.0,0.0,0.0,0.0,0.0,0.0,0.0,0.0,0.0,0.0,0.0,0.0,0.0,0.0,0.0,0.0,0.0,0.0,0.0,0.0,0.0,0.0,0.0,0.0,0.0,0.0,0.0,0.0,0.0,0.0,7.6088,7.8585,0.0,7.839,7.7453,7.7335,7.8194,7.9522,8.0654,8.1552,8.323,8.4322,8.4634,8.608,8.7017,8.7329,8.9047,8.9906,8.9906,9.0413,9.0413,8.9906,8.9906,8.9125,8.7759,8.7759,8.6783,8.5026,8.2918,8.0927,7.8938,7.6633,7.5735,7.5657,7.476,7.4448,7.4526,0.0,0.0,0.0,0.0,0.0,0.0,0.0,0.0,5.527,5.6662,5.717,5.7907,5.9306,5.9889,6.0565,6.1445,6.1645,6.1821,6.2,6.2005,6.1911,6.1716,6.1992,6.254,6.3438,6.4298,6.5038,6.5585,6.5274,6.5703,6.6796,6.6249,6.6444,6.7264,6.7849,6.8591,6.9295,6.7615,6.7068,6.7224,6.6367,6.5664,6.5001,0.0,0.0,0.0,0.0,0.0,0.0,0.0,0.0,0.0,0.0,0.0,0.0,0.0,0.0,0.0,0.0,0.0,0.0,0.0,0.0,0.0,0.0,0.0,0.0,0.0,0.0,0.0,0.0,0.0,0.0,0.0,0.0,0.0,0.0,7.6086,7.9834,8.0109,8.3427,8.5143,8.3738,8.3347,8.3426,8.3974,8.5338,8.6392,8.6976,8.8343,8.9125,8.9125,8.9984,9.0413,9.0413,9.1858,9.2561,9.26,9.3107,9.3107,9.2561,9.2561,9.1624,8.9984,8.9984,8.8852,8.69,8.6039,8.4673,8.2879,7.999,7.8663,7.835,7.7766,7.7376,7.722,0.0,0.0,0.0,0.0,0.0,0.0,5.5352,5.5638,5.6036,5.6901,5.7842,5.8721,5.9446,6.0416,6.1397,6.2422,6.2683,6.2863,6.3044,6.3047,6.2657,6.1836,6.2618,6.3477,6.4337,6.5194,6.5663,6.5663,6.6445,6.6835,6.6874,6.6835,6.7303,6.8121,6.816,6.8669,6.9529,6.9529,7.0035,7.0776,6.9801,6.8436,6.6913,0.0,0.0,0.0,0.0,0.0,0.0,0.0,0.0,0.0,0.0,0.0,0.0,0.0,0.0,0.0,0.0,0.0,0.0,0.0,0.0,0.0,0.0,0.0,0.0,0.0,0.0,0.0,0.0,0.0,0.0,0.0,0.0,0.0,7.4954,7.9248,8.284,8.3738,8.7604,8.9908,8.9086,8.975,9.0259,9.0259,9.1038,9.1546,9.1507,9.2248,9.2679,9.2679,9.3497,9.3966,9.3966,9.4825,9.5254,9.5215,9.5215,9.5176,9.5137,9.5137,9.42,9.2562,9.2562,9.1116,8.8735,8.7835,8.7445,8.7054,8.3697,8.1864,8.1124,8.1085,8.0498,7.9756,0.0,0.0,0.0,0.0,0.0,0.0,5.5429,5.6109,5.6861,5.7632,5.8587,5.949,6.0232,6.0814,6.1492,6.2433,6.2788,6.3227,6.3906,6.3946,6.3829,6.3595,6.4414,6.4999,6.5234,6.6053,6.6795,6.7418,6.699,6.746,6.867,6.8044,6.82,6.9059,6.9684,7.0815,7.222,7.222,7.308,7.4175,7.1441,7.0074,6.9645,0.0,0.0,0.0,0.0,0.0,0.0,0.0,0.0,0.0,0.0,0.0,0.0,0.0,0.0,0.0,0.0,0.0,0.0,0.0,0.0,0.0,0.0,0.0,0.0,0.0,0.0,0.0,0.0,0.0,0.0,0.0,7.8469,8.1083,8.0302,8.4089,8.8188,9.1507,9.3537,9.5059,9.6072,9.5801,9.5567,9.5567,9.6386,9.6621,9.5957,9.6738,9.6933,9.6308,9.7128,9.7556,9.7556,9.8416,9.8533,9.7948,9.7948,9.7284,9.6035,9.6035,9.5449,9.4356,9.3732,9.2678,9.135,8.9906,8.854,8.7172,8.4985,8.397,8.3699,8.3035,8.1903,8.0732,0.0,0.0,0.0,0.0,0.0,0.0,5.5935,5.6502,5.7294,5.8394,5.9116,5.9906,6.0981,6.1452,6.2217,6.3425,6.3897,6.4297,6.4805,6.4493,6.4454,6.4844,6.5312,6.5741,6.6092,6.6912,6.7576,6.8082,6.7966,6.8397,6.9412,6.9255,6.9645,7.0504,7.1011,7.2182,7.3782,7.343,7.4251,7.5619,7.3627,7.2417,7.1752,7.1363,7.0933,7.0505,7.0505,7.0816,7.1167,7.066,0.0,0.0,0.0,0.0,0.0,0.0,0.0,0.0,0.0,0.0,0.0,0.0,0.0,0.0,0.0,0.0,0.0,0.0,0.0,0.0,0.0,0.0,0.0,0.0,8.3076,8.6705,8.803,9.0023,9.2561,9.5801,9.7284,9.8572,9.9939,9.9588,9.9158,9.8807,9.99,10.0212,9.9353,10.0095,10.0407,9.9861,10.029,10.0601,10.0601,10.0681,10.0485,10.0017,9.9705,9.8805,9.7517,9.787,9.7167,9.5645,9.5488,9.4747,9.346,9.1742,9.0452,8.9281,0.0,0.0,0.0,0.0,8.3113,8.2567,0.0,0.0,0.0,0.0,0.0,0.0,5.6563,5.6869,5.758,5.907,5.948,6.0181,6.1626,6.2055,6.2928,6.4674,6.5192,6.5496,6.5738,6.4999,6.4961,6.5858,6.5897,6.6249,6.707,6.7849,6.8277,6.8394,6.9176,6.9645,6.984,7.0621,7.1441,7.226,7.226,7.3158,7.4603,7.3861,7.4486,7.5932,7.5853,7.4915,7.3508,7.2729,7.2417,7.2417,7.2417,7.2534,7.269,7.2612,0.0,0.0,0.0,0.0,0.0,0.0,0.0,0.0,0.0,0.0,0.0,0.0,0.0,0.0,0.0,0.0,0.0,0.0,0.0,0.0,0.0,0.0,0.0,0.0,8.8073,9.2326,9.6542,9.6621,9.6855,9.8377,9.9861,10.111,10.201,10.2088,10.1815,10.111,10.2515,10.2984,10.2283,10.2984,0.0,0.0,0.0,10.3218,10.3101,10.2281,10.1815,10.1619,10.0915,10.0017,9.9039,9.99,9.8963,9.6736,9.7401,9.6816,9.5254,9.3499,9.2758,9.2326,8.8889,8.6547,8.4985,8.4128,8.4206,8.4595,0.0,0.0,0.0,0.0,0.0,0.0,5.6499,5.7264,5.8094,5.9004,5.985,6.0713,6.1617,6.1339,6.1823,6.3567,6.4033,6.4897,6.6462,6.6399,6.6718,6.7576,6.7614,6.8005,6.8865,6.9059,6.9489,7.019,7.0385,7.1166,7.2532,7.2728,7.3235,7.4017,7.4017,7.4603,7.5541,7.5385,7.5891,7.6789,7.6088,7.5619,7.5307,7.5112,7.5073,7.5073,7.5073,7.5971,7.7064,7.636,7.6594,7.7025,7.6125,7.5384,0.0,0.0,0.0,0.0,0.0,0.0,0.0,0.0,0.0,0.0,0.0,0.0,0.0,0.0,0.0,0.0,0.0,0.0,0.0,9.0103,9.381,9.744,10.111,10.2593,10.3491,10.3882,10.3608,10.4001,10.5482,10.5719,10.5599,10.5482,10.6419,10.6888,10.681,10.6888,10.6693,10.599,10.5912,10.5599,10.4897,10.4702,10.3882,10.2515,10.2398,0.0,9.9039,9.99,9.9627,9.8453,9.7948,9.7518,9.705,9.5332,9.4161,9.3224,8.9789,8.7796,8.6781,8.5924,8.526,8.4751,0.0,0.0,0.0,0.0,0.0,0.0,5.7052,5.7652,5.8385,5.9574,6.0203,6.0772,6.1573,6.1508,6.1935,6.3246,6.3985,6.4807,6.5789,6.6717,6.7459,6.7937,6.8873,6.9598,7.0035,7.0894,7.1558,7.1986,7.2415,7.3041,7.39,7.4369,7.4759,7.5151,7.5151,7.5619,7.6438,7.5971,7.6283,7.7101,7.7103,7.7103,7.7064,7.6634,7.6984,7.7765,7.7765,7.8311,7.9053,7.9053,7.9326,7.9595,7.908,7.8286,7.7508,0.0,0.0,0.0,0.0,0.0,0.0,0.0,0.0,0.0,0.0,0.0,0.0,0.0,0.0,8.1122,8.3738,0.0,9.1233,9.5137,9.9002,10.2593,10.5599,10.7512,10.8098,10.6888,10.6302,10.6614,10.7903,10.7981,10.7786,10.7395,10.8918,10.9699,10.9306,10.9699,10.9699,10.9308,10.8801,10.841,10.802,10.6693,10.5795,10.5404,10.4116,10.2789,10.1618,10.1618,10.0915,9.9627,9.9197,9.8768,9.826,9.6933,9.5645,9.4278,9.2561,9.0843,8.9202,8.7876,8.7407,8.729,0.0,0.0,0.0,0.0,0.0,0.0,0.0,5.8039,5.8689,6.0186,6.0415,6.0721,6.1516,6.164,6.2136,6.3178,6.4062,6.482,6.5355,6.6819,6.7875,6.8446,6.9954,7.0992,7.1335,7.2745,7.3488,7.3488,7.4464,7.4925,7.4909,7.577,7.6277,7.6431,7.6277,7.6597,7.7275,7.6729,7.6817,7.7412,7.8258,7.8682,7.8758,7.8037,7.8626,7.989,7.989,7.9996,8.0216,8.0881,8.1232,8.1373,8.1384,8.0918,8.0143,7.9272,7.8668,0.0,0.0,0.0,0.0,0.0,0.0,0.0,0.0,7.7688,7.8547,8.1161,8.3074,8.5377,8.9006,9.2754,9.6542,10.0405,10.3999,10.7317,10.9894,11.1494,11.1611,10.9699,10.9191,10.9308,11.0206,11.0284,11.0011,10.9308,11.1299,11.2314,11.1494,11.2197,11.2392,11.208,11.1416,11.0789,11.0516,10.8293,10.7512,10.802,10.5717,10.4391,10.4118,10.3491,10.2515,10.0993,10.0915,10.0212,9.9195,9.8299,9.7128,9.5801,9.5488,9.4083,9.2092,9.0335,8.9945,9.0064,0.0,0.0,0.0,0.0,0.0,0.0,0.0,0.0,5.93,6.0262,6.0415,6.0721,6.1516,6.0985,6.1274,6.3051,6.3388,6.453,6.6947,6.7327,6.8449,7.0733,7.1072,7.2003,7.3697,7.4038,7.4208,7.4208,7.5764,7.6443,7.6306,7.7161,7.7978,7.8712,7.7939,7.7714,7.8024,7.869,7.8713,7.8307,7.9008,7.9745,8.0396,8.0143,8.0259,8.0602,8.0602,8.095,8.1489,8.1606,8.2107,8.2837,8.3587,8.3728,8.3485,8.2631,8.1247,7.9641,7.8034,7.7645,7.7869,7.8656,7.9511,8.0786,0.0,8.4401,8.569,8.8307,9.0181,9.2678,9.6931,9.9314,10.2283,10.7317,10.9191,11.0789,11.3485,11.3993,11.4305,11.4813,11.3487,11.29,11.368,11.3798,11.3798,11.3719,11.4695,11.5205,11.5086,11.5205,11.462,11.3019,11.2902,11.208,11.0516,10.9503,10.8684,10.802,10.6888,10.5601,10.4118,10.4819,10.4584,10.361,10.2906,10.1618,10.0095,9.9195,9.8727,9.8414,9.6853,9.6072,9.5604,9.3888,9.2365,9.1116,0.0,0.0,0.0,0.0,0.0,0.0,0.0,0.0,5.9408,6.03,6.0415,6.0721,6.1516,6.1745,6.2177,6.2953,6.3499,6.4525,6.6128,6.7734,6.9307,7.0919,7.2545,7.4078,7.5348,7.5918,7.6484,7.7049,7.7753,7.8077,7.8028,7.8378,7.8494,7.8344,7.8494,7.8306,7.7992,7.8847,7.9041,7.8861,7.9656,8.0213,8.0559,8.0988,8.082,8.0398,8.0638,8.08,0.0,8.1668,8.2025,8.2422,8.3646,8.3673,8.3202,8.2848,8.2115,8.1247,8.0123,8.0299,8.0873,8.1338,8.2829,8.4635,8.6265,8.7293,8.8655,9.1276,9.3535,9.6222,10.0003,10.2885,10.6005,10.9714,11.1912,11.3808,11.5407,11.6217,11.6608,11.6491,11.6296,11.5908,11.5203,11.5203,11.5203,11.5203,11.5984,11.6491,11.6491,11.6491,11.6101,11.5398,11.4893,11.3993,11.2783,11.1416,11.0596,11.0206,10.8918,10.7786,10.7083,10.6497,10.5404,10.4118,10.3687,10.2906,10.1696,10.1383,10.0603,9.9627,9.8414,9.7907,9.7634,9.5371,9.4122,9.3497,0.0,0.0,0.0,0.0,0.0,0.0,0.0,0.0,0.0,0.0,6.0415,6.0721,6.1516,6.2388,6.2999,6.3236,6.3854,6.4657,6.5681,6.8047,6.9994,7.1343,7.3838,7.5695,7.6846,7.7539,7.8187,7.8845,7.9344,7.9565,7.9587,7.983,7.9725,7.9377,7.9781,7.967,7.9184,8.0037,8.0189,7.9849,8.0694,8.0868,8.0707,8.1037,8.0674,8.0067,8.0425,8.027,8.004,8.1047,8.1466,8.1813,8.3321,8.3564,8.3171,8.2964,8.2468,8.2024,8.2238,8.2864,8.3706,8.4688,8.6677,8.8633,8.9543,9.0763,9.236,9.4746,9.6881,9.945,10.3107,10.5792,10.8517,11.1514,11.3784,11.5492,11.6582,11.7486,11.768,11.6899,11.7293,11.7215,11.5885,11.6186,11.6415,11.6415,11.6999,11.7389,11.7389,11.7389,11.7194,11.6999,11.6413,11.5593,11.4813,11.3017,11.2197,11.208,11.0401,10.9607,10.95,10.8097,10.6596,10.5,10.5,10.4294,10.328,10.2815,10.1918,10.0706,9.9575,9.9146,9.8912,9.7001,9.5951,9.5449,0.0,0.0,0.0,0.0,0.0,0.0,0.0,0.0,0.0,0.0,0.0,0.0,6.1516,6.2388,6.3236,6.4084,6.416,6.4886,6.656,6.8249,7.032,7.2813,7.4618,7.6439,7.8286,7.8427,7.85,7.8507,8.019,8.0931,8.0758,8.1678,8.2526,8.3187,8.2508,8.2283,8.2497,8.3393,8.2875,8.1582,8.2259,8.2051,8.1259,8.0242,7.9838,7.9838,8.0042,7.9468,7.8707,7.9553,8.0438,8.1393,8.3078,8.4186,8.464,8.3809,8.2408,8.167,8.414,8.4802,8.5652,8.9103,9.1315,9.2907,9.3945,9.6144,9.8413,10.0194,10.1293,10.3202,10.7404,10.8297,10.9695,11.4014,11.4804,11.5393,11.7102,11.7388,11.7083,11.619,11.6196,11.6112,11.6118,11.7398,11.8209,11.8209,11.8209,11.8287,11.8287,11.8287,11.7897,11.6999,11.6999,11.6491,11.5713,11.3917,11.3097,11.3019,11.1299,11.0305,11.0117,10.9794,10.8704,10.7117,10.7117,10.6101,10.4386,10.2799,10.2099,10.1905,10.0196,9.9496,9.9496,9.938,9.8081,9.6345,0.0,0.0,0.0,0.0,0.0,0.0,0.0,0.0,0.0,0.0,0.0,0.0,0.0,0.0,0.0,0.0,6.4993,6.5719,6.74,6.8585,7.0342,7.2902,7.4074,7.5757,7.8096,7.816,7.8738,7.9871,8.0485,8.1035,8.1589,8.1922,8.2207,8.2485,8.2847,8.2753,8.2355,8.2686,8.3191,8.3656,8.2174,8.2099,8.2708,8.1216,7.9939,7.8953,0.0,7.8457,7.786,7.8815,7.9261,7.9677,8.14,8.2131,8.2324,8.2016,8.2747,8.3824,8.4662,8.7363,9.0505,9.2811,9.5118,9.7149,9.8631,10.0093,10.1307,10.1886,10.1817,10.2212,10.419,10.5512,10.7211,11.0416,11.2909,11.5111,11.6893,11.7816,11.751,11.5496,11.6319,11.6513,11.5302,11.6207,11.7078,11.7701,11.8197,11.8314,11.7701,11.8319,11.8197,11.7307,11.7307,11.68,11.6017,11.5394,11.4805,11.4182,11.2508,11.1605,11.1488,10.9694,10.8491,10.7986,10.741,10.6516,10.5384,10.4918,10.3908,10.2814,10.1688,10.0917,10.0295,9.9707,9.9068,9.8372,0.0,0.0,0.0,0.0,0.0,0.0,0.0,0.0,0.0,0.0,0.0,0.0,0.0,0.0,0.0,0.0,0.0,6.5987,6.7362,6.8547,7.019,7.2452,7.359,7.5263,7.7487,7.7526,7.8241,7.968,8.0254,8.0864,8.1492,8.2141,8.2427,8.2465,8.306,8.3065,8.2613,8.2704,8.3206,8.3783,8.1885,8.1554,8.2054,8.0362,7.9054,0.0,7.8061,7.7753,7.7436,7.8391,7.8599,7.8792,8.0554,8.1093,8.1285,8.2208,8.3632,8.5354,8.7478,9.0671,9.4027,9.6596,9.8942,10.0981,10.2289,10.3097,10.3482,10.3482,10.2289,10.1597,10.2404,10.3212,10.4482,10.6713,10.989,11.2792,11.5109,11.6404,11.6589,11.5496,11.6085,11.621,11.5117,11.5512,11.6314,11.7309,11.7905,11.8015,11.74,11.8209,11.8287,11.74,11.7711,11.74,11.6616,11.6305,11.5716,11.4784,11.3315,11.2605,11.252,11.0391,10.9291,10.8981,10.8214,10.7285,10.651,10.5891,10.5,10.3908,10.3095,10.2397,10.1817,10.1306,10.088,10.0412,0.0,0.0,0.0,0.0,0.0,0.0,0.0,0.0,0.0,0.0,0.0,0.0,0.0,0.0,0.0,0.0,0.0,0.0,6.6705,6.8241,6.9884,7.1612,7.3208,7.4851,7.6532,7.657,7.6991,7.787,7.9513,8.0315,8.0391,8.2176,8.3025,8.3064,8.3134,8.3179,8.3187,8.3274,8.2855,8.2125,8.1284,8.0508,7.9662,7.8015,7.7369,7.7369,7.7369,7.7369,7.7484,7.8292,7.8638,7.8984,8.0669,8.1285,8.1823,8.4316,8.5162,8.6594,9.221,9.4566,9.6374,10.0519,10.2789,10.4289,10.5097,10.53,10.5223,10.5107,10.2904,10.1279,10.202,10.1597,10.1712,10.3482,10.6097,10.9098,11.2522,11.3714,11.4791,11.6418,11.5907,11.5495,11.5407,11.5407,11.5996,11.7394,11.7514,11.7514,11.7398,11.8316,11.8393,11.7514,11.8199,11.8316,11.7398,11.6614,11.5714,11.4892,11.3706,11.3111,11.3093,11.2017,11.0983,11.0186,10.929,10.8482,10.7598,10.5982,10.5213,10.5107,10.4289,10.3982,10.3905,10.3905,10.3405,10.2395,0.0,0.0,0.0,0.0,0.0,0.0,0.0,0.0,0.0,0.0,0.0,0.0,0.0,0.0,0.0,0.0,0.0,0.0,6.7515,6.7981,6.9281,7.1612,7.2108,7.3132,7.4813,7.4842,7.5271,7.6159,7.7182,7.7984,7.8672,7.9779,8.0629,8.1202,8.1303,8.1348,8.1318,8.0763,8.115,8.1935,7.9897,7.9691,8.0429,7.88,7.8176,7.8176,7.8176,7.8176,7.833,7.9169,8.0285,8.1524,8.2639,8.3824,8.5093,8.6363,8.8979,9.1941,9.4066,9.7605,10.1212,10.3597,10.5405,10.6905,10.7713,10.7482,10.6482,10.4597,10.1096,9.7942,9.6288,9.7326,9.9442,10.2404,10.7213,11.1895,11.5896,11.7292,11.7715,11.7484,11.7907,11.7907,11.7215,11.7215,11.7584,11.8589,11.8715,11.8407,11.7712,11.9101,11.9487,11.8715,11.8291,11.7905,11.7712,11.6786,11.6285,11.6015,11.4515,11.3808,11.3682,11.1498,11.0406,11.0186,10.929,10.879,10.8598,10.8098,10.7213,10.602,10.5779,10.4982,10.3905,10.3905,10.3789,10.3511,0.0,0.0,0.0,0.0,0.0,0.0,0.0,0.0,0.0,0.0,0.0,0.0,0.0,0.0,0.0,0.0,0.0,0.0,0.0,6.8249,6.9273,7.1068,7.1145,7.1756,7.3055,7.3093,7.3896,7.5509,7.5968,7.68,7.8022,7.8481,7.8978,7.9398,7.9491,7.9518,7.9489,7.905,7.9438,0.0,0.0,7.8343,7.9034,7.7746,7.7531,7.7916,7.83,7.8954,7.9831,8.1054,8.2362,8.3593,8.4439,8.6094,8.8085,8.9671,9.2402,9.5365,9.7711,10.0991,10.4097,10.579,10.7482,10.8482,10.7482,10.6905,10.5597,10.2289,9.8557,9.5403,9.3941,9.5172,9.7403,10.0404,10.5597,11.0906,11.5484,11.6907,11.7792,11.8792,11.8985,11.8908,11.8407,11.8407,11.86,11.91,11.91,11.8985,11.8908,11.9792,12.01,11.96,11.9215,11.8523,11.7792,11.7292,11.6907,11.6495,11.5215,11.4599,11.4484,11.2291,11.1291,11.1214,10.9983,10.9483,10.9406,10.8713,10.8021,10.7521,10.7098,10.6405,10.5597,10.5597,10.529,10.4982,0.0,0.0,0.0,0.0,0.0,0.0,0.0,0.0,0.0,0.0,0.0,0.0,0.0,0.0,0.0,0.0,0.0,0.0,0.0,0.0,6.9425,7.0372,7.0411,7.0763,7.1497,7.165,7.2796,7.5013,7.5204,7.6074,7.7487,7.7602,7.7678,7.7678,7.7678,7.7678,7.7678,7.7729,7.7764,7.7696,7.707,7.6796,7.672,0.0,7.6306,7.7311,7.8359,7.9753,8.14,8.3293,8.4439,8.5239,8.6401,8.8585,9.124,9.3672,9.5788,9.8134,10.1904,10.4289,10.6213,10.779,10.929,10.9483,10.6213,10.5107,10.3597,9.9481,9.5903,9.3518,9.3403,9.4181,9.5797,9.8827,10.3405,10.8521,11.3907,11.5291,11.6984,12.0292,11.9985,11.96,11.9792,11.9792,11.9792,11.9792,11.9792,11.9985,12.0408,12.06,12.0485,12.0292,12.0408,11.96,11.7792,11.7792,11.7407,11.6495,11.5687,11.5291,11.5215,11.3599,11.2906,11.2791,11.1291,11.0598,11.0406,10.8983,10.8598,10.8983,10.829,10.7982,10.779,10.7713,10.7213,10.6587,0.0,0.0,0.0,0.0,0.0,0.0,0.0,0.0,0.0,0.0,6.0288,6.2419,0.0,0.0,0.0,0.0,0.0,0.0,0.0,0.0,0.0,7.0334,7.0411,7.0487,7.061,7.1344,7.1917,7.2376,7.3743,7.4584,7.4881,7.5577,7.593,7.593,7.593,7.593,7.593,7.5947,7.5956,7.5926,7.5859,7.5854,7.5824,7.5745,7.6689,0.0,7.9895,8.0752,8.1554,8.4632,8.5786,8.6401,8.9402,9.2556,9.5557,9.7365,10.0096,10.2904,10.4289,10.6905,10.9598,11.0598,11.1098,11.0598,10.7905,10.5097,10.202,9.8442,9.5057,9.2479,9.1787,9.2903,9.5672,10.1096,10.5097,11.0021,11.7215,11.8292,11.9408,12.21,12.2293,12.2485,12.3216,12.3216,12.3216,12.3216,12.3216,12.2716,12.1408,12.21,12.1793,12.0292,12.0985,12.0216,11.7792,11.7792,11.7407,11.6495,11.5687,11.5291,11.5303,11.4214,11.3791,11.3791,11.3483,11.2906,11.2214,11.1983,11.1098,10.9993,10.979,10.929,10.8598,10.7905,10.7598,10.7521,0.0,0.0,0.0,0.0,0.0,0.0,0.0,5.7916,5.829,5.9134,5.9915,6.105,6.2695,6.3598,6.4379,0.0,0.0,0.0,0.0,0.0,0.0,6.9731,7.0181,7.0411,7.0411,7.1259,7.2147,7.3017,0.0,7.4651,7.5501,7.5509,7.5509,7.5509,7.5509,7.5509,7.5509,7.5509,7.5509,7.5518,7.5553,7.5532,7.554,7.5583,7.6658,0.0,8.0115,8.0838,8.1375,8.3912,8.5945,8.8055,9.1441,9.4864,9.7865,9.9096,10.1914,10.4905,10.6597,10.8906,11.1214,11.2483,11.1791,10.9906,10.6482,10.3097,9.9635,9.6211,9.321,9.1441,9.2326,9.3172,9.5211,9.9865,10.3482,10.8098,11.4791,11.6907,11.8985,12.2485,12.3293,12.3716,12.4101,12.4101,12.4101,12.4101,12.4486,12.4409,12.3601,12.3485,12.2908,12.1716,12.16,12.0793,11.91,11.91,11.8484,11.7215,11.6792,11.6407,11.5918,11.5099,11.4714,11.4714,11.4214,11.3483,11.2714,11.2203,11.1598,11.0791,11.0406,10.9906,10.9483,10.9098,10.8713,10.829,0.0,0.0,0.0,0.0,0.0,0.0,0.0,5.7857,5.8475,5.9894,5.9576,5.9642,6.0815,6.232,6.3542,0.0,0.0,0.0,0.0,0.0,0.0,0.0,0.0,0.0,7.0411,0.0,0.0,7.3925,7.4116,0.0,0.0,0.0,0.0,0.0,7.5509,7.5509,7.5509,7.5509,7.5509,0.0,0.0,7.5509,7.5548,0.0,0.0,0.0,0.0,8.0737,8.1195,8.3099,8.5587,8.844,9.1577,9.5432,9.8942,9.9606,10.2607,10.6097,10.829,11.0598,11.2599,11.3907,11.2214,10.9098,10.5107,10.1096,9.7442,9.4557,9.1787,9.0663,9.321,9.3403,9.4326,9.7942,10.0904,10.5097,11.1522,11.4599,11.7907,12.2408,12.3793,12.4486,12.4601,12.4716,12.4716,12.4716,12.5293,12.5486,12.5101,12.4601,12.3793,12.2716,12.21,12.1408,12.0292,12.0292,11.96,11.81,11.7907,11.7407,11.6803,11.5907,11.561,11.5484,11.4791,11.3984,11.3214,11.2599,11.2099,11.1703,11.0983,11.0598,11.0483,11.0291,10.979,10.9213,0.0,0.0,0.0,0.0,0.0,0.0,0.0,5.7631,5.8115,5.903,5.9162,5.9501,6.0369,6.1647,6.2604,0.0,0.0,0.0,0.0,0.0,0.0,0.0,0.0,0.0,0.0,0.0,0.0,7.3093,7.3858,0.0,0.0,0.0,0.0,0.0,0.0,7.5509,7.5509,7.5509,0.0,0.0,0.0,0.0,0.0,0.0,0.0,0.0,0.0,8.0737,8.1264,8.3674,8.4835,8.5692,8.82,9.3502,9.8827,9.8913,10.2981,10.7713,10.8598,11.1906,11.4984,11.5099,11.2686,10.9301,10.58,10.0596,9.6211,9.5104,9.221,9.0663,9.321,9.2441,9.2787,9.6942,9.8557,10.2212,11.0395,11.3791,11.7292,12.2293,12.4293,12.5601,12.6421,12.6498,12.6498,12.6498,12.6486,12.5909,12.4293,12.4909,12.4178,12.1804,12.2408,12.1985,12.0292,12.0292,11.9908,11.8985,11.8215,11.7792,11.7715,11.6792,11.6418,11.6418,11.6303,11.5792,11.511,11.4984,11.3984,11.2599,11.2522,11.2022,11.1291,11.0483,11.0098,11.0109,0.0,0.0,0.0,0.0,0.0,0.0,5.74,5.7547,5.7947,5.8775,5.8567,5.865,5.9492,6.0513,6.1522,6.2449,0.0,0.0,0.0,0.0,0.0,0.0,0.0,0.0,0.0,0.0,7.2147,7.2979,7.3819,0.0,0.0,0.0,0.0,0.0,0.0,7.4736,7.4736,7.4736,0.0,0.0,0.0,0.0,0.0,0.0,0.0,0.0,0.0,0.0,8.0873,8.1872,8.3332,8.4712,8.469,8.8345,9.3224,9.6385,10.0789,10.5405,10.879,11.2406,11.5291,11.5291,11.1983,10.8098,10.5597,10.0481,9.6211,9.5865,9.3864,9.2672,9.422,9.3095,9.2672,9.4864,9.548,9.798,10.452,10.7098,11.1291,11.8908,12.0908,12.2908,12.6421,12.669,12.669,12.669,12.669,12.6178,12.4909,12.5216,12.4909,12.3909,12.3216,12.2601,12.1908,12.1293,12.0408,11.91,11.9215,11.8484,11.6984,11.7215,11.6984,11.6495,11.6495,11.5995,11.5291,11.5291,11.4599,11.3483,11.3483,11.3291,11.2983,11.2599,11.2483,11.2483,0.0,0.0,0.0,0.0,0.0,5.7326,5.7326,5.7449,5.7814,5.8652,5.8178,5.8103,5.8896,5.9858,6.0746,6.1658,6.2692,0.0,0.0,0.0,0.0,0.0,0.0,0.0,0.0,0.0,7.1871,7.2979,7.3552,7.4393,0.0,0.0,7.5042,7.4193,0.0,0.0,0.0,0.0,0.0,0.0,0.0,0.0,0.0,0.0,0.0,0.0,0.0,0.0,0.0,0.0,0.0,8.3252,8.1811,8.3636,8.7363,9.2808,9.7942,10.2904,10.7405,11.1714,11.4907,11.4907,11.1291,10.7213,10.5213,10.0212,9.5826,9.5595,9.4172,9.321,9.4104,9.3095,9.2287,9.2864,9.3172,9.5018,9.9865,10.2289,10.6405,11.4214,11.6407,11.91,12.3985,12.5794,12.669,12.669,12.669,12.6409,12.5794,12.5794,12.5486,12.4986,12.3601,12.2908,12.2908,12.1985,12.0985,11.9792,12.0177,11.9215,11.7303,11.76,11.7292,11.6495,11.6495,11.6187,11.5687,11.5687,11.5187,11.4407,11.4599,11.4599,11.4407,11.4714,11.4714,11.4714,0.0,0.0,0.0,0.0,0.0,0.0,5.7201,5.7313,5.7678,5.8514,5.813,5.8103,5.8896,5.9858,6.0419,6.0419,6.1887,0.0,0.0,0.0,0.0,0.0,0.0,0.0,0.0,0.0,7.1251,7.2979,7.3017,7.3866,7.5509,7.5509,7.5042,7.4193,0.0,0.0,0.0,0.0,0.0,0.0,0.0,0.0,7.7975,0.0,0.0,0.0,0.0,0.0,0.0,0.0,0.0,0.0,0.0,8.0238,8.2324,8.8239,9.4788,10.0914,10.4222,10.9483,11.3984,11.3984,11.0791,10.7021,10.4482,9.9298,9.4758,9.3912,9.2402,9.1479,9.2364,9.1825,9.121,9.121,9.1941,9.398,9.8211,10.0981,10.4212,10.8482,11.1214,11.4484,11.8792,12.3678,12.669,12.669,12.669,12.669,12.669,12.669,12.5909,12.4216,12.3293,12.2908,12.2908,12.1985,12.1612,12.1612,12.0677,11.9908,11.8985,11.8215,11.7292,11.6495,11.6495,11.6495,11.6495,11.6495,11.5995,11.5418,11.6187,11.5995,11.5418,11.6187,11.6495,11.6418,0.0,0.0,0.0,0.0,0.0,0.0,0.0,5.7226,5.7397,5.7739,5.7717,5.7788,5.8128,5.9015,5.9783,6.0346,6.1875,0.0,0.0,0.0,0.0,0.0,0.0,0.0,0.0,0.0,7.0686,7.2979,7.2979,7.3866,7.5509,7.5509,7.5042,7.4193,7.3628,7.3552,0.0,0.0,0.0,0.0,0.0,7.6494,7.7946,0.0,0.0,0.0,0.0,0.0,0.0,0.0,0.0,0.0,0.0,0.0,0.0,8.51,9.0397,9.5749,9.9712,10.3905,10.7098,10.7098,10.5213,10.2789,10.0904,9.8057,9.548,9.398,9.3287,9.2826,9.2556,9.2287,9.2441,9.3595,9.3056,9.3787,9.7403,10.0096,10.3895,11.0021,11.6984,12.21,12.4101,12.5178,12.6101,12.669,12.669,12.669,12.669,12.669,12.6178,12.4986,12.4216,12.3485,12.2908,12.1985,12.1304,12.0677,12.0985,12.0485,11.91,11.9408,11.91,11.8215,11.76,11.7407,11.7407,11.7407,11.6907,11.6187,11.71,11.6907,11.6187,11.6418,11.6907,11.7292,0.0,0.0,0.0,0.0,0.0,0.0,0.0,5.7188,5.7239,5.7375,5.751,5.7631,5.7798,5.8649,5.9526,6.0334,6.1582,0.0,0.0,0.0,0.0,0.0,0.0,0.0,0.0,6.9043,7.0457,7.2979,7.2979,7.3866,7.5509,7.5509,7.5042,7.4193,7.3667,7.3552,0.0,0.0,0.0,0.0,7.5815,7.657,7.7449,0.0,0.0,0.0,0.0,0.0,0.0,0.0,0.0,0.0,0.0,0.0,0.0,0.0,8.6539,9.0825,9.6365,10.0096,10.2712,10.3712,10.2097,10.0019,9.8634,9.6519,9.448,9.3056,9.2749,9.2595,9.2095,9.2018,9.2364,9.3403,9.2979,9.3557,9.6634,9.9519,10.3702,11.0214,11.81,12.3216,12.3793,12.5101,12.6101,12.669,12.669,12.669,12.669,12.669,12.6294,12.5409,12.4601,12.3716,12.2908,12.1985,12.1293,12.0793,12.1293,12.0908,11.96,12.01,11.9908,11.91,11.8484,11.81,0.0,11.7792,11.7484,11.71,11.7984,11.81,11.7996,11.8303,11.8792,11.91,0.0,0.0,0.0,0.0,0.0,0.0,0.0,5.7188,5.7239,5.7388,5.751,5.7643,5.781,5.8587,5.9453,6.0309,0.0,0.0,0.0,0.0,0.0,0.0,0.0,0.0,6.7851,6.8707,7.0342,7.2902,7.2979,7.3828,7.5395,7.5471,7.5089,7.4278,7.4231,7.3781,0.0,0.0,0.0,0.0,7.6303,7.6647,0.0,0.0,0.0,0.0,0.0,0.0,0.0,0.0,0.0,0.0,0.0,0.0,0.0,0.0,0.0,0.0,0.0,9.748,9.9952,10.2404,10.0712,9.8211,9.7326,9.4788,0.0,9.1402,9.121,9.121,9.121,9.121,9.1248,9.1364,9.2056,9.348,9.6095,9.975,10.4289,11.0214,11.5907,11.9408,11.9408,12.3678,12.6614,12.669,12.669,12.669,12.6601,12.669,12.6178,12.5293,12.4486,12.3716,12.2908,12.1985,12.1612,12.1612,12.1612,12.1189,12.0408,12.0408,11.9985,11.9292,11.9215,11.8715,11.8023,11.7907,11.7907,11.7907,11.8715,11.9485,12.0216,12.0997,12.1304,12.1304,0.0,0.0,0.0,0.0,0.0,0.0,0.0,0.0,0.0,0.0,5.7571,5.7679,5.7939,5.8157,5.8841,0.0,0.0,0.0,0.0,0.0,0.0,0.0,0.0,0.0,6.7851,6.8096,6.9433,7.1994,7.2682,7.3514,7.4507,7.5204,7.5395,7.5165,7.4507,7.4078,0.0,0.0,0.0,0.0,7.57,7.6159,0.0,0.0,0.0,0.0,7.6303,7.6494,0.0,0.0,0.0,0.0,0.0,0.0,0.0,0.0,8.2451,8.3819,8.8269,0.0,9.2595,9.3864,9.4557,9.4672,0.0,9.3557,9.2979,9.1518,9.121,9.121,9.121,9.121,9.1633,9.2903,9.3287,9.4518,9.775,10.502,11.2022,11.7292,12.0292,12.2024,12.2024,12.3601,12.5293,12.6614,12.669,12.6409,12.5678,12.6294,12.5678,12.3601,12.3909,12.3716,12.2908,12.1985,12.1612,12.1612,12.1612,12.1497,12.1304,12.1304,12.1177,12.0997,12.0292,11.9908,11.9715,11.8985,11.8407,11.7792,11.8023,11.8215,11.8292,11.7907,11.8484,11.9485,0.0,0.0,0.0,0.0,0.0,0.0,0.0,0.0,0.0,0.0,0.0,5.7691,5.7973,5.7997,0.0,0.0,0.0,0.0,0.0,0.0,0.0,0.0,0.0,6.4915,6.7237,6.7293,6.8635,7.1392,7.2238,7.3204,7.4231,7.508,7.5509,7.5471,7.5013,7.4813,0.0,0.0,7.5853,7.5548,7.5891,0.0,0.0,0.0,0.0,0.0,7.5662,7.5777,0.0,7.6083,7.6914,7.807,0.0,0.0,0.0,0.0,8.182,8.271,8.4989,8.7111,8.9196,9.1278,9.2172,9.2556,9.2518,9.2518,9.2287,9.1402,9.121,9.121,9.121,9.1518,9.2095,9.2979,9.4441,9.7326,10.2712,10.879,11.4484,11.9215,12.1293,12.2601,12.3408,12.4216,12.5293,12.6614,12.669,12.6294,12.5409,12.5794,12.5293,12.3485,12.3909,12.3716,12.2908,12.2408,12.2408,12.2716,12.2408,12.2216,12.2216,12.1804,12.1612,12.1612,12.11,12.0485,11.9715,11.9715,11.8908,11.7781,11.8215,11.8407,11.8292,11.7907,11.8292,11.8985,0.0,0.0,0.0,0.0,0.0,0.0,0.0,0.0,0.0,0.0,0.0,0.0,0.0,0.0,0.0,0.0,0.0,0.0,0.0,0.0,0.0,0.0,0.0,6.4468,6.6564,6.6685,6.8065,7.0801,7.1864,7.2945,7.404,7.5051,7.5509,7.5509,7.5509,7.5509,0.0,0.0,7.6112,7.5548,7.6227,0.0,0.0,0.0,0.0,0.0,0.0,0.0,0.0,7.6303,7.7182,7.8155,7.8942,0.0,0.0,0.0,0.0,0.0,8.3354,8.5429,8.799,9.0962,9.1287,9.1056,9.1902,9.1518,9.1047,9.1171,9.121,9.1248,9.1364,9.2095,9.271,9.2864,9.6019,10.0981,10.829,11.1598,11.4714,11.8484,12.0485,12.2189,12.3601,12.4601,12.5601,12.6601,12.669,12.6306,12.5293,12.5293,12.4909,12.3793,12.3793,12.3601,12.2908,12.3024,12.3293,12.3716,12.3216,12.2793,12.2716,12.1793,12.142,12.142,12.1304,12.0408,11.9215,11.9792,11.9215,11.7907,11.86,11.8908,11.8908,11.8792,11.8792,11.8908,0.0,0.0,0.0,0.0,0.0,0.0,0.0,0.0,0.0,0.0,0.0,0.0,0.0,0.0,0.0,0.0,0.0,0.0,0.0,0.0,0.0,6.2917,6.331,6.4468,6.6564,6.6984,6.8101,6.9967,7.1943,7.3004,7.3208,7.4783,7.5509,7.5509,7.5509,7.5509,7.5509,0.0,7.5624,7.5509,7.5624,0.0,0.0,0.0,0.0,0.0,0.0,0.0,0.0,7.5624,7.6723,7.804,7.8253,0.0,0.0,0.0,0.0,0.0,8.3867,8.589,8.7452,8.8038,8.8632,8.9286,9.0124,9.0201,9.0316,9.1056,9.121,9.1441,9.2172,9.2979,9.3749,9.4489,9.9288,10.4789,11.028,11.3907,11.6407,11.7792,12.01,12.1689,12.1997,12.3408,12.4986,12.6614,12.669,12.5986,12.4409,12.4986,12.4409,12.2112,12.2716,12.3024,12.2908,12.3601,12.3293,12.1985,12.2601,12.2485,12.1804,12.0908,12.0485,12.0485,11.9792,11.9292,11.91,11.9215,11.8715,11.7792,11.7907,11.8023,11.7907,11.7176,11.7407,11.8023,0.0,0.0,0.0,0.0,0.0,0.0,0.0,0.0,0.0,0.0,0.0,0.0,0.0,0.0,0.0,0.0,0.0,0.0,0.0,0.0,6.2365,6.2793,6.299,6.3795,6.5215,6.5892,6.7359,6.969,7.1535,7.3032,7.4196,7.5245,7.5475,7.5085,7.5383,7.5509,7.5509,7.5509,7.5509,7.5509,0.0,0.0,0.0,0.0,0.0,0.0,0.0,0.0,0.0,0.0,7.6953,7.8079,7.8635,0.0,0.0,0.0,0.0,0.0,8.286,8.431,8.5629,8.7047,8.9402,9.1364,9.1325,9.1633,9.1941,9.1902,9.1902,9.2172,9.2979,9.4595,9.7096,10.1212,10.4482,10.8213,11.2906,11.4484,11.6292,11.9485,12.0485,12.16,12.3485,12.4409,12.5293,12.6601,12.669,12.5909,12.4216,12.4486,12.3716,12.1689,12.2408,12.2716,12.2216,12.3485,12.3716,12.2985,12.2908,12.2716,12.2293,12.0908,12.06,12.0908,11.9715,11.91,11.91,11.91,11.8292,11.7215,11.81,11.7907,11.6984,11.6599,11.6803,11.71,0.0,0.0,0.0,0.0,0.0,0.0,0.0,0.0,0.0,0.0,0.0,0.0,0.0,0.0,0.0,0.0,0.0,0.0,0.0,0.0,6.1961,6.2756,6.2793,6.3306,6.4347,6.5467,6.7282,6.9893,7.1814,7.3739,7.5689,7.5831,7.5645,7.5178,7.5414,7.5509,7.5509,7.5509,7.5509,7.5509,0.0,0.0,0.0,0.0,0.0,0.0,0.0,0.0,0.0,0.0,0.0,0.0,0.0,0.0,0.0,8.0988,8.0963,8.115,8.2676,8.3643,8.4717,8.6863,8.9556,9.1825,9.2595,9.2787,9.2903,9.3326,9.3557,9.3787,9.421,9.6711,10.0712,10.6982,10.9213,11.1483,11.5599,11.5984,11.7292,12.1408,12.1485,12.2293,12.5101,12.5409,12.5794,12.6601,12.669,12.5986,12.4486,12.4409,12.3601,12.1985,12.2601,12.2408,12.1293,12.2793,12.3485,12.3485,12.3101,12.2716,12.2216,12.0908,12.0485,12.06,11.9408,11.8715,11.8484,11.8715,11.7907,11.6688,11.8407,11.8215,11.6803,11.6611,11.6495,11.6495,0.0,0.0,0.0,0.0,0.0,0.0,0.0,0.0,0.0,0.0,0.0,0.0,0.0,0.0,0.0,0.0,0.0,0.0,0.0,0.0,6.1961,6.2756,6.2793,6.3563,6.5178,6.7173,6.9026,7.071,7.3577,7.5675,7.703,7.6245,7.6148,7.6535,7.5797,7.5509,7.5509,7.5509,7.5509,7.5509,7.5509,0.0,0.0,0.0,0.0,0.0,0.0,0.0,0.0,0.0,0.0,0.0,0.0,0.0,8.0928,8.1751,8.1474,8.1609,8.4853,8.5834,8.617,8.7132,8.6478,8.694,9.2364,9.1825,9.1278,9.5211,9.6634,9.6942,9.6249,9.9481,10.3712,10.8098,11.1483,11.4791,11.8292,12.01,12.1485,12.2716,12.3408,12.4216,12.5293,12.5409,12.5794,12.6601,12.669,12.6294,12.5409,12.5293,12.4486,12.2908,12.2908,12.21,12.0408,12.1293,12.1804,12.1804,12.2485,12.21,12.0485,12.0408,11.9485,11.81,11.7907,11.7407,11.6676,11.76,11.7292,11.6688,11.8407,11.8484,11.76,11.6792,11.6495,11.6495,0.0,0.0,0.0,0.0,0.0,0.0,0.0,0.0,0.0,0.0,0.0,0.0,0.0,0.0,0.0,0.0,0.0,0.0,0.0,6.0419,6.1227,6.2034,6.2536,6.3563,6.5251,6.7053,6.9221,7.1862,7.4973,7.6231,7.5782,7.577,7.5495,7.5015,7.5025,7.5208,7.5509,7.5509,7.5509,7.5509,7.5509,7.5509,0.0,0.0,0.0,0.0,0.0,0.0,0.0,0.0,7.7323,7.8191,7.9041,7.9945,8.0876,8.1819,8.1512,8.1327,8.3182,8.4492,8.567,8.7055,8.6901,8.7748,9.2595,9.4595,9.5903,9.7519,9.9365,10.0712,10.0981,10.3597,10.679,11.0021,11.3407,11.6407,11.8792,12.0485,12.21,12.3485,12.4409,12.5293,12.6101,12.6178,12.6294,12.669,12.669,12.6294,12.5409,12.4909,12.4101,12.2897,12.1793,12.1216,12.11,12.0908,12.11,12.1612,12.1408,12.1216,12.11,11.9985,11.9792,12.01,11.8484,11.7907,11.81,11.7292,11.6792,11.6611,11.7176,11.76,11.7715,11.6792,11.6495,11.6495,0.0,0.0,0.0,0.0,0.0,0.0,0.0,0.0,0.0,0.0,0.0,0.0,0.0,0.0,0.0,0.0,0.0,0.0,5.9159,5.993,6.075,6.1557,6.2365,6.3563,6.5251,6.7136,6.9522,7.2496,7.5711,7.6698,7.5557,7.5797,7.5458,7.4647,7.4877,7.5142,7.5509,7.5509,7.5509,7.5509,7.5509,7.5509,0.0,0.0,0.0,0.0,0.0,0.0,0.0,0.0,7.7505,7.822,7.9376,8.0146,8.0873,8.1862,8.1593,8.1214,8.2385,8.3593,8.4824,8.6247,8.7401,8.9286,9.3557,9.6326,9.8519,10.0404,10.1789,10.3097,10.4789,10.6097,10.7905,11.1011,11.4291,11.7188,11.9215,12.0485,12.1908,12.3909,12.4601,12.5293,12.6178,12.6294,12.6178,12.5909,12.6101,12.5909,12.4986,12.4716,12.3985,12.2897,12.1716,12.11,12.1177,12.06,12.0485,12.0793,11.9908,11.9985,12.0793,11.9908,11.9677,11.9908,11.8715,11.8215,11.8215,11.6995,11.6688,11.6907,11.6611,11.6984,11.7715,11.6792,11.6495,11.6495,0.0,0.0,0.0,0.0,0.0,0.0,0.0,0.0,0.0,0.0,0.0,0.0,0.0,0.0,0.0,0.0,0.0,0.0,5.9159,5.993,6.075,6.1569,6.2365,6.3563,6.5251,6.7637,7.011,7.2496,7.5711,7.7142,7.6865,7.6531,7.6221,7.5976,7.5626,7.5501,7.5509,7.5509,7.5509,7.5509,7.5509,7.5509,0.0,0.0,0.0,0.0,0.0,0.0,0.0,0.0,7.8047,7.8394,8.0078,8.0745,8.108,8.1972,8.1683,8.1477,8.3139,8.3601,8.3832,8.4709,8.7432,9.1047,9.5355,9.6326,9.8019,10.3905,10.3789,10.3712,10.7098,10.629,10.6482,11.078,11.4291,11.7419,11.9908,12.0292,12.1216,12.3793,12.4101,12.4409,12.5293,12.5409,12.4986,12.4216,12.4909,12.4986,12.4101,12.4909,12.4601,12.2897,12.2908,12.1985,12.0292,12.0292,11.9908,11.91,11.8215,11.8292,11.91,11.9908,11.8908,11.6611,11.8292,11.81,11.6495,11.6495,11.6984,11.7715,11.6792,11.6984,11.7715,11.6792,11.6495,11.6495,0.0,0.0,0.0,0.0,0.0,0.0,0.0,0.0,0.0,0.0,0.0,0.0,0.0,0.0,0.0,0.0,0.0,0.0,5.8327,5.9648,6.0529,6.075,6.2059,6.3306,6.442,6.7393,7.0367,7.334,7.4867,7.5007,7.3811,7.3721,7.3816,7.4099,7.3981,7.4314,7.4942,7.4942,7.5142,7.5509,7.5509,7.5509,0.0,0.0,0.0,0.0,0.0,0.0,0.0,0.0,0.0,0.0,8.006,8.1124,8.1811,8.21,8.2067,8.2054,8.2554,8.3593,8.4863,8.6286,8.921,9.2826,9.7096,9.8519,10.0789,10.729,10.7405,10.6905,10.9098,10.8482,10.8406,11.0291,11.3407,11.5907,11.6676,11.8792,12.0408,12.06,12.2216,12.3101,12.2793,12.3293,12.3485,12.3293,12.2908,12.3101,12.4101,12.2601,12.1908,12.1985,12.0216,11.9408,11.9485,11.8792,11.8715,11.91,11.8215,11.8292,11.91,11.8715,11.8484,11.8292,11.8215,11.7907,11.7407,11.6803,11.6688,11.6907,11.6611,11.6688,11.6907,11.6611,11.6495,11.6495,0.0,0.0,0.0,0.0,0.0,0.0,0.0,0.0,0.0,0.0,0.0,0.0,0.0,0.0,0.0,0.0,0.0,0.0,0.0,5.9501,6.0419,6.0419,6.1949,6.349,6.5007,6.7577,6.9853,7.1798,7.323,7.3435,7.2496,7.3046,7.3447,7.3807,7.4537,7.4868,7.4897,7.5126,7.5107,7.4941,7.5485,7.5513,7.5255,0.0,0.0,0.0,0.0,0.0,0.0,0.0,0.0,0.0,8.0019,8.0864,8.1172,8.1642,8.1784,8.1977,8.2631,8.4055,8.5931,8.8325,9.1479,9.5211,9.9788,10.2481,10.5492,11.0214,11.0098,10.9521,11.0483,10.9713,10.929,11.0483,11.2983,11.4907,11.5303,11.7292,11.8985,11.9485,12.0716,12.1408,12.1612,12.1793,12.1716,12.1408,12.1216,12.1408,12.21,12.0985,12.0408,12.06,11.91,11.86,11.91,11.8215,11.81,11.86,11.7715,11.76,11.81,11.7907,11.7907,11.7984,11.7484,11.7292,11.7215,11.6676,11.6495,11.6495,11.6495,11.6495,11.6495,11.6495,11.6495,11.6495,0.0,0.0,0.0,0.0,0.0,0.0,0.0,0.0,0.0,0.0,0.0,0.0,0.0,0.0,0.0,0.0,0.0,0.0,0.0,0.0,6.0529,6.0529,6.2059,6.404,6.6439,6.7944,6.8715,6.8788,7.1138,7.2275,7.2326,7.3609,7.4296,7.4498,7.6129,7.6226,7.514,7.5582,7.5081,7.4162,7.5382,7.5456,7.4929,7.6139,0.0,0.0,0.0,0.0,0.0,0.0,0.0,0.0,7.9974,8.0302,7.9931,8.0815,8.1131,8.1593,8.3255,8.4939,8.7055,9.0556,9.4249,9.8288,10.3097,10.7405,11.0791,11.2291,11.2088,11.1703,11.1703,11.0291,10.9713,11.1203,11.2791,11.4214,11.4984,11.5792,11.7303,11.9677,11.9408,11.96,12.11,12.0485,11.9792,11.8985,11.96,11.9715,11.91,11.96,11.9715,11.8985,11.8908,11.8908,11.8908,11.81,11.7715,11.7715,11.6907,11.6495,11.6418,11.7292,11.7215,11.6495,11.6495,11.6495,11.6495,11.6495,11.6495,11.6495,11.6495,11.6495,11.6495,11.6495,11.6495,11.6495,0.0,0.0,0.0,0.0,0.0,0.0,0.0,0.0,0.0,0.0,0.0,0.0,0.0,0.0,0.0,0.0,0.0,0.0,0.0,0.0,6.1337,6.1337,6.2915,6.464,6.6476,6.6843,6.732,6.7958,6.9743,7.0624,7.0624,7.1558,7.2658,7.3887,7.4266,7.4516,7.4632,7.4088,7.4136,7.4582,7.4864,7.5103,7.5356,7.5627,0.0,0.0,0.0,0.0,0.0,0.0,0.0,0.0,8.0375,8.1189,8.1541,8.1215,8.1554,8.2401,8.417,8.5824,8.8094,9.2133,9.775,10.3097,10.6213,10.9098,11.128,11.1703,11.2714,11.3483,11.3483,11.2099,11.1098,11.1395,11.228,11.3022,11.3214,11.4599,11.5995,11.7188,11.7792,11.8215,11.86,11.8407,11.8292,11.81,11.76,11.7792,11.8985,11.7984,11.76,11.81,11.7407,11.7111,11.7111,11.6907,11.6803,11.6803,11.6611,11.6187,11.561,11.6407,11.6688,11.6495,11.6495,11.6495,11.6495,11.6495,11.6495,11.6495,11.6495,11.6495,11.6495,11.6495,11.6495,11.6495,0.0,0.0,0.0,0.0,0.0,0.0,0.0,0.0,0.0,0.0,0.0,0.0,0.0,0.0,0.0,0.0,0.0,0.0,0.0,0.0,6.1973,6.2781,6.4016,6.5264,6.6476,6.688,6.7297,6.77,6.8545,6.9339,7.011,7.0903,7.2151,7.3722,7.437,7.4589,7.4513,7.4337,7.4315,7.4412,7.505,7.5225,7.518,7.5821,0.0,0.0,0.0,0.0,0.0,0.0,0.0,0.0,0.0,0.0,8.1028,8.1069,8.167,8.2747,8.4901,8.7325,9.0633,9.648,10.1904,10.6213,10.7905,11.0214,11.2088,11.2088,11.3099,11.3791,11.2983,11.2406,11.1895,11.1588,11.2214,11.2714,11.2714,11.3791,11.4984,11.5792,11.5984,11.6292,11.71,11.6792,11.6792,11.71,11.6803,11.6907,11.7792,11.6995,11.6676,11.7215,11.6676,11.6303,11.5918,11.5918,11.5676,11.5291,11.5291,11.5099,11.4714,11.5484,11.6099,11.6495,11.611,11.5918,11.5918,11.5495,11.5291,11.5291,11.5291,11.561,11.5918,11.5918,11.6187,11.6495,0.0,0.0,0.0,0.0,0.0,0.0,0.0,0.0,0.0,0.0,0.0,0.0,0.0,0.0,0.0,0.0,0.0,0.0,0.0,0.0,0.0,6.4029,6.4861,6.5692,6.6476,6.7297,6.77,6.77,6.7847,6.8715,7.033,7.0977,7.2151,7.3736,7.4853,7.4984,7.4367,7.4698,7.4446,7.3965,7.5178,7.525,7.4831,0.0,0.0,0.0,7.5662,7.6121,7.677,7.7194,0.0,0.0,0.0,0.0,8.0067,8.0823,8.1546,8.2631,8.5209,8.8825,9.3595,10.0789,10.4905,10.7482,10.8598,11.0598,11.2291,11.2522,11.3214,11.3407,11.2214,11.2203,11.228,11.178,11.2088,11.2511,11.2511,11.3214,11.4099,11.4984,11.4599,11.4791,11.6418,11.5918,11.5803,11.6418,11.6495,11.6495,11.6495,11.6495,11.6418,11.6303,11.6303,11.5918,11.5099,11.5099,11.4714,11.3984,11.3791,11.3907,11.3984,11.4599,11.5291,11.5995,11.5418,11.5099,11.4984,11.4291,11.3984,11.3984,11.3984,11.4484,11.5291,11.5291,11.5803,11.6495,0.0,0.0,0.0,0.0,0.0,0.0,0.0,0.0,0.0,0.0,0.0,0.0,0.0,0.0,0.0,0.0,0.0,0.0,6.1374,0.0,0.0,6.4066,6.4861,6.5692,6.6476,6.7297,6.77,6.77,6.8385,6.9545,7.1123,7.1233,7.2151,7.3722,7.3882,7.3911,7.3764,7.3151,7.3077,7.3428,7.4029,7.4433,7.4756,0.0,0.0,0.0,7.6303,7.6609,7.6914,7.8461,7.9097,0.0,0.0,0.0,8.0773,8.0904,8.1076,8.1823,8.4362,8.9671,9.5797,10.1212,10.3982,10.6097,10.8406,10.9713,11.0714,11.1522,11.2291,11.3022,11.3599,11.2599,11.1906,11.2395,11.2011,11.1703,11.1703,11.2406,11.3214,11.4099,11.4714,11.5495,11.6418,11.6418,11.6418,11.6495,11.6495,11.6495,11.6495,11.6495,11.6187,11.5495,11.5495,11.4984,11.4214,11.4214,11.4099,11.3984,11.3214,11.3291,11.3984,11.3291,11.3483,11.4291,11.4214,11.4214,11.4214,11.3984,11.3984,11.3984,11.3984,11.4484,11.5291,11.5291,11.5803,11.6495,0.0,0.0,0.0,0.0,0.0,0.0,0.0,0.0,0.0,0.0,0.0,0.0,0.0,0.0,0.0,5.982,6.0603,6.141,6.2218,6.2609,6.338,6.4714,6.5105,6.5888,6.715,6.7517,6.77,6.77,6.8054,6.9265,7.1307,7.1307,7.2408,7.4368,7.3891,7.3873,7.4099,7.3569,7.364,7.4147,7.4651,7.4971,7.5225,0.0,0.0,0.0,7.61,7.6961,7.8079,7.7435,7.8215,7.9407,7.9335,0.0,0.0,0.0,8.0983,8.217,8.7094,9.1287,9.5605,10.1212,10.3905,10.58,10.829,10.9598,11.0406,11.128,11.178,11.2088,11.2511,11.2022,11.1588,11.2022,11.2088,11.2011,11.1588,11.178,11.228,11.3214,11.3214,11.3714,11.4984,11.5099,11.5099,11.5099,11.5099,11.5099,11.5099,11.5099,11.4907,11.4599,11.4599,11.4214,11.3291,11.3291,11.3022,11.2599,11.1714,11.1791,11.2599,11.1714,11.2291,11.3984,11.3483,11.3291,11.3214,11.2791,11.2599,11.2599,11.2599,11.3099,11.3791,11.3791,11.4714,11.5792,0.0,0.0,0.0,0.0,0.0,0.0,0.0,0.0,0.0,0.0,0.0,0.0,0.0,0.0,0.0,0.0,6.1263,6.1924,6.2756,6.2793,6.3453,6.4934,6.5178,6.5962,6.737,6.759,6.77,6.77,6.7921,6.9229,7.16,7.1821,7.3215,7.5454,7.4478,7.4421,7.5084,7.44,7.4526,7.516,7.5304,7.5362,7.5424,7.5523,7.5995,0.0,0.0,7.6938,7.8153,7.6748,7.7377,7.8717,7.839,7.8357,0.0,0.0,0.0,8.2401,8.8286,9.0979,9.3595,9.975,10.2597,10.4597,10.7598,10.9098,11.0098,11.1021,11.128,11.1511,11.1511,11.1511,11.1588,11.178,11.2291,11.228,11.1291,11.1406,11.1588,11.2022,11.1703,11.2099,11.3483,11.3907,11.3984,11.3984,11.3984,11.3984,11.3984,11.3984,11.3907,11.3714,11.3483,11.3099,11.2406,11.2214,11.1906,11.1511,11.0598,11.0483,11.1214,11.0714,11.1406,11.2983,11.2599,11.2406,11.228,11.1703,11.1511,11.1511,11.1511,11.2022,11.2714,11.2714,11.3791,11.5291,0.0,0.0,0.0,0.0,0.0,0.0,0.0,0.0,0.0,0.0,0.0,0.0,0.0,5.9893,6.0713,6.1484,6.1569,6.1924,6.2756,6.2793,6.3196,6.4139,6.4897,0.0,6.6549,6.7297,6.77,6.77,6.8458,7.0073,7.2459,7.323,7.4882,7.7105,7.5527,7.5578,7.677,7.5172,7.5196,7.6317,7.5319,7.4932,7.498,7.5481,7.5723,7.5838,7.6651,7.644,7.6021,7.7615,7.7658,7.7177,7.8028,7.8349,7.8575,0.0,0.0,0.0,8.5401,8.7017,8.9325,9.6095,9.9058,10.1414,10.5597,10.779,10.9213,11.0098,11.0906,11.1511,11.1511,11.1511,11.1703,11.2511,11.2714,11.2099,11.0483,11.0983,11.1214,11.0406,11.1021,11.178,11.2714,11.3483,11.3984,11.3984,11.3984,11.3984,11.3984,11.3984,11.3599,11.2791,11.2011,11.1588,11.1588,11.0714,11.0714,11.1511,11.0598,11.0214,11.0291,11.1098,11.1098,11.0406,11.1214,11.1588,11.1588,11.1511,11.1511,11.1511,11.1511,11.2022,11.2714,11.2714,11.3791,11.5187,0.0,0.0,0.0,0.0,0.0,0.0,0.0,0.0,0.0,0.0,0.0,0.0,0.0,6.1141,6.1851,6.163,6.2071,6.2499,6.2793,6.2793,6.3417,6.4824,6.5141,6.5925,6.726,6.7554,6.77,6.77,6.7994,6.9376,7.1747,7.2569,7.4221,7.6481,7.5946,7.5676,7.5593,7.4822,7.4661,7.4905,7.4909,7.5094,7.5514,7.6257,7.6922,7.7491,7.7749,7.8322,7.8871,7.8445,7.8092,7.7875,7.8168,7.7628,7.7093,7.8492,7.9954,8.1708,8.4555,8.594,8.7825,9.3018,9.598,9.8634,10.2279,10.4905,10.6905,10.829,10.9713,11.0714,11.0714,11.1098,11.1588,11.1906,11.2406,11.2099,11.0406,11.0483,11.0483,11.0214,10.9983,11.0214,11.0983,11.1906,11.2214,11.1598,11.1598,11.1598,11.1598,11.1598,11.1214,11.0291,11.0483,11.0714,11.0714,11.0406,11.0598,11.1511,11.0598,11.0483,11.1021,11.0791,11.0791,11.1098,11.1406,11.1511,11.1511,11.1511,11.1511,11.1511,11.1511,11.1703,11.1895,11.1895,11.2714,11.3599,0.0,0.0,0.0,0.0,0.0,0.0,0.0,0.0,0.0,0.0,0.0,0.0,0.0,0.0,6.2572,6.2034,6.2499,6.2903,6.3196,6.3246,6.398,6.5618,6.5705,6.6329,6.7664,6.77,6.77,6.77,6.77,6.8788,7.0903,7.1711,7.323,7.5322,7.5579,7.5956,7.6353,7.5479,7.5445,7.5898,7.5702,7.6006,7.6621,7.7261,7.7892,7.8461,7.8713,7.9333,7.9884,7.9073,7.8604,7.8281,7.8036,7.7239,7.6601,7.7777,7.9323,8.1093,8.3093,8.4209,8.6055,9.121,9.3326,9.5403,10.0202,10.2597,10.4405,10.6405,10.8213,10.9483,11.0109,11.0714,11.1214,11.1522,11.1895,11.1714,10.9983,10.979,10.9713,10.9406,10.879,10.879,10.9713,11.0291,11.0406,10.979,10.979,10.979,10.979,10.979,10.9483,10.8906,10.9983,11.0483,11.0224,10.9906,11.0214,11.1098,11.0214,11.0098,11.0598,11.0291,11.0483,11.1098,11.1098,11.1203,11.1511,11.1511,11.1511,11.1511,11.1511,11.1511,11.1511,11.1511,11.2022,11.2714,0.0,0.0,0.0,0.0,0.0,0.0,0.0,0.0,0.0,0.0,0.0,0.0,0.0,0.0,0.0,6.2866,6.2866,6.3233,6.4103,6.4139,6.4824,6.6439,6.6512,6.688,6.7664,6.77,6.77,6.77,6.77,6.8508,7.0073,7.0866,7.2129,7.3722,7.4529,7.65,7.9135,7.7179,7.76,7.9459,7.7685,7.7495,7.8325,7.8492,7.8561,7.8638,7.9515,7.9231,7.8607,7.9523,7.9231,7.83,7.7531,7.733,7.7369,7.733,7.8515,8.0015,0.0,0.0,0.0,9.0556,9.0979,9.174,9.924,10.101,10.1712,10.4405,10.629,10.7982,10.979,11.0098,11.0483,11.128,11.1511,11.0906,10.9213,10.8906,10.8598,10.779,10.7713,10.7982,10.879,10.879,10.8906,10.8906,10.8906,10.8906,10.8906,10.879,10.879,10.8906,11.0521,11.0906,11.0098,10.9213,10.9213,11.0098,10.9213,10.879,10.8906,10.9713,11.0098,11.0098,11.0224,11.0714,11.1522,11.1511,11.1511,11.1511,11.1511,11.1511,11.1511,11.1511,11.2022,11.2599,0.0,0.0,0.0,0.0,0.0,0.0,6.004,6.0077,6.037,0.0,0.0,0.0,0.0,0.0,6.4591,6.4591,6.4591,6.4701,6.4958,6.4971,6.5448,6.6439,6.6512,6.688,6.7664,6.77,6.77,6.77,6.77,6.8251,6.9265,7.0073,7.1284,7.2877,7.409,7.5166,7.611,7.5328,7.5802,7.6973,7.6512,7.7135,7.8393,7.9113,7.9384,7.9554,8.0439,8.0577,8.0369,8.0662,8.0154,7.9177,7.7746,7.813,7.8861,7.7676,7.8938,8.0669,8.0285,0.0,0.0,0.0,0.0,0.0,9.1402,9.3133,9.5249,9.9635,10.1904,10.402,10.6905,10.8983,11.0291,11.0483,11.1098,11.1098,10.9983,10.929,10.8598,10.779,10.7098,10.678,10.7098,10.7713,10.8021,10.8021,10.8021,10.8021,10.8021,10.7405,10.7405,10.7982,10.729,10.7405,10.8406,10.6905,10.6905,10.8406,10.7521,10.7098,10.7087,10.7982,10.8406,10.8482,10.9713,11.0291,11.0598,11.1203,11.1511,11.1511,11.1511,11.1511,11.1511,11.1511,11.1588,11.178,0.0,0.0,0.0,0.0,0.0,6.1153,6.1851,6.163,6.1704,0.0,0.0,0.0,0.0,0.0,0.0,6.5362,6.5632,6.5802,6.5802,6.5802,6.6145,6.6953,6.732,6.7724,6.8201,6.8201,6.8201,6.8201,6.7847,6.7958,6.8421,6.9559,7.0587,7.1555,7.301,7.3882,7.4233,7.4257,7.5229,7.6695,7.6675,7.774,7.9429,8.0051,8.0315,8.04,8.0939,8.1554,8.2054,8.1323,8.0516,7.9623,7.8669,7.8746,7.9054,7.8099,7.9092,0.0,0.0,0.0,8.2131,8.3555,0.0,0.0,8.894,8.9671,9.1171,9.6634,9.8519,10.0519,10.4597,10.679,10.829,10.8983,10.9906,11.0214,10.9713,10.8906,10.8098,10.729,10.701,10.679,10.6395,10.6905,10.7213,10.7213,10.7213,10.7213,10.7213,10.729,10.7405,10.7213,10.6482,10.6713,10.7713,10.629,10.629,10.7713,10.679,10.6395,10.6395,10.6895,10.7405,10.779,10.8713,10.929,10.9713,11.0598,11.1214,11.1511,11.1511,11.1511,11.1511,11.1511,11.1511,11.1511,0.0,0.0,6.1629,6.1838,6.1961,6.2548,6.4139,6.3723,6.3527,0.0,6.458,0.0,0.0,0.0,0.0,0.0,6.6476,6.6843,6.6769,6.6769,6.7063,6.7664,6.8458,6.8885,6.8885,6.9009,6.9009,6.8885,6.8164,6.7847,6.7847,6.9316,7.0073,7.0293,7.1796,7.2743,7.3337,7.3798,7.5408,7.7655,7.7579,7.8806,8.0694,8.0983,8.0969,8.0823,8.1016,8.2016,8.2986,8.1554,8.0592,7.9931,7.9815,7.9323,7.8754,7.8561,7.9169,0.0,0.0,0.0,0.0,8.4824,8.4132,0.0,8.9056,8.8594,8.8671,9.4172,9.5326,9.6826,10.1789,10.3597,10.4789,10.629,10.7598,10.8482,10.879,10.8213,10.7405,10.6587,10.7098,10.729,10.651,10.6395,10.6395,10.6395,10.6395,10.6405,10.629,10.779,10.7905,10.629,10.6905,10.729,10.7405,10.6521,10.6521,10.7405,10.651,10.6087,10.6087,10.6203,10.6713,10.7405,10.7598,10.8098,10.879,10.9713,11.0598,11.1406,11.1522,11.1511,11.1511,11.1511,11.1511,11.1511,0.0,6.1822,6.2768,6.3503,6.4163,6.4897,6.5888,6.5888,6.6072,6.6893,6.754,6.8017,0.0,0.0,0.0,0.0,6.9302,6.9119,6.8458,6.8421,6.8201,6.7737,6.8458,6.8885,6.8885,6.9522,6.9559,6.8885,6.8752,6.8678,6.8678,6.9009,6.9839,7.1115,7.178,7.2563,7.3337,7.3798,7.5321,7.7497,7.7836,7.8709,7.9842,8.0641,8.0115,7.9177,8.0592,8.0862,8.0592,8.0977,8.0977,8.0708,8.0015,8.0169,8.0323,7.8907,7.9592,8.0708,7.9969,8.09,8.2054,8.2054,8.3747,0.0,8.4247,8.4747,8.6094,8.8632,8.9133,9.0479,9.4864,9.748,9.9096,9.9442,10.2481,10.579,10.8482,10.8213,10.7598,10.7482,10.7021,10.6587,10.6395,10.6395,10.6395,10.6395,10.6395,10.6097,10.5405,10.629,10.6405,10.5405,10.4905,10.4982,10.5597,10.4097,10.4097,10.5597,10.4789,10.4405,10.4405,10.5097,10.5405,10.5713,10.7098,10.779,10.7982,10.879,10.9713,11.0483,11.1203,11.1511,11.1511,11.1511,11.1511,11.1511,0.0,6.3313,6.4444,6.5681,6.6219,6.6916,6.8091,6.7944,6.7981,6.8802,6.9963,7.0536,7.0132,0.0,0.0,0.0,0.0,0.0,0.0,6.9119,6.8715,6.8311,6.8678,6.9082,6.9486,6.9889,6.9889,6.9486,6.9119,6.8678,6.8311,6.8715,6.9714,7.1181,7.176,7.2634,7.3712,7.4154,7.5527,7.7412,7.7713,7.878,8.0216,8.0298,8.013,7.99,8.0785,8.1093,8.1246,8.2554,8.2439,8.1631,8.117,8.1631,8.2101,8.0793,8.1016,8.1516,8.0669,8.1054,8.1823,8.2247,8.2978,0.0,0.0,8.3285,8.3824,8.6786,8.6748,8.744,9.1672,9.3864,9.5288,9.6134,9.9135,10.1904,10.3597,10.6097,10.7521,10.7098,10.701,10.6905,10.6395,10.6395,10.6395,10.6395,10.679,10.6713,10.579,10.6597,10.6405,10.5097,10.4723,10.4482,10.4482,10.3712,10.3712,10.4482,10.4097,10.3905,10.3905,10.4713,10.5107,10.5184,10.6482,10.7098,10.7087,10.8406,10.9213,10.9598,11.0483,11.1098,11.1511,11.1511,11.1511,11.1511,6.3662,6.461,6.5778,6.7223,6.7737,6.8435,6.9889,6.9669,6.9669,7.044,7.1835,7.2496,7.1821,7.2789,7.2789,0.0,0.0,0.0,7.0807,6.9889,6.9302,6.9155,6.9288,6.9596,7.0073,7.0257,7.0183,6.9853,6.9229,6.8568,6.7958,6.8605,6.9716,7.1206,7.1789,7.2842,7.4239,7.4795,7.6014,7.7588,7.7846,7.9039,8.0627,8.0361,8.0516,8.09,8.1208,8.1862,8.2785,8.417,8.3824,8.2785,8.2785,8.3285,8.3708,8.3016,8.267,8.2439,8.1977,8.2054,8.2516,8.337,8.317,8.3054,0.0,0.0,0.0,8.5593,8.5093,8.5324,8.9056,9.0325,9.1287,9.2817,9.5595,9.7519,9.7365,10.2289,10.579,10.529,10.5905,10.629,10.5703,10.551,10.5587,10.5905,10.6405,10.6597,10.6213,10.7021,10.6713,10.4905,10.4713,10.4212,10.3405,10.3405,10.3482,10.3712,10.3789,10.3982,10.4222,10.4789,10.5223,10.5405,10.6097,10.6395,10.651,10.8021,10.879,10.8983,10.9983,11.0906,11.1511,11.1511,11.1511,11.1511,6.3798,6.461,6.5582,6.6476,6.7834,6.9082,6.9963,7.061,7.1307,7.2129,7.301,7.3538,7.345,7.2936,7.312,7.4243,7.3105,7.2642,7.323,7.1872,7.072,7.0,7.0646,7.072,7.011,7.0807,7.0463,6.9032,6.8935,6.8862,6.8788,6.8862,6.9958,7.1875,7.21,7.3091,7.4712,7.5712,7.6929,7.828,7.91,7.9618,8.0013,8.1446,8.117,8.0131,8.1631,8.2716,8.3486,8.3678,8.4132,8.4593,8.4593,8.467,8.4747,8.4624,8.4055,8.3601,8.4286,8.5555,8.617,8.414,8.6286,8.7624,8.267,0.0,8.397,8.217,0.0,8.2131,8.4101,0.0,0.0,8.5893,9.0094,9.2941,9.2172,9.6557,10.0106,10.0721,10.152,10.2279,10.302,10.2279,10.252,10.4097,10.3597,10.3789,10.5223,10.6097,10.579,10.4097,10.3289,10.252,10.1587,10.1587,10.202,10.2789,10.3482,10.4299,10.4992,10.5107,10.5482,10.629,10.6405,10.6395,10.651,10.7405,10.829,10.9098,11.0714,11.1395,11.1511,11.1511,11.1511,11.1511,6.4074,6.5079,6.6256,6.7063,6.8531,6.9889,7.066,7.1872,7.2973,7.378,7.4588,7.5102,7.5102,7.4771,7.4661,7.4867,7.3854,7.3523,7.4331,7.2445,0.0,7.2165,7.1174,7.0881,7.1468,7.0917,7.0257,6.9596,6.9119,6.8678,6.8201,6.8678,6.996,7.1848,7.2381,7.3888,7.6059,7.6521,7.7633,7.9158,7.9544,8.0314,8.1238,8.15,8.1785,8.217,8.3362,8.4055,8.4362,8.4362,8.4593,8.497,8.544,8.5585,8.5709,8.6209,8.5747,8.5132,8.5517,8.6478,8.7017,8.544,8.6017,8.6201,8.3208,8.2631,8.2516,8.19,0.0,0.0,0.0,0.0,0.0,0.0,8.794,8.9979,8.9133,9.1672,9.4864,9.8211,9.8904,9.9442,10.0289,10.0481,10.0904,10.1597,10.1789,10.1904,10.2222,10.3482,10.3597,10.2404,10.252,10.1981,10.0596,10.1597,10.1712,10.1222,10.2481,10.3289,10.3712,10.4723,10.529,10.5713,10.6213,10.6395,10.651,10.729,10.7905,10.829,10.9483,11.0598,11.1395,11.0906,11.1098,11.1511,6.453,0.0,6.699,6.759,6.8862,7.011,7.1123,7.2679,7.4001,7.4793,7.5432,7.6019,7.6717,7.657,7.657,7.6864,7.5905,7.5602,7.642,7.4188,7.3351,7.4404,7.2497,7.181,7.2678,7.1222,7.033,7.011,6.9302,6.8715,6.8361,6.8715,6.9937,7.1809,7.2622,7.4366,7.676,7.7204,7.8291,7.9713,7.9729,8.0892,8.2631,8.2285,8.3016,8.4401,8.5286,8.5593,8.5632,8.5863,8.6094,8.6355,8.697,8.6978,8.694,8.7555,8.7132,8.6517,8.6748,8.7594,8.8055,8.6478,8.5824,8.5132,8.3324,8.2516,8.2247,8.2593,8.2747,0.0,0.0,0.0,8.4478,8.5132,0.0,8.7786,8.7132,8.8094,9.0393,9.4595,9.5903,9.6903,9.8019,9.825,9.8721,9.9683,9.9635,9.9712,10.0106,10.1299,10.1597,10.1019,10.1404,10.0981,9.976,10.0981,10.1096,10.0106,10.1597,10.2404,10.2597,10.4097,10.4905,10.5097,10.602,10.6395,10.651,10.729,10.7713,10.779,10.829,10.9598,11.1098,11.0406,11.0791,11.1511,6.5251,6.6549,6.7664,6.77,6.8385,6.9472,7.105,7.2679,7.4001,7.4793,7.4903,7.5873,7.8259,7.7766,7.8537,8.1672,8.0289,7.9562,8.0374,7.8165,7.6685,7.6414,7.5343,7.429,7.3287,7.1959,7.0866,7.011,6.9302,6.9302,7.0,6.9265,6.9995,7.2037,7.277,7.4217,7.6245,7.778,7.8931,7.9713,7.9784,8.1323,8.364,8.4478,8.5286,8.6132,8.7017,8.7325,8.744,8.8295,8.9094,8.9739,8.9778,8.9248,8.8641,8.8641,8.8017,8.7555,8.841,8.9825,9.0287,8.694,8.6709,8.6247,8.2131,8.3054,8.4555,8.3717,8.5486,8.7209,8.7209,8.6555,8.6017,0.0,8.6132,0.0,0.0,8.6209,8.6901,8.8756,9.1864,9.448,9.6211,9.4864,9.5288,9.8596,9.6566,9.6643,9.9913,10.0183,10.0183,10.0106,9.9336,9.8904,9.8827,9.8904,9.9336,10.0106,10.0904,10.1789,10.2597,10.3482,10.4405,10.5097,10.602,10.6395,10.651,10.729,10.7713,10.7713,10.7713,10.879,11.0214,11.0224,11.0791,11.1511,6.7453,6.8128,6.8164,6.71,6.8017,6.9435,7.105,7.2202,7.378,7.6188,7.6481,7.7656,8.0645,8.1068,8.16,8.271,8.2095,8.1737,8.196,7.9359,7.8131,7.8903,7.6333,7.5138,7.5676,7.3337,7.1982,7.1688,7.033,7.011,7.0866,7.061,7.1346,7.2891,7.4128,7.5553,7.716,7.93,8.0385,8.0707,8.1854,8.3516,8.517,8.4362,8.4901,8.6209,8.7094,8.7401,8.7517,8.841,8.8863,8.921,8.9739,8.9363,8.891,9.0017,9.0133,9.0094,9.0979,9.2441,9.2903,8.9479,8.844,8.7294,8.3601,8.3862,8.467,8.3793,8.564,8.7209,8.6632,8.6786,8.6594,0.0,0.0,8.617,0.0,8.3593,8.4247,8.5978,8.8671,9.0825,9.197,9.2056,9.2518,9.3672,9.3518,9.3595,9.4172,9.6365,9.7057,9.5912,9.7211,9.7673,9.7134,9.8827,9.9529,9.9259,10.0596,10.1789,10.2597,10.3482,10.4289,10.5097,10.602,10.6395,10.6395,10.6703,10.678,10.678,10.678,10.7905,10.929,10.929,11.0291,11.1511,6.9119,6.9119,6.8678,6.7907,6.9119,7.055,7.1564,7.3142,7.505,7.7436,7.85,8.0262,8.344,8.4432,8.515,8.5943,8.5553,8.477,8.3625,8.1918,8.0969,8.0914,7.8813,7.7926,7.8404,7.5595,7.3983,7.373,7.216,7.1798,7.2555,7.2004,7.2327,7.3492,7.4911,7.6171,7.7392,7.968,8.0823,8.1208,8.2593,8.417,8.5593,8.4786,8.5709,8.7478,8.7748,8.8055,8.844,8.9286,8.9594,8.9671,9.021,8.9787,8.9325,9.0432,9.0979,9.1325,9.1902,9.3249,9.3873,9.1056,8.9979,8.8748,8.5679,8.6094,8.6901,8.6017,8.7632,8.9133,8.8863,8.8517,8.794,0.0,0.0,0.0,0.0,8.2285,8.2939,8.47,8.6863,8.8671,8.9778,9.0171,9.0325,9.0325,9.0556,9.0594,9.0325,9.3249,9.4557,9.371,9.5903,9.698,9.6749,9.8673,9.9375,9.8827,10.0789,10.1904,10.2212,10.3712,10.4492,10.4713,10.5597,10.5905,10.5905,10.5905,10.6087,10.6395,10.6395,10.7213,10.8482,10.879,11.0021,11.1511,7.0146,6.9596,6.9339,7.0073,7.1468,7.2459,7.2496,7.5234,7.7656,7.8662,8.0897,8.3539,8.6545,8.7672,8.9056,9.1175,9.0435,8.8608,8.5607,8.5911,8.5072,8.2607,8.2709,8.2381,8.1392,7.8591,7.68,7.615,7.4551,7.4184,7.4977,7.3362,7.3024,7.386,7.5142,7.6117,7.696,7.9088,8.0477,8.1362,8.217,8.3516,8.517,8.594,8.7855,8.997,8.9094,8.9248,9.0047,9.0902,9.1248,9.1248,9.1248,9.0701,9.0086,9.0086,9.071,9.1402,9.1402,9.2595,9.3441,9.1787,9.1325,9.0633,8.8132,8.9479,9.1018,9.0124,9.1364,9.2826,9.3441,9.1595,8.9893,0.0,0.0,0.0,8.2631,8.2285,8.2901,8.4624,8.6247,8.7863,8.9547,8.9017,8.8564,8.8526,8.7748,8.7671,8.8526,9.1018,9.2787,9.3557,9.5365,9.6673,9.7442,9.8327,9.8788,9.8827,10.1404,10.2212,10.151,10.3905,10.4597,10.3982,10.48,10.5107,10.5107,10.5097,10.5713,10.6395,10.6395,10.6895,10.779,10.8713,11.0021,11.1395,7.0977,7.1307,7.1651,7.1835,7.1711,7.1821,7.2422,7.5234,7.8243,8.0938,8.3772,8.6533,8.9177,9.046,9.1352,9.1911,9.2129,9.1636,9.019,8.931,8.8155,8.6646,8.5294,8.4367,8.3948,8.0554,7.9023,7.9545,7.6226,7.5307,7.6665,7.505,7.4601,7.5263,7.6725,7.7355,7.7566,8.1125,8.3131,8.3978,8.4786,8.617,8.7748,8.7948,8.9979,9.2441,9.0364,8.9701,9.0047,9.0902,9.1633,9.2172,9.2172,9.2402,9.271,9.271,9.3326,9.4027,9.4027,9.4826,9.5365,9.4287,9.3095,9.1825,9.0517,9.1248,9.1902,9.1056,9.271,9.3835,9.2133,9.1325,8.9855,8.6701,8.4055,8.2362,8.2324,8.1785,8.2054,8.3717,8.4332,8.5209,8.6893,8.6901,8.6517,8.594,8.567,8.5901,8.6709,8.9787,9.1633,9.1825,9.4749,9.6403,9.6596,9.8057,9.8788,9.8827,10.1404,10.2789,10.3289,10.3905,10.4405,10.4789,10.4982,10.5107,10.5184,10.579,10.6213,10.6395,10.6395,10.6895,10.7905,10.929,11.0098,11.0598,7.1821,7.2459,7.301,7.301,7.3509,7.4096,7.4536,7.6445,7.8919,8.1819,8.515,8.7919,8.9571,9.187,9.339,9.3659,9.3686,9.3039,9.1552,9.1305,9.0532,8.8913,8.801,8.735,8.6965,8.3202,8.1219,8.1204,7.7979,7.6678,7.7252,7.5637,7.5203,7.575,7.6863,7.7441,7.7741,8.1466,8.3978,8.5517,8.6324,8.7709,0.0,9.0056,9.1518,9.3018,9.1941,9.1556,9.1595,9.171,9.2326,9.3018,9.3018,9.3326,9.371,9.371,9.4335,9.4989,9.4989,9.5634,9.6172,9.5672,9.4864,9.3941,9.3056,9.3249,9.345,9.2941,9.371,9.4104,9.3056,9.1633,8.9355,8.5508,8.3362,8.2208,8.2285,8.1593,8.1708,8.3409,8.3939,8.4555,8.5478,8.5247,8.467,8.3824,8.4132,8.4362,8.4439,8.8393,9.0624,9.0624,9.4326,9.648,9.6826,9.8519,9.9183,9.8827,10.1404,10.2904,10.3405,10.4097,10.4723,10.5107,10.5107,10.5107,10.5097,10.5597,10.6097,10.6395,10.6395,10.6703,10.729,10.8598,10.9598,11.0291,7.2679,7.3303,7.3817,7.3707,7.5784,7.7582,7.7876,7.8846,8.0383,8.281,8.6402,8.8974,8.9581,9.2756,9.5018,9.5565,9.4949,9.3724,9.1741,9.2775,9.2525,9.0511,9.0901,9.0766,8.9957,8.6227,8.3593,8.2189,7.9813,7.8159,7.7289,7.5747,7.5277,7.5713,7.6465,7.7328,7.8494,8.1406,8.4093,8.6517,8.7517,8.8825,9.0432,9.2056,9.271,9.2903,9.348,9.371,9.3595,9.2903,9.321,9.3864,9.3864,9.3941,9.4057,9.4057,9.4566,9.5181,9.5181,9.5711,9.6288,9.6288,9.6288,9.6095,9.5335,9.5181,9.5181,9.5181,9.4557,9.421,9.472,9.2056,8.8701,8.5585,8.4247,8.3409,8.2862,8.2016,8.2054,8.3717,8.4593,0.0,8.4893,8.4209,8.337,8.2362,8.2909,8.2986,8.2324,8.6824,8.9547,8.9893,9.3941,9.6634,9.7673,9.9298,9.9837,9.9327,10.1712,10.2789,10.2789,10.4405,10.4982,10.4905,10.5107,10.5107,10.5107,10.5213,10.5713,10.6395,10.6395,10.6395,10.651,10.729,10.8482,10.9906,7.3597,7.4147,7.4478,7.3817,7.6276,7.9029,8.1048,8.3141,8.5357,8.7656,9.0728,9.2946,9.3626,9.4725,9.5471,9.5598,9.5484,9.5232,9.481,9.5118,9.4828,9.3731,9.3889,9.3293,9.1845,8.9235,8.6905,8.4819,8.1812,7.9329,7.7289,7.6335,7.583,7.575,7.7079,7.9436,8.2532,8.3874,8.5901,8.8363,8.9902,9.1133,9.2133,9.3133,9.395,9.4489,9.3912,9.371,9.3672,9.3518,9.4066,9.4758,9.4758,9.5249,9.5826,9.5826,9.5942,9.6057,9.6057,9.6172,9.6288,9.6288,9.6288,9.6249,9.6095,9.6057,9.6057,9.6057,9.5942,9.5441,9.4172,9.118,8.8248,8.6209,8.4593,8.4024,8.5247,8.4132,8.3785,8.5478,8.5786,8.5632,8.497,8.4739,8.4016,8.2401,8.1823,8.1747,8.2285,8.5132,8.7739,8.9816,9.3364,9.6297,9.8557,9.9606,10.0712,10.1904,10.3097,10.3712,10.3712,10.4723,10.4713,10.4097,10.4789,10.5107,10.5184,10.5905,10.629,10.6395,10.6395,10.6395,10.6395,10.6587,10.729,10.829,7.4404,7.4992,7.5799,7.6732,7.9213,8.2039,8.4866,8.6995,8.8235,8.8092,9.0661,9.2618,9.2946,9.5321,9.6745,9.6324,9.6303,9.6145,9.5724,9.5804,9.5675,9.5254,9.4883,9.4339,9.3601,9.078,8.8207,8.5903,8.2798,7.9816,7.7082,7.5985,7.5572,7.5763,7.7525,8.0237,8.3593,8.4945,8.6978,8.9517,9.1633,9.3018,9.3903,9.4711,9.5326,9.5634,9.5211,9.5057,9.498,9.4527,9.4941,9.5672,9.5672,9.5942,9.6288,9.6288,9.6288,9.6288,9.6288,9.6288,9.6288,9.6288,9.6288,9.6288,9.6288,9.6288,9.6288,9.6288,9.6288,9.5788,9.4018,9.0949,8.8564,8.8124,8.6286,8.5478,8.7209,8.6363,8.5709,8.6055,8.6094,8.5778,8.497,8.4478,8.367,8.2401,8.1939,8.1708,8.167,8.4093,8.6671,8.921,9.2556,9.5758,9.875,10.0481,10.1789,10.2597,10.3482,10.4097,10.4482,10.4905,10.5097,10.5213,10.5597,10.579,10.579,10.6203,10.6395,10.6395,10.6395,10.6395,10.6395,10.6395,10.6713,10.729,7.5836,7.6607,7.7855,8.0167,8.27,8.5326,8.8059,8.9945,9.0489,8.8891,9.0735,9.2345,9.2781,9.5968,9.7841,9.7203,9.7205,9.6877,9.6074,9.6135,9.6102,9.591,9.5337,9.4897,9.459,9.1986,8.9228,8.6354,8.3756,8.0681,7.7165,7.6093,7.5856,7.6418,7.8414,8.105,8.4131,8.5906,8.8209,9.0893,9.3095,9.4489,9.5335,9.6057,9.6403,9.6519,9.6365,9.6403,9.6403,9.5557,9.5711,9.6288,9.6288,9.6288,9.6288,9.6288,9.6288,9.6288,9.6288,9.6288,9.6288,9.6288,9.6288,9.6288,9.6288,9.6288,9.6365,9.6519,9.6711,9.6249,9.4326,9.2104,9.0556,9.047,8.8786,8.794,8.9295,8.8748,8.794,8.7286,8.7008,8.6431,8.5277,8.4209,8.3255,8.2362,8.2131,8.1785,8.1131,8.3324,8.5709,8.8064,9.1595,9.5095,9.8481,10.1096,10.2597,10.3097,10.3789,10.4482,10.5107,10.529,10.5597,10.6087,10.628,10.6395,10.6395,10.6395,10.6395,10.6395,10.6395,10.6395,10.6395,10.6395,10.6395,10.6587,7.8898,7.9984,8.1085,8.2757,8.5673,8.8096,8.9143,9.1171,9.297,9.4114,9.4482,9.5385,9.7277,9.7834,9.8071,9.7994,9.8006,9.7673,9.6832,9.6974,9.6744,9.5949,9.605,9.5414,9.3855,9.3509,9.1059,8.6497,8.5583,8.2749,7.8149,7.7919,7.8028,7.8504,8.0339,8.2884,8.5898,8.7675,9.0372,9.3441,9.445,9.5403,9.6172,9.6288,9.6749,9.7288,9.6557,9.6788,9.725,9.6442,9.6249,9.6288,9.6288,9.6288,9.6288,9.6288,9.6288,9.6288,9.6288,9.6288,9.6288,9.6288,9.6288,9.6288,9.6288,9.6288,9.6519,9.725,9.8019,9.7788,9.5335,9.5865,9.5711,9.2749,9.2056,9.1941,9.2133,9.1402,9.0825,9.0748,9.0009,8.8624,8.6209,8.4555,8.3255,8.2362,8.1631,8.117,8.1093,8.2755,8.4524,8.6286,9.0402,9.421,9.7596,10.0087,10.2597,10.4915,10.4905,10.4982,10.5097,10.5905,10.5905,10.529,10.6097,10.6395,10.6395,10.6395,10.6395,10.6395,10.6395,10.6395,10.6395,10.6395,10.6395,10.651,8.248,8.2957,8.3838,8.593,8.7766,8.951,9.1345,9.3161,9.4813,9.6328,9.6417,9.682,9.8124,9.9091,9.9419,9.8923,9.8494,9.8102,9.7872,9.7022,9.6644,9.6857,9.651,9.598,9.5288,9.4758,9.2995,8.9985,8.7275,8.4218,8.0792,7.8866,7.885,8.0437,8.2146,8.4653,8.7782,9.0009,9.2018,9.3826,9.5211,9.598,9.6365,9.6826,9.7211,9.7519,9.7711,9.7673,9.7442,9.7134,9.6711,9.6288,9.6288,9.6288,9.6288,9.6288,9.6634,9.7019,9.7019,9.7403,9.7788,9.7788,9.7788,9.7788,9.7788,9.7788,9.775,9.7557,9.7788,9.7711,9.6673,9.6211,9.6066,9.6249,9.5018,9.4364,9.5365,9.4326,9.2903,9.1364,8.9094,8.7017,8.5508,8.3401,8.2785,8.4478,8.2401,8.1093,8.1093,8.217,8.3824,8.6017,8.9748,9.3364,9.6749,10.0289,10.2904,10.4405,10.5905,10.6405,10.5905,10.679,10.6713,10.5905,10.6203,10.6395,10.6395,10.6395,10.6395,10.6395,10.6395,10.6395,10.6395,10.6395,10.6395,10.6587,8.5527,8.5857,8.6775,8.9234,9.0298,9.1492,9.3492,9.4832,9.6137,9.7657,9.7863,9.8136,9.8972,9.9982,10.0413,9.9801,9.927,9.8834,9.8455,9.7639,9.7135,9.7087,9.6808,9.6403,9.5942,9.5297,9.4115,9.2351,8.9297,8.6409,8.3631,8.1186,8.1294,8.3601,8.5035,8.7196,8.9949,9.1979,9.3595,9.4903,9.5903,9.6596,9.7057,9.7365,9.7827,9.8288,9.8673,9.8404,9.7827,9.7596,9.698,9.6288,9.6288,9.648,9.6634,9.6634,9.725,9.7865,9.7865,9.8327,9.8788,9.8788,9.8788,9.8788,9.8788,9.8788,9.8634,9.8019,9.8288,9.8557,9.8327,9.748,9.7288,9.8596,9.7519,9.6634,9.7096,9.6134,9.4441,9.1902,8.8786,8.6363,8.5008,8.2824,8.2554,8.517,8.2939,8.167,8.2208,8.2516,8.3747,8.6017,8.944,9.2826,9.6288,10.0212,10.2789,10.3905,10.6482,10.7405,10.679,10.7405,10.7405,10.679,10.651,10.6395,10.6395,10.6395,10.6395,10.6395,10.6395,10.6395,10.6395,10.6395,10.6395,10.6587,8.7692,8.8776,9.0134,9.2611,9.3712,9.452,9.5345,9.5872,9.6787,9.8454,9.9095,9.9687,10.0516,10.0604,10.0604,10.0604,10.0604,9.9924,9.8402,9.9134,9.8598,9.6213,9.7001,9.6711,9.5066,9.5027,9.4181,9.2518,9.1809,8.9713,8.6431,8.5543,8.6298,8.8472,8.9388,9.0816,9.2518,9.3326,9.5134,9.7403,9.6596,9.7288,9.8673,9.7827,9.8557,9.9952,9.9096,9.8788,9.8634,9.7788,9.698,9.6288,9.6288,9.6865,9.748,9.748,9.8096,9.8788,9.8788,9.8788,9.8788,9.8788,9.8788,9.8788,9.8788,9.8788,9.8788,9.8788,10.0096,10.1019,10.0221,10.0712,10.0712,9.9058,9.949,9.9183,9.6673,9.6288,9.5326,9.2787,9.0218,8.7671,8.5162,8.3324,8.267,8.3563,8.2785,8.3054,8.4739,8.4055,8.4371,8.6055,8.944,9.2826,9.6288,9.9625,10.2212,10.3905,10.6482,10.7713,10.7713,10.7713,10.7713,10.7598,10.679,10.6395,10.6395,10.6395,10.6395,10.6395,10.6395,10.6395,10.6395,10.6395,10.6395,10.6395,9.0482,9.1363,9.217,9.2978,9.4226,9.5198,9.5455,9.6893,9.8116,9.8642,9.9602,10.0298,10.0604,10.0604,10.0604,10.0604,10.0107,9.9893,10.0092,9.9341,9.859,9.7962,9.7654,9.698,9.5903,9.5903,9.5634,9.5095,9.3045,9.0599,8.7877,8.757,8.8468,9.0367,9.1278,9.2941,9.5134,9.5942,9.6749,9.7519,9.7865,9.798,9.8019,9.8942,9.9606,10.0106,10.0404,10.0212,9.9644,9.9375,9.8711,9.798,9.798,9.7788,9.7519,9.7519,9.8519,9.9683,9.9683,10.0096,10.0519,10.0519,10.0519,10.0519,10.0519,10.0096,9.9683,9.9683,10.0106,10.0404,10.0106,10.0789,10.1087,10.0596,10.0289,9.9413,9.7403,9.6134,9.4249,9.1086,8.9017,8.7055,8.5085,8.4401,8.467,8.6094,8.4863,8.4316,8.4854,8.517,8.5824,8.694,9.0825,9.4249,9.7096,10.0519,10.3289,10.5597,10.7598,10.879,10.9406,10.879,10.8213,10.7713,10.7405,10.6895,10.6395,10.6395,10.6395,10.6395,10.6395,10.6395,10.6395,10.6395,10.6395,10.651,9.1803,9.2501,9.3198,9.3492,9.463,9.5602,9.5914,9.7526,9.8717,9.8717,9.983,10.0604,10.0604,10.0604,10.0604,10.0604,10.0107,9.9981,10.0491,9.985,9.9263,9.8817,9.8288,9.7596,9.6788,9.6442,9.6288,9.6288,9.3963,9.236,9.1399,9.0754,9.1396,9.3133,9.3672,9.498,9.6749,9.698,9.7403,9.8019,9.8211,9.8365,9.8596,9.9683,10.0298,10.0596,10.1096,10.0789,10.0106,10.0106,9.9529,9.8788,9.8788,9.8634,9.8481,9.8481,9.9442,10.0606,10.0606,10.0904,10.1279,10.1279,10.1279,10.1279,10.1279,10.0904,10.0606,10.0606,10.0606,10.0606,10.0606,10.1019,10.1279,10.1279,10.0596,9.949,9.775,9.5518,9.3018,9.0239,8.8709,8.7209,8.5517,8.6201,8.7094,8.7825,8.7209,8.6931,8.7239,8.6824,8.744,8.9248,9.2479,9.5711,9.8904,10.1404,10.3905,10.6395,10.8406,10.979,11.0598,10.9406,10.8598,10.8098,10.7521,10.6895,10.6395,10.6395,10.6395,10.6395,10.6395,10.6395,10.6395,10.6395,10.6395,10.651,9.1877,9.2574,9.3418,9.4153,9.4997,9.5822,9.6502,9.7772,9.867,9.8679,9.9752,10.0607,10.0592,10.0604,10.0604,10.0604,10.0604,10.0402,9.9828,10.0502,10.0299,9.8856,9.8865,9.8442,9.7519,9.6788,9.6365,9.6288,9.4672,9.4711,9.6249,9.4634,9.4749,9.6288,9.6288,9.6749,9.7442,9.6788,9.7365,9.875,9.8057,9.8711,10.0106,10.0183,10.0596,10.1279,10.1279,10.0789,10.0183,10.0183,9.9644,9.8981,9.8981,9.9529,10.0183,10.0106,10.0712,10.1279,10.1279,10.1279,10.1279,10.1279,10.1279,10.1279,10.1279,10.1279,10.1279,10.1279,10.1279,10.1279,10.1279,10.1279,10.1394,10.1279,10.0596,9.9413,9.7519,9.4557,9.1864,8.9932,8.921,8.8209,8.6517,8.8547,8.9663,8.8949,8.9556,9.0355,9.1248,8.9133,8.9402,9.2672,9.4441,9.7317,10.1394,10.2289,10.4097,10.6587,10.9098,11.0714,11.1395,10.979,10.8983,10.879,10.7213,10.651,10.6395,10.6395,10.6395,10.6395,10.6395,10.6395,10.6395,10.6395,10.6395,10.6395,9.2648,9.3455,9.4079,9.4263,9.5474,9.6282,9.5859,9.7002,9.8126,9.8617,9.941,10.0088,10.0481,10.0604,10.0604,10.0604,10.0604,10.0593,10.0683,10.0896,10.0299,9.8856,9.9452,9.9067,9.7519,9.7326,9.6903,9.6288,9.5903,9.5903,9.6288,9.5865,9.5903,9.6288,9.6288,9.6749,9.7519,9.8019,9.8442,9.8904,9.9981,10.0289,10.0183,10.0789,10.1087,10.1279,10.1279,10.1212,10.1019,10.1019,10.0904,10.0712,10.0712,10.0789,10.0904,10.0298,10.0712,10.1279,10.1279,10.1279,10.1279,10.1279,10.1279,10.1279,10.1279,10.1279,10.1279,10.1279,10.1279,10.1279,10.1279,10.1779,10.2097,10.1394,10.0596,9.8798,9.5134,9.3903,9.2056,8.8402,8.9556,9.0171,8.9124,9.0163,9.0825,9.0633,9.0787,9.1287,9.2133,9.2835,9.3864,9.5365,9.7673,10.0289,10.3289,10.4097,10.579,10.829,11.0291,11.1291,11.1522,11.0406,10.9483,10.879,10.779,10.7021,10.6395,10.6395,10.6395,10.6395,10.6395,10.6395,10.6395,10.6395,10.6395,10.6395,9.3015,9.3749,9.441,9.4777,9.5547,9.6135,9.6061,9.7254,9.8306,9.8633,9.9521,10.0214,10.0607,10.0604,10.0604,10.0604,10.0604,10.0708,10.0989,10.1011,10.0683,9.9971,9.9981,9.9644,9.8711,9.7904,9.7096,9.6288,9.6288,9.6288,9.6288,9.6288,9.6288,9.6288,9.6288,9.698,9.8096,9.8173,9.8673,9.949,10.0404,10.0481,10.0183,10.1019,10.1279,10.1279,10.1279,10.1279,10.1279,10.1279,10.1279,10.1279,10.1279,10.1279,10.1202,10.0789,10.0981,10.1279,10.1279,10.1279,10.1279,10.1279,10.1279,10.1279,10.1279,10.1279,10.1279,10.1279,10.1279,10.1279,10.1279,10.202,10.2212,10.0981,9.9712,9.7836,9.472,9.2642,9.0864,8.9325,9.071,9.1748,9.1672,9.3133,9.3749,9.2979,9.3326,9.3749,9.421,9.5835,9.6749,9.6865,9.8952,10.1299,10.3905,10.5905,10.7713,10.9483,11.0906,11.1511,11.1522,11.0214,10.929,10.879,10.7598,10.678,10.6395,10.6395,10.6395,10.6395,10.6395,10.6395,10.6395,10.6395,10.6713,10.7021,9.3235,9.3822,9.4556,9.5345,9.5584,9.586,9.6428,9.7646,9.8608,9.8701,9.9712,10.0521,10.0592,10.0604,10.0604,10.0589,10.0589,10.0692,10.0989,10.1011,10.099,10.1087,10.0491,10.0106,10.0106,9.8519,9.7365,9.6673,9.6557,9.648,9.648,9.648,9.6442,9.6288,9.6288,9.7173,9.8557,9.7942,9.8557,9.9913,10.0183,10.0221,10.0183,10.1019,10.1279,10.1279,10.1279,10.1279,10.1279,10.1279,10.1279,10.1279,10.1279,10.1279,10.1279,10.1279,10.1394,10.151,10.151,10.151,10.151,10.1279,10.1279,10.1279,10.151,10.1394,10.1394,10.1587,10.1597,10.151,10.151,10.2212,10.2212,10.0414,9.8634,9.6788,9.472,9.145,8.9757,9.1056,9.2326,9.348,9.4557,9.648,9.7211,9.6028,9.6403,9.6788,9.7057,9.8404,9.8904,9.8288,9.9827,10.1799,10.4289,10.7405,10.929,10.9983,11.1021,11.1395,11.1203,10.9598,10.879,10.8598,10.7098,10.6395,10.6395,10.6395,10.6395,10.6395,10.6395,10.6395,10.6395,10.651,10.7098,10.7713,9.3822,9.4189,9.4556,9.5345,9.6061,9.6318,9.5749,9.6911,9.8059,9.8639,9.9368,9.9999,10.0519,10.0604,10.06,10.0791,10.0802,10.0782,10.1,10.1011,10.0798,10.0289,10.0183,10.0106,10.0106,9.9096,9.8519,9.8404,9.7673,9.7326,9.7326,9.7326,9.6942,9.6288,9.6288,9.6826,9.775,9.8327,9.875,9.9135,10.0519,10.0712,10.0183,10.1019,10.1279,10.1279,10.1279,10.1279,10.1279,10.1279,10.1279,10.1279,10.1279,10.1279,10.1279,10.1279,10.1779,10.2404,10.2404,10.2404,10.2212,10.151,10.1279,10.151,10.2212,10.1779,10.1712,10.3212,10.2904,10.2404,10.2404,10.3097,10.2904,10.0491,9.8634,9.6172,9.2326,9.1864,9.171,9.1248,9.3864,9.6596,9.8875,9.8798,9.9096,10.0202,9.9135,9.9019,10.0394,10.0789,10.1212,10.1789,10.2789,10.4212,10.602,10.7905,10.8983,10.9098,11.0714,11.1098,11.0406,10.9406,10.8482,10.779,10.678,10.6395,10.6395,10.6395,10.6395,10.6395,10.6395,10.6395,10.651,10.7213,10.7598,10.7713,9.4042,9.4666,9.5217,9.6025,9.6465,9.6575,9.6208,9.7344,9.837,9.867,9.9563,10.0302,10.0619,10.0604,10.0688,10.0814,10.0787,10.0711,10.0394,10.0788,10.0783,10.0096,10.0106,9.9644,9.8711,9.8288,9.7904,9.7442,9.7057,9.6865,9.6865,9.6865,9.6673,9.6288,9.6288,9.7019,9.8211,9.8634,9.9067,9.9567,10.0289,10.0212,9.949,10.0289,10.0712,10.0712,10.1087,10.1279,10.1279,10.1279,10.1279,10.1279,10.1279,10.1279,10.1279,10.1279,10.1904,10.2712,10.3212,10.2981,10.2597,10.2712,10.2289,10.2212,10.3097,10.2981,10.2904,10.3712,10.3212,10.2597,10.2597,10.2904,10.2481,10.0414,9.7874,9.5634,9.4172,9.271,9.2479,9.4364,9.6403,9.8634,10.1212,10.0712,10.0712,10.1904,10.0789,10.0712,10.1894,10.202,10.2597,10.3905,10.4289,10.5097,10.6395,10.8098,10.8906,10.8906,11.0714,11.0791,10.9483,10.9098,10.8482,10.7713,10.679,10.6395,10.6395,10.6395,10.6395,10.6395,10.6395,10.6395,10.651,10.7405,10.7982,10.829,9.441,9.507,9.5768,9.6575,9.6685,9.6685,9.6685,9.7861,9.8717,9.8717,9.983,10.0604,10.0604,10.0604,10.07,10.082,10.0793,10.0699,10.0304,10.0901,10.0787,9.9827,9.9798,9.9067,9.7519,9.7519,9.7288,9.6865,9.6673,9.6596,9.6596,9.6596,9.648,9.6288,9.6288,9.7134,9.8481,9.8481,9.8865,9.9529,9.9721,9.9413,9.8913,9.976,10.0106,10.0221,10.1019,10.1212,10.101,10.1202,10.1279,10.1279,10.1279,10.1279,10.1279,10.1279,10.2097,10.2981,10.3482,10.3097,10.2789,10.3712,10.3212,10.2904,10.3905,10.3982,10.3982,10.4405,10.3789,10.3212,10.3212,10.302,10.2289,10.0414,9.7413,9.548,9.5942,9.3749,9.3518,9.7365,9.875,10.0404,10.2904,10.2789,10.2779,10.3712,10.3212,10.3097,10.3712,10.3597,10.4097,10.5405,10.5405,10.5713,10.6395,10.8098,10.879,10.8598,11.0598,11.0598,10.8906,10.9098,10.8713,10.7713,10.7021,10.6587,10.6395,10.6213,10.6203,10.6395,10.6213,10.6203,10.651,10.7405,10.8098,10.8598,9.5235,9.5437,9.575,9.6575,9.6685,9.6685,9.6685,9.7861,9.8717,9.8717,9.983,10.0604,10.0604,10.0604,10.0696,10.1017,10.0989,10.1008,10.1183,10.1308,10.0587,9.8981,9.8913,9.8442,9.7519,9.7519,9.7865,9.8634,9.7827,9.7403,9.7403,9.7403,9.7019,9.6288,9.6288,9.6788,9.7596,9.7596,9.7634,9.775,9.8557,9.8865,9.8913,9.976,10.0106,10.0221,10.1019,10.0789,10.0298,10.101,10.1279,10.1279,10.1279,10.1279,10.1279,10.1279,10.252,10.3597,10.2904,10.2597,10.2789,10.3712,10.3212,10.302,10.4597,10.4405,10.4289,10.5905,10.5482,10.4905,10.4905,10.4289,10.2991,10.0491,9.7904,9.5942,9.522,9.4874,9.572,9.8404,10.0096,10.2097,10.4723,10.5597,10.6405,10.729,10.729,10.729,10.729,10.6597,10.6203,10.628,10.628,10.628,10.6395,10.8098,10.8482,10.779,11.028,11.0598,10.8906,10.9713,10.9213,10.7713,10.7598,10.7098,10.628,10.5482,10.5713,10.628,10.5482,10.5713,10.651,10.7405,10.7713,10.779,9.5235,9.5511,9.5768,9.6575,9.6685,9.6685,9.6685,9.7861,9.8717,9.8717,9.983,10.0604,10.0604,10.0604,10.0505,10.0212,10.0195,9.9829,9.9,9.9442,9.9481,9.8827,9.8288,9.7596,9.6788,9.6749,9.6903,9.725,9.7403,9.7519,9.7519,9.7519,9.7326,9.7019,9.6519,9.6749,9.7519,9.7519,9.7519,9.7519,9.7865,9.798,9.8019,9.8365,9.9173,10.0106,9.9827,10.0212,10.0789,10.0596,10.0904,10.1279,10.1279,10.1279,10.1394,10.1894,10.2212,10.252,10.3212,10.3405,10.3597,10.4405,10.3982,10.3789,10.552,10.5713,10.579,10.7021,10.6097,10.529,10.579,10.4789,10.3405,10.1904,9.9519,9.7904,9.8144,9.7721,9.8288,10.0904,10.2212,10.3712,10.5713,10.6203,10.679,10.7598,10.8213,10.8406,10.8406,10.7713,10.7021,10.6395,10.6395,10.6395,10.6395,10.7598,10.7713,10.6895,10.8906,10.9021,10.7405,10.829,10.7982,10.6895,10.6895,10.6703,10.628,10.5482,10.5597,10.629,10.4905,10.5213,10.6405,10.6213,10.679,10.7598,9.5602,9.5859,9.6061,9.6612,9.6685,9.6685,9.6685,9.7861,9.8717,9.8717,9.983,10.0604,10.0604,10.0413,10.0096,9.9713,9.9466,9.8907,9.7971,9.8481,9.8788,9.8788,9.8211,9.7634,9.7096,9.7096,9.7096,9.7096,9.7634,9.7904,9.7904,9.7904,9.7904,9.7865,9.7057,9.698,9.748,9.725,9.7134,9.7134,9.7134,9.7288,9.7519,9.7788,9.8634,9.9683,9.9596,10.0212,10.0904,10.0596,10.0789,10.1279,10.1279,10.1279,10.151,10.2712,10.2597,10.2404,10.3597,10.4097,10.4405,10.4992,10.4482,10.4289,10.602,10.6395,10.6587,10.7521,10.6713,10.6097,10.6713,10.5597,10.4289,10.3212,10.1289,10.0212,10.0798,10.0404,10.0789,10.3097,10.3905,10.4905,10.6587,10.701,10.7521,10.8406,10.9213,10.9598,10.929,10.829,10.7405,10.678,10.651,10.6395,10.6395,10.729,10.729,10.6395,10.8098,10.8213,10.678,10.7713,10.7598,10.679,10.651,10.6203,10.5905,10.4789,10.4982,10.5905,10.4405,10.4905,10.628,10.5713,10.629,10.7213,9.6539,9.6685,9.6685,9.6685,9.6685,9.6685,9.6685,9.7861,9.8717,9.8717,9.983,10.0604,10.0604,9.9878,9.9484,9.9675,9.8968,9.8611,9.8779,9.8788,9.8788,9.8827,9.8788,9.8788,9.8788,9.8788,9.8788,9.8788,9.8788,9.8788,9.8788,9.8788,9.8788,9.875,9.7904,9.7519,9.7442,9.6634,9.6326,9.6288,9.6326,9.6788,9.7596,9.8481,9.8788,9.9019,10.0712,10.0789,10.0221,10.1019,10.1279,10.1279,10.1279,10.1279,10.1712,10.3405,10.3905,10.3905,10.3905,10.4482,10.5107,10.5107,10.4482,10.4289,10.602,10.6395,10.6587,10.7521,10.7713,10.7713,10.7713,10.7021,10.5905,10.4212,10.3212,10.2597,10.2597,10.2597,10.3212,10.4905,10.5107,10.579,10.7521,10.8406,10.929,11.0098,11.1021,11.1098,11.0214,10.8598,10.7713,10.7713,10.6905,10.6395,10.6395,10.729,10.729,10.6395,10.8098,10.8482,10.7713,10.8482,10.8406,10.7598,10.679,10.5905,10.4992,10.3289,10.3597,10.4982,10.4212,10.4905,10.6395,10.6395,10.6395,10.6395,9.485,9.5474,9.5859,9.5859,9.6318,9.6685,9.6685,9.7861,9.8717,9.8717,9.983,10.0604,10.0604,10.0413,10.0096,9.9713,9.8968,9.86,9.8779,9.8788,9.9327,10.0519,9.9442,9.8788,9.8788,9.8788,9.8788,9.8788,9.9413,9.9721,9.9721,9.9721,9.9721,9.9683,9.8788,9.8057,9.748,9.725,9.6826,9.6365,9.6903,9.7288,9.7596,9.8481,9.9183,9.9721,9.9596,10.0096,10.0904,10.0596,10.0789,10.1279,10.1279,10.1712,10.2404,10.3597,10.3905,10.3982,10.4607,10.4482,10.4299,10.4299,10.4482,10.4982,10.6087,10.6395,10.679,10.8213,10.7598,10.729,10.9098,10.779,10.6203,10.5703,10.4905,10.4212,10.3597,10.3982,10.4482,10.4982,10.6213,10.7098,10.7598,10.8983,10.9906,11.0224,11.1021,11.1098,11.0214,10.9713,10.8906,10.7713,10.7405,10.701,10.6395,10.6713,10.6713,10.6395,10.6895,10.701,10.679,10.701,10.701,10.6703,10.5905,10.529,10.4992,10.3289,10.3597,10.4905,10.2904,10.3779,10.6203,10.4405,10.4905,10.628,9.4153,9.4703,9.5034,9.5034,9.5694,9.6245,9.6245,9.7637,9.8717,9.8717,9.983,10.0604,10.0604,10.0298,10.0019,9.9713,9.904,9.8652,9.8779,9.8788,9.9404,10.0789,9.9865,9.9298,9.9298,9.9635,9.9635,9.9298,10.0212,10.0596,10.0596,10.0596,10.0596,10.0481,9.9683,9.8827,9.798,9.7634,9.7211,9.6826,9.7288,9.7711,9.8096,9.8981,9.9644,10.0106,9.9865,10.0404,10.1202,10.0712,10.0904,10.1279,10.1279,10.1712,10.2289,10.3482,10.3905,10.4097,10.4915,10.4982,10.4789,10.4482,10.4713,10.529,10.6213,10.6395,10.6895,10.8598,10.8098,10.7905,10.9406,10.8406,10.7213,10.651,10.602,10.5597,10.5405,10.579,10.6213,10.6597,10.7482,10.829,10.8713,10.9598,11.0291,11.0714,11.1214,11.1291,11.0714,11.0098,10.9213,10.8213,10.7521,10.6895,10.6395,10.6395,10.6395,10.6395,10.6395,10.6395,10.6395,10.602,10.5905,10.579,10.4597,10.4097,10.3982,10.2597,10.2904,10.3982,10.2789,10.3789,10.5713,10.452,10.5097,10.628,9.3932,9.4116,9.4189,9.4189,9.4923,9.5492,9.5492,9.7289,9.8617,9.8664,9.9739,10.0507,10.0477,9.9916,9.956,9.9675,9.921,9.8904,9.8904,9.8904,9.9298,10.0183,10.0221,10.0183,10.0106,10.0904,10.0904,10.0221,10.0904,10.1279,10.1279,10.1279,10.1279,10.1289,10.0481,9.9721,9.8865,9.798,9.7557,9.7519,9.7596,9.8019,9.8673,9.9721,10.0106,10.0106,10.0904,10.1202,10.1279,10.1279,10.1279,10.1279,10.1279,10.1394,10.1702,10.3289,10.3789,10.4097,10.4915,10.5713,10.6097,10.5405,10.5213,10.5405,10.6203,10.6395,10.6905,10.8482,10.879,10.879,10.8906,10.879,10.829,10.679,10.651,10.679,10.7598,10.779,10.8098,10.879,10.8983,10.929,11.0098,11.0291,11.0598,11.1395,11.1511,11.1511,11.1511,10.9906,10.8983,10.8906,10.729,10.651,10.6395,10.6395,10.6395,10.6395,10.6395,10.6395,10.6405,10.5482,10.5107,10.4982,10.3289,10.2597,10.252,10.1712,10.1779,10.2712,10.3482,10.4299,10.5097,10.602,10.629,10.628,9.2317,9.2905,9.3345,9.3345,9.4556,9.5492,9.5492,9.689,9.8109,9.8617,9.9396,9.9847,9.969,10.0107,10.021,9.9752,9.9786,9.9837,9.9837,9.9837,10.0212,10.1019,10.1019,10.0712,10.0106,10.0904,10.1202,10.1019,10.1202,10.1279,10.1279,10.1279,10.1279,10.1279,10.1096,10.0596,9.976,9.8904,9.8134,9.7557,9.825,9.7827,9.7096,9.9259,9.9683,9.9183,10.0106,10.0789,10.1279,10.1279,10.1279,10.1279,10.1279,10.1789,10.2404,10.2789,10.3405,10.4097,10.4915,10.5213,10.5482,10.602,10.6097,10.6213,10.6405,10.6395,10.6703,10.7713,10.7982,10.8213,10.879,10.8406,10.779,10.7521,10.7405,10.7521,10.7713,10.8213,10.8713,10.8906,10.9483,10.9983,11.0224,11.0791,11.1291,11.1511,11.1511,11.1511,11.1511,11.0483,10.9598,10.8906,10.7905,10.7098,10.6395,10.6395,10.6395,10.6395,10.6395,10.6395,10.6405,10.5482,10.5107,10.4982,10.3289,10.2597,10.252,10.1712,10.1779,10.2597,10.2789,10.3405,10.4299,10.5097,10.5405,10.5482,9.1803,9.217,9.2611,9.3015,9.4116,9.507,9.5418,9.6747,9.7793,9.8061,9.9018,9.9605,9.9411,10.0107,10.0505,10.0288,10.0517,10.0712,10.0712,10.0712,10.0904,10.1279,10.1279,10.1096,10.0712,10.1096,10.1096,10.0712,10.1096,10.1279,10.1279,10.1279,10.1279,10.1279,10.1279,10.0904,10.0106,9.9606,9.8904,9.8211,9.9067,9.8913,9.8288,9.9981,10.0404,10.0096,10.0481,10.0904,10.1279,10.1279,10.1279,10.1279,10.1279,10.1587,10.2097,10.252,10.3212,10.4097,10.4915,10.5405,10.579,10.629,10.6395,10.6395,10.6395,10.6395,10.679,10.7982,10.7982,10.7905,10.879,10.8213,10.7713,10.7713,10.7713,10.7982,10.879,10.929,10.9713,11.0098,11.0521,11.0791,11.0791,11.1203,11.128,11.0906,11.1291,11.1088,11.0291,10.979,10.9213,10.8406,10.7521,10.6713,10.579,10.6213,10.6213,10.579,10.6213,10.6213,10.579,10.4905,10.4289,10.3789,10.252,10.202,10.1894,10.151,10.1597,10.202,10.2404,10.2904,10.3405,10.4212,10.4789,10.5213,9.1803,9.1803,9.206,9.2941,9.3749,9.452,9.518,9.6436,9.7306,9.7205,9.8314,9.912,9.917,9.9939,10.0615,10.0989,10.1188,10.1308,10.1279,10.1279,10.1279,10.1279,10.1279,10.1279,10.1279,10.1279,10.1019,10.0298,10.1019,10.1279,10.1279,10.1279,10.1279,10.1279,10.1279,10.0904,10.0298,10.0183,9.9683,9.9106,9.9798,9.999,9.999,10.0789,10.1096,10.1096,10.1096,10.1212,10.1279,10.1279,10.1279,10.1279,10.1279,10.1279,10.1394,10.2212,10.2904,10.3597,10.4482,10.529,10.602,10.6087,10.629,10.6395,10.6395,10.6395,10.679,10.8213,10.8098,10.7905,10.8598,10.8098,10.7713,10.7905,10.779,10.829,10.9993,11.0224,11.0483,11.1395,11.1511,11.1511,11.1511,11.1511,11.1098,11.0291,11.0906,11.0598,10.8983,10.879,10.8406,10.7713,10.6713,10.5905,10.529,10.5905,10.579,10.5107,10.579,10.579,10.5107,10.4097,10.3289,10.2597,10.1712,10.1279,10.1279,10.1279,10.1279,10.1394,10.2289,10.252,10.252,10.3405,10.4289,10.5223,9.1803,9.1803,9.206,9.2941,9.3749,9.4336,9.4446,9.5238,9.5934,9.6296,9.6539,9.7068,9.8169,9.9139,10.0103,10.0923,10.1088,10.119,10.1317,10.1279,10.1279,10.1279,10.1279,10.1279,10.1279,10.1279,10.1202,10.1087,10.1202,10.1279,10.1279,10.1279,10.1279,10.1279,10.1279,10.1202,10.1096,10.0414,9.999,9.9913,10.0106,9.9644,9.9067,9.9952,10.0298,10.0298,10.0298,10.0712,10.1279,10.1279,10.1279,10.1279,10.1279,10.1279,10.1279,10.1394,10.1597,10.1779,10.2712,10.3597,10.4405,10.5097,10.579,10.6395,10.6395,10.6395,10.651,10.6703,10.729,10.7713,10.779,10.779,10.7905,10.8598,10.8213,10.829,10.9993,11.0224,11.0483,11.1395,11.1511,11.1511,11.1511,11.1511,11.1098,11.0291,11.0291,10.9906,10.8983,10.8213,10.779,10.7713,10.6097,10.5597,10.6203,10.5597,10.5213,10.5107,10.5213,10.5213,10.4982,10.3482,10.2712,10.2597,10.1712,10.1279,10.1279,10.1279,10.1279,10.1394,10.2289,10.2097,10.1597,10.252,10.3789,10.5107,9.1803,9.1803,9.2207,9.3529,9.3675,9.3932,9.485,9.4887,9.4959,9.5419,9.5886,9.6668,9.7967,9.9418,10.0497,10.1,10.1116,10.1218,10.1317,10.1279,10.1279,10.1279,10.1279,10.1279,10.1279,10.1279,10.1279,10.1279,10.1279,10.1279,10.1279,10.1279,10.1279,10.1279,10.1279,10.1279,10.1202,10.0404,10.0106,10.0106,10.0106,9.9875,9.9606,10.0481,10.0789,10.0789,10.0789,10.1019,10.1279,10.1279,10.1279,10.1279,10.1279,10.1279,10.1279,10.1279,10.1587,10.2212,10.3097,10.3905,10.4789,10.5597,10.6097,10.6395,10.6395,10.6395,10.651,10.701,10.701,10.729,10.8213,10.7598,10.7598,10.929,10.8482,10.829,10.9993,10.979,10.9598,11.0021,11.0483,11.0791,11.0791,11.0791,11.0406,10.9483,10.9483,10.8906,10.7598,10.7213,10.679,10.629,10.5107,10.4405,10.4289,10.4405,10.4212,10.3712,10.3712,10.3712,10.3712,10.2904,10.2289,10.1904,10.151,10.1279,10.1279,10.1279,10.1279,10.1279,10.1702,10.1587,10.1394,10.2289,10.3097,10.3789]}]]